GFSSGP_sfc_thetae_000.txt.gz
Theta_e
336 334 326 316 307 305 301 305 310 307 305 308 308 307 305 304 306 301 319 333 333 333 343 351 355 354 353 352 351 351 350 348 345 344 343 343 342 341 340 340 339 337 336 336 336 337 337 339 341
330 326 315 316 304 300 302 309 307 305 308 308 308 307 306 309 319 318 325 336 332 335 342 347 355 354 354 353 353 352 351 348 346 346 345 345 344 343 342 341 341 340 339 338 337 337 337 338 338
321 318 311 311 304 300 302 310 311 309 310 309 307 311 310 311 320 319 323 337 334 335 341 345 355 355 355 354 353 353 352 350 348 347 346 345 344 344 344 343 342 342 342 341 340 339 338 338 340
321 321 317 305 301 307 309 312 313 306 308 308 309 309 313 318 321 323 336 340 336 338 341 348 356 355 355 353 352 352 351 350 347 347 345 344 343 344 345 342 341 341 341 341 342 340 339 341 341
323 316 305 301 304 308 311 311 307 305 305 306 307 309 310 319 324 325 332 340 335 337 341 350 356 356 356 353 351 352 352 350 347 346 345 343 344 344 342 340 340 340 340 341 342 341 341 342 341
313 309 297 296 302 307 308 310 309 306 307 307 309 309 309 318 321 321 321 323 337 342 346 350 355 355 355 355 352 350 347 344 342 340 339 340 340 340 339 339 339 339 339 340 341 341 342 342 341
309 305 299 301 303 304 308 312 309 307 307 306 310 307 311 315 318 320 317 329 335 341 343 345 349 352 354 350 349 347 344 342 337 334 333 334 334 335 336 336 337 337 337 338 341 341 342 342 340
312 306 300 301 301 301 309 307 308 308 309 311 312 309 308 315 318 316 317 317 326 332 335 337 336 337 338 341 347 344 340 336 335 334 334 333 333 333 333 334 334 335 336 336 339 340 340 340 340
315 302 299 301 303 305 311 304 309 312 309 310 311 312 317 319 317 314 313 313 314 321 326 330 329 332 333 334 338 340 337 336 336 335 334 333 326 324 327 331 335 336 337 337 337 338 339 338 339
309 302 305 311 308 306 310 306 307 307 307 308 312 317 318 318 314 313 312 311 311 312 314 317 320 323 327 334 331 330 328 328 328 326 324 323 322 322 328 331 334 334 336 337 337 337 337 337 327
309 305 311 311 312 312 310 310 310 306 304 307 308 313 315 314 312 312 312 311 310 312 317 318 319 320 322 324 325 323 322 322 322 323 323 323 323 322 323 323 325 325 331 328 332 331 330 328 326
305 312 313 313 314 311 309 312 310 308 308 311 312 316 314 313 312 311 311 310 311 313 314 316 320 321 321 323 323 322 323 322 321 322 323 322 321 320 321 323 324 323 325 324 325 325 325 327 327
308 311 313 313 312 312 312 309 308 307 312 313 313 314 314 313 311 311 310 310 311 313 317 318 320 322 324 323 323 323 322 323 322 321 323 323 321 320 325 326 324 321 322 323 323 324 324 324 325
311 312 312 313 312 312 310 310 307 310 313 312 310 310 311 310 311 309 311 311 312 315 318 319 320 323 324 323 322 323 322 324 324 323 324 324 322 323 324 320 321 319 320 321 322 322 322 323 323
307 305 309 310 308 307 310 305 305 310 311 309 308 308 310 311 311 311 313 313 313 313 318 318 321 322 323 322 322 322 323 325 324 324 324 323 322 322 321 319 319 320 320 320 321 321 322 321 323
300 300 295 303 306 308 305 300 308 310 309 308 309 308 308 308 312 312 313 313 312 314 317 319 324 321 321 320 321 324 325 324 324 323 324 325 325 323 320 319 319 320 319 318 319 319 319 320 320
296 293 295 298 305 306 303 302 309 311 308 308 308 308 309 309 309 311 313 314 312 315 316 318 319 320 320 322 322 323 324 323 325 324 323 323 324 323 320 320 320 320 318 317 318 317 319 318 319
293 293 296 298 304 304 303 303 307 309 309 308 307 308 309 308 309 313 315 314 313 316 318 319 320 320 322 322 321 323 322 324 325 325 323 323 323 323 321 320 320 319 317 316 317 317 318 318 318
298 296 296 301 305 302 302 303 306 308 307 306 305 306 307 308 311 314 317 315 314 317 318 318 319 320 321 318 319 318 319 321 323 325 326 325 322 322 320 320 319 319 317 316 317 317 317 317 318
297 297 296 301 304 301 301 301 306 307 306 306 306 306 306 308 312 315 315 314 314 316 318 319 320 319 320 319 322 321 321 322 323 324 325 326 324 325 322 321 319 319 317 316 317 317 316 316 318
297 296 298 298 302 303 300 299 301 306 307 308 307 307 308 309 310 313 314 312 313 316 318 320 320 320 319 321 322 321 320 321 322 323 324 323 324 326 323 322 320 319 317 316 316 317 317 315 318
294 302 301 301 298 292 300 289 296 301 302 304 305 305 307 309 311 313 314 312 313 314 317 320 320 318 320 321 320 319 318 316 319 320 321 322 323 324 323 322 321 320 318 316 318 320 318 318 317
297 302 301 301 298 294 296 290 294 299 299 303 304 305 306 309 311 312 313 314 314 317 317 319 318 319 321 321 320 320 317 319 319 319 319 320 323 325 324 322 320 319 318 318 320 319 319 319 319
304 301 299 299 296 289 295 293 295 296 300 302 304 306 307 307 309 312 315 314 314 315 316 317 316 317 321 321 321 319 318 318 317 316 317 318 319 324 321 322 319 319 318 319 319 320 320 319 321
300 295 287 283 286 287 295 292 294 300 303 304 302 305 307 309 311 313 314 313 313 314 315 316 317 317 319 319 320 319 320 318 316 316 317 315 316 316 317 319 320 318 320 321 321 320 323 319 322
295 293 290 282 283 287 296 290 296 303 305 306 306 308 308 308 312 313 314 313 313 314 315 316 316 314 315 318 319 318 320 318 316 318 318 317 316 317 318 320 321 322 323 324 322 323 324 323 321
294 292 298 291 291 288 291 296 302 303 302 306 307 308 307 308 311 313 314 312 310 312 314 314 316 315 314 318 319 320 321 320 319 318 318 318 318 320 320 320 320 322 323 322 324 324 324 325 325
296 298 291 289 284 282 288 291 293 297 301 306 306 306 306 309 311 313 313 311 310 312 312 311 316 314 316 318 317 322 325 322 321 319 318 318 318 319 320 321 321 322 322 322 324 323 322 325 326
293 292 294 293 290 285 282 288 297 299 300 306 306 308 308 309 312 313 312 311 310 311 309 312 315 314 315 317 318 324 324 323 322 321 318 319 319 320 321 321 322 322 322 322 322 322 323 325 326
297 295 295 292 288 289 289 290 301 302 304 308 307 309 309 311 312 312 311 311 310 309 310 314 314 314 313 316 316 321 324 322 322 320 320 320 320 321 321 323 323 323 322 323 324 323 324 324 324

GFSSGP_sfc_thetae_003.txt.gz
Theta_e
337 333 323 314 306 303 299 303 307 308 303 307 306 305 304 304 304 299 318 331 328 328 338 351 355 354 352 351 350 349 348 347 344 343 342 340 339 338 338 338 339 338 337 336 336 336 336 336 338
331 326 317 315 302 297 300 308 307 307 307 307 306 305 305 306 317 318 324 332 332 334 341 347 355 354 353 352 352 350 349 347 345 343 341 341 341 342 340 340 340 341 340 340 339 338 337 337 337
324 317 309 309 302 298 300 308 309 311 311 307 305 309 309 310 319 319 324 333 332 336 342 345 355 354 354 353 352 351 351 349 346 344 344 343 344 343 343 341 341 342 342 342 342 340 339 339 338
318 319 315 304 301 305 307 311 313 309 305 305 307 307 311 317 319 320 334 332 332 334 340 347 355 355 354 354 354 352 351 349 347 345 346 345 344 343 342 343 342 341 341 341 342 342 341 340 340
321 314 305 301 302 306 309 311 305 304 304 304 308 307 308 316 322 329 335 332 330 331 337 344 355 355 355 355 352 351 350 350 349 347 346 345 344 343 342 341 340 340 339 339 340 341 342 341 341
312 308 297 295 299 305 307 309 306 306 306 306 307 307 308 316 321 331 336 332 332 334 337 345 355 355 354 354 353 352 352 351 349 345 343 342 342 341 341 341 340 339 338 339 339 342 342 342 342
308 303 298 298 302 304 306 308 305 304 305 306 309 306 308 313 319 324 326 329 334 337 341 346 349 352 355 354 352 352 350 346 344 341 338 335 334 334 334 335 336 337 337 337 338 341 342 341 341
311 305 299 300 299 300 307 306 304 305 307 310 315 307 307 313 317 315 322 329 332 337 341 343 342 344 344 345 351 350 346 343 340 335 334 334 334 333 333 333 334 335 335 335 336 337 340 341 339
312 301 298 300 301 303 308 303 309 311 307 309 310 312 315 317 315 313 314 317 320 330 331 334 335 334 334 337 341 345 343 338 336 335 335 334 326 325 327 329 332 334 335 336 335 336 339 339 337
307 300 301 307 307 305 307 307 310 306 307 306 309 314 318 316 314 312 312 314 313 320 323 328 328 329 330 335 332 330 329 327 328 328 325 323 322 321 325 329 333 334 335 335 336 336 337 336 328
306 303 308 308 311 310 308 309 312 306 306 308 307 309 313 312 312 313 313 314 315 318 317 321 322 324 326 328 327 326 324 323 323 324 322 321 322 321 322 321 322 323 329 327 329 330 329 328 325
303 309 311 310 312 310 308 312 309 309 309 314 313 313 313 311 311 312 312 312 308 311 314 318 319 320 321 322 323 323 321 321 320 321 322 320 319 319 319 319 321 322 322 323 323 324 325 325 325
305 308 310 312 311 311 312 309 309 310 314 314 310 313 313 313 312 312 313 311 308 310 313 316 318 318 320 321 321 320 321 322 321 320 321 321 319 318 319 322 324 325 324 323 321 322 323 324 325
308 309 310 312 312 312 309 310 311 312 315 312 309 310 312 313 312 310 308 308 309 312 314 316 318 320 322 321 320 321 321 321 321 321 321 323 321 319 320 323 323 319 319 319 320 321 321 321 321
303 300 303 306 309 308 310 305 306 311 311 309 309 308 311 312 313 311 312 310 311 314 316 318 319 321 322 320 321 320 321 322 321 322 323 323 321 320 321 320 318 318 318 318 319 319 320 319 320
297 297 293 302 306 309 304 299 307 310 308 307 308 307 308 310 311 313 310 310 311 315 317 317 323 321 321 319 319 320 321 321 322 322 322 324 323 322 320 318 317 319 318 317 316 317 317 317 318
293 291 292 297 303 303 301 299 307 310 307 306 307 306 306 308 308 309 311 310 310 315 316 317 319 319 319 318 319 321 321 321 322 322 322 323 325 325 320 318 318 318 316 316 316 315 317 316 316
289 289 294 295 299 301 300 300 306 309 307 306 307 308 307 306 307 309 310 310 311 314 316 317 317 318 318 319 318 319 320 321 322 322 322 323 324 324 319 317 318 318 315 314 314 314 317 316 316
295 293 293 297 301 300 299 300 304 307 305 305 306 306 306 307 307 310 311 311 313 314 316 317 317 318 318 317 316 317 317 319 320 322 324 324 325 322 319 317 318 317 315 314 315 315 314 315 316
295 293 293 298 301 299 299 299 303 305 305 306 307 305 305 305 308 310 310 311 314 315 316 317 317 318 318 316 319 318 318 319 320 321 326 327 324 322 320 319 318 317 315 314 315 315 315 314 316
294 293 294 295 299 300 298 297 300 304 305 306 306 305 305 307 308 310 310 311 313 315 316 317 317 317 318 318 319 318 318 318 319 319 320 321 322 323 322 320 318 317 315 314 314 315 316 314 316
292 299 298 297 294 291 298 287 295 299 301 302 304 304 305 306 309 311 311 309 313 314 316 318 318 317 317 321 318 316 315 314 316 317 318 319 322 323 322 321 318 317 316 314 314 317 316 316 314
295 301 299 298 294 292 295 289 293 297 298 300 302 302 303 305 309 310 310 311 313 314 315 317 318 316 319 319 318 318 315 316 317 317 316 317 320 324 322 320 318 317 316 315 316 316 316 316 316
300 297 296 295 292 286 293 290 292 295 298 300 302 304 305 305 308 310 311 311 311 313 315 316 315 317 318 319 319 318 316 316 314 315 315 315 316 322 319 320 318 317 316 318 318 317 317 317 318
296 291 284 280 284 285 294 290 294 299 302 303 303 302 304 306 309 310 310 310 311 312 314 314 313 316 318 319 319 317 317 317 315 314 314 313 314 317 315 317 317 316 318 319 318 318 318 317 319
294 294 286 280 281 285 294 289 295 302 304 304 304 303 305 306 309 310 311 311 311 312 314 315 313 315 315 318 318 316 318 315 314 315 315 314 314 314 315 318 319 320 321 321 320 320 320 319 319
293 290 296 288 289 286 289 294 299 301 301 303 303 305 304 306 309 310 311 310 311 312 313 314 313 312 313 317 317 317 318 315 316 315 315 314 315 317 317 318 319 321 321 321 322 322 322 322 321
293 296 287 286 280 280 287 289 292 296 299 303 303 303 304 307 309 311 311 309 310 312 313 313 314 313 313 317 317 319 321 318 316 316 316 315 315 316 317 318 319 320 320 322 322 321 326 326 324
289 291 289 291 289 283 281 288 296 298 299 303 303 304 305 308 310 311 310 310 309 310 310 311 314 312 314 316 316 322 320 320 318 317 316 316 315 317 317 319 320 320 320 321 320 322 325 325 326
296 292 292 287 286 287 288 291 299 298 299 304 304 306 306 308 310 310 310 308 307 308 307 310 313 312 314 315 316 320 321 320 318 317 316 316 316 317 319 320 321 321 320 320 322 321 322 325 325

GFSSGP_sfc_thetae_006.txt.gz
Theta_e
337 329 321 314 305 302 298 302 305 306 306 305 305 304 303 304 309 301 318 329 324 325 335 350 355 353 351 351 350 350 347 345 343 341 339 338 337 337 337 337 338 338 337 338 337 336 336 335 335
332 326 318 314 301 296 299 306 306 308 310 304 304 304 304 304 315 318 323 329 325 330 337 348 355 354 353 352 351 350 349 346 344 343 340 338 339 338 339 339 339 340 340 340 340 339 338 337 336
324 317 313 309 301 298 299 306 307 310 312 308 303 307 307 308 317 319 325 331 330 331 340 346 355 354 353 353 351 350 350 348 346 342 341 341 341 343 344 341 340 341 341 343 342 340 340 339 338
317 317 313 304 301 305 305 309 311 307 308 305 305 305 310 315 317 321 328 331 331 333 340 346 355 354 353 353 352 352 350 349 347 344 343 344 344 343 343 342 342 341 342 341 340 342 342 342 340
319 314 304 299 303 307 309 311 308 305 302 303 305 305 307 314 321 326 330 331 330 333 338 343 354 354 354 354 353 352 351 350 349 346 345 345 344 343 342 342 342 341 341 340 340 340 343 343 342
311 308 298 296 301 305 306 309 306 305 304 304 305 306 307 314 321 328 329 328 330 331 334 340 353 354 353 353 353 352 351 350 350 349 347 345 344 343 342 341 341 341 340 339 338 341 342 343 341
308 302 297 298 300 303 306 308 304 303 303 305 306 304 307 312 318 331 329 326 328 331 335 340 347 352 354 353 352 352 350 350 351 348 345 343 341 337 336 336 337 338 338 337 338 338 341 342 340
311 304 298 299 298 299 306 305 305 304 307 310 312 304 304 311 318 323 326 326 329 331 334 339 345 347 347 348 353 352 351 349 347 344 342 335 334 334 334 334 333 334 335 334 336 337 338 340 340
310 300 296 298 299 301 304 302 307 310 306 306 310 309 313 316 315 318 321 323 326 332 334 337 340 340 340 341 347 351 347 344 343 338 335 336 329 327 329 330 331 332 334 335 335 335 337 338 337
306 299 300 306 305 303 304 305 308 307 309 306 307 310 313 314 313 315 316 320 321 327 329 334 334 334 334 338 336 336 334 332 329 330 328 327 326 325 327 329 331 333 334 335 336 337 336 336 332
305 302 307 308 309 307 307 308 310 308 307 310 308 311 310 311 311 313 316 320 322 325 329 329 330 329 330 331 329 328 326 325 326 327 326 324 323 322 324 324 324 324 328 329 330 330 331 332 330
301 307 309 309 310 308 307 309 310 310 310 315 313 313 311 310 310 311 313 317 315 315 322 325 326 326 326 326 326 326 323 322 322 323 324 322 321 321 321 321 322 323 325 325 326 327 328 329 329
303 307 309 309 308 309 310 308 309 310 314 316 314 310 309 310 311 313 314 315 311 310 314 320 321 322 322 322 322 322 322 322 322 321 322 321 320 320 321 321 322 324 326 325 326 325 326 327 327
305 307 308 308 309 310 308 308 310 312 316 314 312 310 309 311 311 311 309 311 309 309 313 317 319 320 320 320 320 321 321 322 322 321 322 323 322 321 321 321 323 323 323 323 323 324 325 325 326
301 297 300 302 304 304 307 303 305 312 312 308 309 309 308 311 312 310 312 313 312 310 314 318 318 319 320 320 320 321 321 322 321 322 323 324 323 322 322 322 322 321 322 322 322 322 323 323 324
295 295 290 298 302 303 304 296 305 310 308 307 308 308 307 308 311 313 313 312 309 312 315 317 321 320 320 319 319 320 321 321 321 322 323 325 325 323 321 322 321 321 321 321 320 320 321 322 322
291 289 290 293 300 300 301 297 305 306 305 305 306 307 307 307 308 311 311 308 312 314 315 317 320 319 320 319 318 319 321 322 322 323 322 323 325 325 322 321 321 321 320 319 319 319 320 319 320
287 288 291 292 297 299 297 297 303 306 305 305 305 306 306 306 307 309 309 309 313 314 316 318 319 319 319 318 318 319 320 321 322 323 324 324 325 326 323 321 320 320 319 318 317 318 319 320 320
293 291 290 293 299 297 296 297 300 304 302 302 304 305 306 306 307 308 309 310 313 315 316 316 317 317 317 317 316 317 318 320 321 324 326 326 326 325 322 320 319 320 318 318 318 318 318 319 320
293 290 290 295 300 298 296 296 300 302 303 303 304 305 306 304 306 308 307 310 313 315 316 316 317 316 318 317 318 319 319 320 321 323 325 327 326 325 322 320 320 319 318 317 317 318 317 318 320
292 291 292 291 298 298 296 294 297 302 303 303 304 305 304 304 306 307 307 309 313 314 316 317 317 318 318 318 319 319 318 319 319 320 322 323 324 325 324 322 321 320 318 316 317 318 319 317 318
291 297 296 295 294 287 295 285 294 297 300 301 302 302 303 304 307 307 307 309 312 314 316 317 317 317 318 319 317 317 317 316 317 319 320 321 323 324 323 323 321 320 318 317 317 319 320 320 318
294 300 296 297 293 288 291 287 292 295 296 300 301 303 302 302 307 306 307 311 314 315 316 317 317 317 318 319 318 318 317 317 318 319 319 321 321 325 323 322 320 319 319 319 318 319 319 321 320
299 295 294 292 289 284 290 289 288 293 297 299 301 302 304 304 307 307 309 312 311 314 315 316 316 316 318 318 319 319 317 317 316 317 317 317 319 322 322 321 321 320 320 319 319 320 320 320 321
294 288 281 279 279 282 292 288 292 297 299 301 302 302 303 305 306 307 309 309 310 312 314 315 315 316 317 319 320 318 318 318 317 317 317 316 317 320 319 320 320 321 321 321 321 321 321 321 322
293 291 282 278 280 285 291 287 293 300 303 303 303 302 304 305 307 308 309 310 311 312 314 314 314 315 317 319 319 318 319 317 316 317 317 316 316 318 319 321 322 323 324 323 323 323 322 322 324
292 287 293 287 289 284 287 293 298 300 301 301 301 303 303 305 306 307 309 310 311 312 314 314 313 315 316 318 318 318 319 317 317 318 317 316 317 319 320 321 322 323 324 324 324 324 325 324 324
292 295 286 287 279 279 286 288 290 295 297 301 301 301 302 305 307 308 308 309 310 312 313 314 314 313 314 317 318 319 319 318 318 318 317 317 318 320 320 321 322 323 324 324 324 325 327 327 325
288 288 287 289 285 282 280 286 295 298 299 300 301 301 303 306 308 309 308 310 310 312 312 313 314 313 314 317 317 321 320 319 318 319 318 318 318 319 320 322 322 323 323 323 325 325 326 326 326
294 291 289 286 283 287 286 287 298 299 298 299 301 303 304 307 308 309 309 308 309 310 311 311 313 314 314 317 318 321 321 320 318 318 318 318 318 320 321 323 323 323 323 324 325 325 326 326 325

GFSSGP_sfc_thetae_012.txt.gz
Theta_e
335 329 328 327 313 310 306 311 318 317 317 319 320 318 317 318 315 312 335 343 342 336 345 352 355 354 353 351 350 349 348 346 343 341 339 338 337 336 336 336 337 337 337 338 338 338 337 336 336
325 324 326 324 308 306 311 318 316 318 321 323 322 321 318 315 321 324 330 342 342 336 346 346 355 354 353 352 351 350 349 347 345 342 341 340 339 339 338 338 339 340 339 340 340 341 341 340 338
323 327 322 316 312 309 312 318 318 320 321 317 318 319 318 318 324 327 339 344 341 337 343 347 355 354 354 353 351 351 350 349 346 343 342 341 341 341 341 339 340 341 341 341 341 343 343 342 340
324 324 323 312 311 316 318 319 320 320 319 318 318 316 321 325 325 331 339 343 341 338 340 348 355 354 354 353 353 352 351 349 349 345 344 343 343 344 344 341 342 343 343 342 341 343 342 341 343
327 324 311 308 309 314 318 323 324 320 318 318 318 315 318 325 329 332 338 342 339 339 343 344 355 355 355 354 354 353 352 351 350 348 345 345 346 346 346 344 345 345 343 343 343 343 345 343 341
321 320 308 305 308 312 317 319 318 319 319 319 317 317 320 327 328 331 336 340 340 339 343 347 355 355 354 354 353 353 352 352 350 350 349 348 348 348 346 345 344 344 343 343 342 342 342 343 341
317 314 308 309 308 310 314 319 317 317 318 318 321 316 321 324 330 331 335 338 340 339 340 346 351 355 355 354 353 353 352 351 350 350 350 349 349 346 344 343 340 339 339 339 341 341 341 341 340
317 316 310 311 309 310 314 316 318 318 316 322 322 316 318 327 330 332 334 335 338 340 340 342 349 351 349 349 354 353 352 352 351 351 351 350 347 343 339 337 337 335 335 336 337 338 338 340 340
322 311 308 310 310 312 317 315 319 321 319 320 322 321 325 327 329 330 332 334 335 337 341 342 344 349 348 345 349 353 352 352 351 349 349 346 340 339 339 338 332 333 333 333 334 335 336 337 338
317 311 311 316 316 314 317 316 317 316 317 318 320 324 326 327 327 327 328 329 332 335 337 342 347 348 348 342 347 352 347 347 346 343 343 343 340 341 338 337 333 333 333 333 335 336 337 337 337
316 311 316 316 318 318 317 316 319 316 314 317 318 321 324 325 326 326 328 330 330 334 338 341 346 350 348 344 346 347 345 345 344 345 343 342 340 340 338 337 335 336 335 334 334 336 336 336 335
312 316 316 317 317 317 316 318 316 317 317 320 322 323 323 323 324 326 329 330 330 332 336 341 344 349 351 345 345 344 342 343 341 341 343 341 338 339 339 336 335 336 334 333 335 334 335 335 336
311 314 316 317 317 317 317 315 315 316 320 322 322 323 323 323 324 327 331 332 332 331 336 341 344 348 350 349 346 344 341 340 339 337 340 341 338 338 338 336 335 334 335 332 333 334 334 334 334
312 312 313 315 315 316 314 314 316 316 319 320 321 319 320 321 323 325 329 329 332 333 336 341 344 349 350 349 348 344 343 340 338 336 339 341 339 339 337 335 334 333 336 333 332 334 333 332 332
312 308 311 312 314 313 315 311 311 317 318 317 317 318 320 321 323 325 327 329 332 334 337 341 345 348 350 350 347 343 340 338 335 337 342 341 341 340 339 337 336 336 338 339 336 334 333 331 331
307 308 303 311 312 313 312 305 312 316 316 315 316 317 318 320 322 326 328 331 335 336 336 340 341 346 350 349 345 340 337 335 335 338 339 341 342 341 339 337 337 338 338 338 335 332 330 329 329
305 300 304 306 313 309 308 305 312 316 315 314 315 316 317 319 321 326 327 330 333 337 337 337 341 344 348 347 342 340 340 337 337 338 338 340 341 340 339 339 339 339 337 336 333 331 331 330 328
299 301 302 304 309 308 306 306 311 315 314 313 314 315 316 318 319 323 328 330 332 335 337 337 340 344 346 342 339 335 335 336 338 338 338 341 340 339 338 338 337 336 336 334 331 332 332 330 328
303 303 303 306 310 307 306 307 310 313 313 312 314 315 316 318 323 327 328 329 330 332 334 336 338 343 340 335 331 331 330 334 336 337 341 340 340 339 337 337 336 336 333 330 333 332 330 329 331
302 301 302 306 309 308 306 304 309 311 312 313 314 314 316 319 320 325 326 327 330 331 334 336 338 340 338 333 333 332 333 333 336 338 340 340 339 338 336 335 336 335 329 331 332 332 328 331 333
300 300 301 300 304 307 304 301 304 309 311 312 314 316 318 318 319 325 325 327 330 331 333 335 338 338 337 337 336 337 338 338 334 335 336 337 338 337 337 335 335 334 333 333 333 332 328 327 331
297 303 301 300 299 295 304 294 303 307 308 310 312 315 317 318 323 324 326 327 329 331 333 336 337 337 337 339 336 336 329 328 333 336 338 337 336 334 334 336 335 335 336 334 332 332 333 331 329
300 302 301 301 299 299 299 296 300 306 305 308 312 315 318 319 322 324 325 327 329 331 333 335 336 337 337 337 337 334 333 333 335 334 334 336 336 334 332 334 335 334 334 335 333 332 331 333 331
304 301 301 301 299 292 298 297 298 302 306 309 313 314 316 320 322 324 326 327 328 331 332 334 336 335 337 337 337 337 336 334 332 332 331 333 336 336 334 332 334 335 334 333 332 332 332 334 334
301 299 293 291 291 291 300 297 300 307 310 311 311 315 319 322 323 323 324 325 327 329 331 332 333 333 335 335 336 338 337 336 334 333 332 331 329 335 333 334 335 335 336 334 334 333 333 333 334
299 299 293 287 289 293 300 295 300 308 311 314 313 315 318 322 324 324 325 326 327 328 330 330 332 332 333 333 336 338 338 333 333 333 333 333 333 332 334 334 335 335 334 335 335 333 332 333 334
299 296 303 296 298 295 298 302 307 310 310 312 314 315 318 322 323 324 325 326 327 329 330 331 331 331 332 333 337 337 337 335 333 333 336 332 335 331 334 334 335 335 335 335 336 336 334 333 334
302 304 295 297 290 288 294 297 301 306 308 311 312 316 319 322 323 324 325 326 328 330 331 333 332 330 332 335 336 335 336 336 335 334 332 332 333 332 332 333 335 335 336 336 337 336 335 333 334
299 299 300 300 297 291 291 295 305 308 311 312 315 319 320 321 322 323 324 326 328 330 331 332 330 330 331 334 335 335 335 335 334 333 332 333 333 333 331 332 334 333 334 335 333 332 331 331 332
302 300 301 294 293 296 295 294 310 312 313 314 315 319 321 322 322 323 324 326 327 328 329 329 328 329 331 332 333 334 335 335 334 332 332 332 332 332 330 331 332 332 332 335 330 329 328 329 330

GFSSGP_sfc_thetae_015.txt.gz
Theta_e
334 327 329 326 314 311 310 312 319 317 318 322 322 320 318 320 315 312 335 340 339 340 348 350 354 354 353 352 350 349 348 345 343 341 339 338 336 334 334 334 335 336 336 337 338 338 338 337 337
323 323 326 322 309 307 309 317 315 320 323 324 323 322 320 317 324 324 331 341 340 341 350 346 354 354 354 352 351 350 349 346 344 342 341 340 339 338 337 337 337 339 338 338 339 340 342 341 340
330 325 321 315 311 308 310 317 320 322 323 320 319 322 320 319 325 327 340 342 340 340 351 348 355 354 354 353 352 351 350 348 345 343 342 341 341 340 340 339 339 340 341 341 341 341 343 344 342
321 323 322 314 311 315 316 321 321 320 323 322 320 317 323 328 325 330 337 341 340 339 347 353 354 354 354 354 353 352 351 350 348 345 344 343 343 344 343 340 340 341 343 343 343 342 343 343 341
324 322 312 310 309 314 319 321 324 322 321 320 320 317 319 328 331 333 336 339 339 339 342 352 354 355 354 354 353 352 351 350 350 348 346 344 346 346 344 343 343 344 345 345 344 344 344 342 342
317 320 311 307 310 314 317 319 319 319 321 320 319 319 321 329 330 331 335 337 339 339 341 345 356 355 354 354 353 353 352 352 351 350 349 348 348 348 347 346 345 345 344 343 343 343 343 343 341
315 316 310 311 310 311 314 320 318 318 318 319 322 316 323 327 332 332 333 336 338 339 340 342 354 355 354 354 353 353 352 352 351 350 350 350 348 349 347 345 344 343 341 339 339 340 341 342 341
318 316 311 312 310 310 317 318 321 318 318 324 323 316 319 327 331 331 332 333 335 337 338 341 348 355 353 350 354 353 353 352 352 351 350 350 348 348 346 343 339 337 336 336 336 337 338 340 340
320 310 308 310 311 312 318 317 321 323 320 321 323 323 326 328 330 329 329 330 332 334 338 341 342 348 351 346 348 354 353 352 352 350 349 349 343 341 344 342 337 335 334 334 334 335 336 337 338
313 310 311 316 317 316 318 318 319 319 319 319 320 325 327 328 328 327 326 325 328 331 336 339 349 345 349 344 347 351 347 347 347 345 344 347 344 342 339 341 336 335 335 334 334 335 336 337 335
315 310 316 318 319 319 318 318 321 318 316 319 318 322 325 326 327 326 325 326 328 331 335 339 352 355 351 346 344 349 347 346 346 346 347 348 342 342 341 340 339 339 337 337 336 336 336 335 335
312 316 317 318 319 318 317 318 318 319 319 323 322 324 325 324 325 325 325 327 328 332 334 340 344 354 358 346 341 344 346 345 343 345 348 344 339 343 342 338 339 341 336 336 335 333 335 336 335
312 314 317 319 319 319 319 317 317 318 322 323 323 324 324 324 324 325 326 327 330 333 335 337 347 355 357 359 345 347 346 343 345 341 343 342 339 343 340 342 337 338 336 337 337 337 336 335 335
314 314 314 315 316 317 316 316 317 319 322 321 321 322 323 323 323 325 326 327 330 335 336 338 346 356 356 354 358 353 353 346 342 340 339 342 342 342 339 339 336 337 336 336 336 336 338 335 335
315 311 313 314 315 314 316 312 313 318 320 319 320 321 322 322 323 323 325 328 330 334 338 347 352 356 358 358 356 351 346 343 340 339 342 342 344 343 342 338 338 343 343 341 338 337 338 333 332
310 311 305 312 314 314 314 306 314 319 318 318 319 319 320 322 323 325 326 330 337 338 342 346 341 353 358 357 354 349 344 341 337 337 339 343 344 343 341 338 338 344 344 341 338 336 335 331 330
308 303 305 308 314 313 312 308 315 318 317 317 318 319 319 320 323 328 327 329 337 341 347 343 350 346 356 357 352 350 353 340 336 337 338 340 342 341 340 338 340 342 342 340 337 335 335 330 329
301 302 304 304 310 312 310 310 314 316 315 316 317 318 319 319 321 326 328 331 334 339 345 347 348 354 356 352 351 343 339 338 337 337 338 340 341 339 341 338 340 341 339 337 337 334 335 332 336
305 304 304 307 312 309 308 309 312 315 315 315 316 318 319 319 323 326 328 331 334 337 341 344 346 354 351 345 341 337 333 336 335 337 340 341 341 342 340 338 339 338 336 336 337 333 332 332 334
303 302 303 307 311 309 309 308 312 314 315 315 315 316 318 319 321 323 327 334 334 336 339 340 343 350 350 345 343 338 338 334 336 337 340 341 339 340 338 338 338 338 337 335 333 334 330 331 332
303 301 302 303 308 309 308 306 308 312 314 315 315 317 318 319 320 323 324 333 334 335 338 339 342 347 348 347 342 340 338 338 335 333 335 339 338 340 338 337 337 336 339 335 335 334 331 327 333
298 306 305 304 303 298 307 297 305 309 310 312 314 316 317 319 321 323 325 332 334 335 338 340 343 343 341 346 343 346 334 330 331 336 336 337 336 336 336 336 336 335 341 334 334 333 331 332 327
301 306 305 305 302 301 301 298 302 308 306 310 313 315 317 319 320 322 327 331 333 336 337 340 341 340 341 342 345 335 336 331 334 333 336 338 338 335 335 335 335 336 334 336 334 333 333 335 332
306 304 305 305 302 295 300 299 300 304 307 310 314 316 318 319 321 325 331 332 333 335 337 338 338 338 339 338 339 340 337 334 332 333 335 338 338 337 336 333 334 336 335 334 334 335 334 335 335
304 301 294 292 293 293 302 299 301 308 310 312 313 315 317 322 325 327 328 329 331 333 335 336 336 336 337 337 337 337 337 337 336 333 335 334 332 336 336 335 336 335 336 336 336 335 334 335 335
301 301 295 289 292 294 302 296 302 311 313 314 315 316 322 325 326 327 328 329 330 332 333 334 334 334 335 335 336 337 338 334 333 335 333 335 334 335 336 335 336 336 336 336 337 332 333 335 336
300 298 304 299 301 297 300 304 308 312 312 313 315 316 321 324 326 327 329 330 330 332 332 333 334 334 334 334 336 336 337 335 336 336 336 333 335 333 334 334 335 335 335 335 336 337 335 333 334
302 305 297 300 292 291 297 300 300 307 309 312 314 315 319 324 326 327 328 329 331 332 332 335 334 333 333 334 335 335 335 336 336 335 334 335 335 333 333 334 335 335 335 335 336 336 335 334 336
299 299 301 302 300 294 293 296 308 309 312 312 314 317 322 324 325 326 328 329 331 332 333 334 333 331 331 334 334 336 335 335 335 334 333 335 334 335 331 331 333 333 334 335 336 334 332 332 333
302 301 302 297 297 299 299 299 312 312 313 316 317 321 324 325 325 326 327 329 329 330 332 332 331 330 331 332 333 334 334 335 335 334 332 334 333 333 330 331 330 331 333 335 332 330 330 331 330

GFSSGP_sfc_thetae_018.txt.gz
Theta_e
336 329 324 323 309 308 307 310 316 316 317 322 322 319 317 318 315 311 334 337 346 346 347 348 353 352 352 350 350 348 347 346 345 344 342 340 338 335 334 334 334 335 335 336 337 337 338 337 336
324 319 321 318 307 304 305 314 313 318 321 322 321 320 319 316 323 329 333 341 348 348 347 345 353 353 352 352 350 349 349 347 346 345 343 341 339 337 336 335 336 337 337 337 337 339 341 341 340
329 321 315 312 309 304 306 315 318 321 323 320 318 322 319 318 325 329 338 342 349 349 348 346 354 353 353 353 351 350 349 348 347 346 344 343 341 340 340 339 338 339 340 340 340 340 341 344 343
324 317 316 310 309 312 312 319 322 320 323 323 320 316 323 327 327 330 337 339 340 349 348 352 353 353 354 353 353 351 350 349 349 347 346 346 344 345 344 341 341 340 340 343 343 343 345 344 343
322 316 308 306 307 312 315 320 320 320 321 321 322 316 320 327 332 333 337 338 337 339 349 352 353 354 354 354 353 352 351 350 349 349 348 347 346 346 346 344 342 343 344 345 345 345 346 344 344
311 314 305 304 309 313 316 317 317 316 318 318 319 319 320 329 331 333 333 335 337 338 343 354 354 353 353 353 353 351 351 351 350 349 349 348 348 348 347 347 346 346 345 345 344 343 343 343 343
309 310 306 308 309 311 314 319 316 316 316 317 322 317 322 327 331 334 335 333 334 336 340 353 353 353 355 353 352 352 351 350 350 350 350 349 349 349 349 349 347 345 344 342 340 340 341 343 343
312 311 307 310 310 310 317 318 320 318 316 323 323 316 319 328 333 329 330 329 329 331 338 352 352 352 350 350 354 352 352 352 351 351 351 350 349 349 349 348 346 344 341 338 337 337 337 339 342
316 305 304 308 309 311 318 315 319 322 319 321 322 321 324 327 328 328 329 328 328 328 337 346 352 352 351 347 350 354 354 353 352 351 351 349 344 340 344 346 345 342 339 338 336 335 336 336 338
311 306 306 313 314 313 316 316 317 318 318 318 320 325 326 326 327 326 325 325 326 328 330 338 350 353 350 346 346 350 349 349 348 345 346 346 343 344 342 343 341 340 338 337 336 336 336 336 332
313 306 311 313 316 317 316 317 320 317 315 318 319 321 324 324 326 326 325 325 325 329 331 336 347 351 350 346 346 349 346 345 346 345 346 346 346 345 341 338 339 337 338 334 334 333 333 334 333
309 313 313 314 316 316 316 318 316 317 318 322 323 324 324 323 325 325 325 325 325 330 332 344 345 348 349 347 346 349 347 345 345 345 347 345 345 343 342 339 342 338 338 335 335 333 334 335 336
309 312 315 317 317 317 318 316 316 316 321 322 323 324 323 323 325 326 327 328 331 333 336 346 347 348 350 353 344 347 348 346 345 346 347 345 342 341 344 343 340 340 339 337 337 334 334 334 335
313 312 312 314 314 316 313 314 315 316 321 320 321 322 323 323 324 325 327 329 339 338 337 348 348 349 351 347 355 348 352 347 345 345 346 345 343 343 343 343 341 339 338 336 336 335 334 334 333
312 309 312 313 313 313 315 310 312 317 319 318 320 321 322 323 324 324 328 336 347 339 341 350 352 352 351 350 350 357 351 352 346 346 348 343 344 345 345 341 340 340 340 340 337 335 335 333 332
307 308 304 311 313 314 313 305 314 318 317 317 319 320 321 323 324 326 331 335 342 342 343 351 339 352 353 352 351 352 349 348 344 344 344 343 346 345 344 340 338 341 341 339 335 334 332 332 332
304 300 302 306 313 312 311 307 314 318 317 317 319 319 320 321 324 329 332 332 334 343 348 350 348 351 353 355 354 353 356 347 346 343 342 343 344 343 341 339 338 342 339 337 335 333 332 330 331
298 300 303 304 309 311 309 309 314 317 317 316 318 318 318 319 323 328 333 333 337 345 350 354 352 354 354 354 353 350 350 346 345 343 343 345 344 343 341 340 340 340 337 335 333 332 332 331 329
302 302 301 306 310 308 308 308 311 315 314 315 316 317 318 320 325 326 332 335 334 343 348 353 354 357 351 349 346 344 340 341 342 343 345 343 343 343 340 339 339 337 335 334 333 331 329 328 329
301 300 300 305 308 308 307 307 312 314 315 316 318 319 319 320 321 323 328 331 341 343 345 351 351 354 351 350 347 345 341 338 339 341 344 343 342 342 339 338 337 336 334 333 331 330 326 327 327
300 299 300 300 305 307 306 304 308 312 315 316 317 318 319 318 319 321 324 332 338 340 343 344 347 353 350 350 347 349 344 343 340 342 341 342 341 340 339 338 337 334 334 331 331 330 327 324 328
296 302 302 301 300 297 306 296 306 311 311 314 315 317 318 320 322 323 325 335 337 338 341 344 348 349 349 348 344 341 335 336 337 338 339 340 341 338 338 337 334 335 335 333 331 332 329 327 323
299 303 302 302 300 301 300 298 302 308 307 310 313 315 317 319 321 320 323 335 336 338 340 343 346 346 346 345 342 341 340 340 342 339 339 339 340 338 337 337 336 334 334 333 332 331 330 329 326
304 301 301 302 301 294 300 299 299 303 306 310 314 315 318 319 321 323 332 334 335 337 340 342 342 342 341 345 344 341 340 341 338 337 336 337 338 338 337 335 334 335 335 334 332 332 331 329 327
301 299 292 290 292 291 301 299 302 308 310 311 313 314 318 324 324 329 330 331 333 335 337 339 338 337 339 341 340 343 342 341 339 339 336 336 335 334 336 335 335 334 335 334 333 333 331 328 329
298 299 293 286 288 292 300 296 300 311 313 315 314 316 321 325 328 329 330 330 331 334 336 336 337 336 337 338 339 342 343 337 339 340 337 336 335 335 336 336 336 336 336 335 334 333 332 332 329
298 294 301 297 298 294 298 303 308 311 311 313 313 316 323 325 327 328 329 330 331 334 335 335 335 335 336 337 340 340 341 337 337 339 338 336 337 334 335 334 336 336 335 335 334 333 332 332 332
299 302 294 297 289 290 296 298 300 307 309 312 312 316 323 326 326 327 329 331 333 333 335 336 336 335 336 336 338 337 335 338 338 339 336 335 335 335 335 334 336 336 334 334 333 331 334 332 332
297 296 298 300 298 292 292 297 312 310 311 312 313 316 323 324 325 327 329 332 332 333 334 336 335 334 334 336 337 335 335 333 332 335 332 335 336 331 333 334 333 333 334 333 333 331 332 331 331
300 298 299 294 294 298 298 298 312 313 314 316 315 320 323 325 325 326 328 329 330 331 332 333 333 331 333 334 335 333 334 334 335 334 331 335 331 335 331 330 330 333 333 334 332 330 331 328 326

GFSSGP_sfc_thetae_021.txt.gz
Theta_e
333 331 323 317 302 301 299 303 310 313 313 315 317 315 311 312 312 308 327 340 341 344 348 350 354 352 352 351 349 348 347 346 345 343 340 338 337 336 335 335 334 334 335 335 336 336 337 336 336
325 320 315 313 300 296 298 307 310 315 319 320 317 314 313 317 327 327 329 341 343 343 345 346 353 352 352 351 350 349 348 347 346 344 340 339 338 337 336 335 335 336 337 336 336 337 338 341 340
330 322 305 304 303 298 299 308 316 320 323 320 317 319 316 317 327 328 334 343 342 342 343 344 353 353 352 351 350 349 348 348 347 344 343 340 340 340 340 338 338 338 339 340 340 340 340 341 344
319 315 307 301 302 308 308 312 319 319 322 323 320 315 319 327 325 329 344 344 342 342 340 349 353 353 352 352 351 350 349 349 348 346 344 343 342 343 343 340 340 339 339 341 343 343 343 343 343
317 309 298 299 302 309 311 313 320 317 319 320 321 316 317 325 330 331 338 345 342 341 339 348 353 354 353 353 352 351 350 349 349 348 346 345 347 346 345 342 341 341 342 344 345 345 345 344 344
306 305 297 297 303 310 313 315 314 314 313 314 315 317 316 326 326 328 331 337 343 341 340 346 353 354 353 353 352 351 350 350 350 349 349 348 348 348 346 344 343 344 345 346 344 344 343 344 343
303 298 297 300 303 307 312 316 311 310 311 313 315 313 316 322 324 325 326 327 333 343 342 345 346 350 354 352 352 351 350 350 349 349 349 349 349 348 348 348 347 347 347 345 343 342 341 341 342
308 301 297 300 302 305 314 315 315 313 314 319 320 312 312 320 325 324 323 322 320 340 345 344 345 344 346 347 353 352 351 350 349 349 349 349 349 349 349 348 348 347 345 343 341 339 338 338 340
315 296 294 299 303 307 314 312 317 319 316 318 319 318 320 322 321 318 317 319 317 330 344 344 344 344 343 344 349 351 352 351 350 350 350 347 341 341 342 345 347 346 345 343 341 339 337 336 337
314 297 298 305 307 308 311 312 314 315 314 316 318 322 324 324 320 317 316 315 315 317 341 344 344 344 343 343 344 346 346 345 346 345 344 342 338 333 336 342 349 347 347 344 341 339 337 336 329
314 306 307 307 309 311 311 312 316 314 311 314 315 318 321 321 319 318 317 316 316 317 323 343 344 344 343 342 343 345 344 344 345 341 339 339 338 335 337 332 339 335 342 332 335 332 330 329 328
306 310 312 311 311 310 309 314 312 314 312 316 317 318 318 317 316 317 316 317 317 316 319 341 345 345 343 341 341 343 341 342 341 341 337 339 337 335 333 331 332 331 330 329 328 328 329 329 331
306 307 310 313 312 311 313 311 311 312 317 318 318 318 317 317 317 318 319 319 319 317 319 336 345 345 343 339 341 341 340 340 340 339 339 338 337 332 331 329 331 331 331 329 329 330 330 331 330
308 309 308 310 310 312 311 311 311 313 315 315 315 315 315 317 317 317 318 318 317 320 320 331 340 344 343 340 340 341 341 340 339 339 340 339 336 331 333 333 330 329 328 328 328 327 327 327 327
304 301 306 309 309 308 311 306 308 313 314 314 314 315 315 316 317 317 317 317 320 321 322 332 338 340 341 340 337 341 342 341 339 338 340 339 335 332 334 331 330 330 330 329 329 328 328 327 327
300 300 295 302 307 310 308 301 309 313 313 312 314 315 316 315 317 318 318 319 321 320 322 329 341 341 340 338 340 341 342 340 339 336 339 338 335 335 334 330 329 330 330 329 328 326 325 326 325
298 292 294 298 306 306 305 302 310 313 313 312 313 314 315 316 315 317 320 318 318 321 324 332 339 342 342 341 339 342 340 336 334 333 333 337 337 338 333 331 329 330 330 329 328 327 325 323 324
292 294 296 296 302 305 303 303 308 311 311 311 313 313 314 314 313 316 320 321 321 322 327 331 336 342 344 344 341 341 338 334 334 332 332 334 336 337 333 331 329 330 329 327 326 325 324 324 323
297 297 296 299 304 303 302 303 306 310 309 308 309 311 312 313 315 316 320 320 319 330 332 336 340 343 345 343 340 336 333 332 333 332 334 335 335 335 332 330 329 329 327 326 326 324 323 322 323
296 293 294 300 304 302 302 301 306 309 308 309 310 310 311 311 314 316 316 317 323 326 333 337 343 344 343 342 338 336 331 332 332 331 331 332 332 331 330 328 327 327 326 325 324 322 320 320 321
294 293 293 294 300 301 299 297 300 305 308 310 310 310 311 312 311 312 313 314 327 329 334 337 342 341 341 340 339 334 330 329 327 328 330 331 332 333 331 329 328 326 325 323 322 322 320 317 318
290 298 297 297 295 290 299 289 297 301 304 307 310 310 312 311 313 314 313 322 327 330 333 335 341 340 341 338 334 329 326 324 326 326 329 331 331 331 331 329 328 326 325 323 323 324 321 318 316
294 299 297 297 294 293 294 291 295 301 300 302 306 308 309 310 312 313 314 327 329 330 332 337 339 337 336 333 331 327 324 326 327 328 328 329 327 328 330 328 326 325 324 324 323 323 322 321 317
299 297 296 295 292 285 292 292 293 296 300 304 306 308 310 310 311 315 327 329 329 333 334 337 335 333 333 331 330 328 326 326 324 326 326 326 325 327 327 328 325 325 325 324 324 324 323 321 321
294 290 284 283 284 284 293 292 295 300 304 306 306 307 310 315 322 324 325 327 329 331 333 333 331 328 331 332 328 330 325 326 325 324 324 324 324 324 325 325 323 324 326 326 325 323 323 324 322
288 290 284 278 282 285 294 289 294 304 307 308 309 307 318 320 322 323 325 327 329 331 331 330 328 328 329 328 329 329 327 325 326 325 325 325 324 325 324 325 326 327 328 328 326 324 324 324 322
289 286 294 288 290 286 290 295 300 303 304 307 307 308 316 319 321 323 323 326 329 329 328 328 328 327 328 327 329 328 327 327 326 326 325 324 325 325 326 325 326 328 328 328 326 324 322 324 322
292 294 286 288 281 281 288 291 292 300 302 306 306 313 316 319 321 322 323 326 328 328 328 328 327 327 327 329 328 327 328 328 327 326 324 325 324 325 325 325 327 328 327 328 325 323 326 327 325
290 288 289 290 288 284 283 289 301 302 305 304 307 315 317 318 320 321 324 326 327 327 328 327 326 327 326 328 326 327 328 328 325 325 327 324 323 327 325 326 327 328 326 326 324 323 325 326 326
294 291 290 286 286 290 288 290 306 307 307 305 310 317 317 320 321 323 325 325 325 326 326 325 325 326 325 328 327 328 328 325 325 324 325 324 321 322 324 326 330 328 328 325 324 325 327 326 323

GFSSGP_sfc_thetae_024.txt.gz
Theta_e
333 326 321 317 301 300 295 301 307 307 312 316 314 313 311 311 312 307 326 336 341 343 347 351 354 353 352 351 349 348 346 345 344 342 339 337 336 336 335 335 334 334 335 334 335 335 336 336 335
323 320 313 311 298 294 297 303 304 312 317 321 319 314 317 316 325 328 331 341 341 345 346 347 354 353 352 351 349 348 347 346 345 343 339 338 337 337 336 335 335 336 336 336 335 336 337 339 340
325 321 304 302 300 296 298 306 312 317 320 319 317 320 317 319 327 328 335 342 342 343 345 346 354 353 352 351 350 348 347 347 345 342 341 340 339 340 339 337 337 338 339 338 339 339 340 340 342
317 313 305 299 299 305 307 311 316 317 319 320 319 315 318 324 325 332 342 341 340 341 343 349 353 352 352 352 350 348 348 348 347 345 343 343 341 342 341 339 339 339 339 341 342 342 343 342 342
315 306 296 296 300 306 311 313 313 315 317 318 319 315 317 326 330 341 341 341 338 338 339 348 353 352 352 352 351 349 348 348 348 348 346 344 345 344 342 341 341 340 340 342 343 344 345 345 344
304 303 295 294 300 307 310 313 314 317 318 318 317 316 315 324 333 340 341 339 339 336 337 345 352 352 352 352 350 349 348 348 348 348 348 347 347 346 344 343 342 342 343 344 345 346 344 344 343
302 297 295 298 301 304 309 314 311 314 312 312 316 312 315 321 325 337 340 339 339 337 335 342 344 349 352 351 350 349 348 348 348 348 348 348 348 348 347 346 345 344 345 346 346 345 343 342 342
305 299 295 297 299 301 311 312 312 312 312 318 318 312 311 319 323 323 325 329 337 337 337 339 340 343 345 346 352 350 349 348 347 348 348 348 349 348 348 346 347 346 347 346 346 344 341 339 339
311 295 292 297 300 303 310 311 317 318 315 316 319 316 320 323 324 319 316 316 327 336 338 340 340 339 343 342 347 350 351 350 348 348 348 346 341 342 342 346 346 347 348 347 344 342 340 339 337
310 299 297 303 305 303 306 308 310 311 312 313 317 320 321 322 317 316 315 314 318 331 338 340 341 339 339 340 341 344 343 343 343 341 341 341 337 336 341 342 347 348 349 346 344 343 340 337 328
310 305 307 306 309 308 306 308 311 309 308 312 314 316 318 319 317 315 316 316 315 319 337 340 340 340 338 336 338 343 341 341 341 340 339 339 338 334 335 332 337 342 346 337 340 336 333 328 327
306 312 314 314 315 311 307 310 308 309 310 315 316 317 317 317 316 315 315 315 315 315 333 340 341 340 339 337 337 340 339 340 340 340 338 337 333 330 330 330 330 332 332 330 328 327 327 327 328
300 308 310 312 312 312 312 309 309 309 313 317 316 316 314 314 314 314 316 316 316 314 318 338 340 340 340 337 338 339 338 339 340 339 337 337 333 331 331 330 328 329 328 328 326 326 327 327 327
300 302 306 309 307 309 308 309 310 312 316 316 314 313 313 312 313 314 315 315 315 316 315 333 339 340 340 338 337 339 339 338 338 338 336 336 335 333 330 329 327 329 329 328 327 327 326 326 327
300 296 299 301 304 306 309 304 305 312 314 312 312 313 312 313 314 314 315 315 316 315 318 329 339 340 340 339 336 339 339 338 337 336 336 337 336 332 331 329 330 328 327 326 327 326 325 324 325
296 296 292 300 302 303 306 299 308 311 310 310 311 313 314 313 315 317 315 314 314 316 316 321 337 340 340 339 336 338 339 338 337 337 337 338 337 333 331 329 328 329 328 327 326 325 325 323 323
293 290 292 295 302 302 302 299 307 311 310 308 309 311 313 314 315 313 316 316 318 317 316 318 332 335 338 338 336 338 338 338 336 336 338 337 336 334 332 329 328 328 327 326 325 324 323 321 321
288 290 293 293 299 301 300 299 304 307 308 308 309 310 312 312 314 315 316 317 316 315 318 320 333 334 335 335 336 335 334 332 332 334 335 336 335 335 330 329 328 328 327 325 323 324 322 322 321
295 293 293 296 300 299 299 300 302 306 307 305 307 308 310 311 314 314 313 316 318 317 318 324 334 335 338 336 337 335 330 330 329 330 333 333 333 333 330 329 328 327 326 325 323 322 322 321 323
292 291 291 295 299 299 298 298 303 305 306 307 308 308 308 309 310 313 314 315 316 319 325 327 334 338 339 339 337 333 331 328 329 330 333 333 332 332 330 327 326 325 324 323 321 321 317 318 320
292 290 291 291 296 297 295 294 297 302 303 305 306 308 308 309 310 311 313 312 315 323 328 333 337 338 338 337 334 329 327 326 325 327 328 329 331 330 329 326 325 324 323 321 320 319 318 315 316
288 295 294 293 291 287 295 286 294 298 300 302 304 304 305 309 309 311 312 311 320 325 332 337 337 338 338 337 332 330 324 323 323 325 326 327 330 330 329 328 326 324 322 321 321 322 318 316 313
290 297 295 294 291 290 290 286 292 297 297 300 303 305 305 307 309 309 309 315 324 330 333 338 337 337 335 333 330 328 324 323 323 325 326 325 326 328 329 326 325 323 322 321 322 321 319 318 315
294 293 293 292 288 282 289 288 288 293 297 299 302 305 307 307 307 308 318 326 327 331 336 336 335 332 331 329 327 324 324 323 323 323 323 322 322 324 326 326 323 323 322 322 322 322 321 319 318
289 284 279 278 280 282 291 288 291 295 299 301 302 305 306 307 314 320 322 325 328 332 333 332 331 328 328 326 325 324 324 323 323 323 322 321 321 322 323 323 322 322 323 323 323 322 320 320 320
285 284 279 275 278 282 291 285 290 299 302 304 305 306 313 316 319 320 323 326 329 331 330 329 328 327 326 326 324 324 324 324 323 322 322 322 322 322 323 323 322 323 325 326 325 322 322 322 321
287 283 287 283 286 282 286 291 296 299 300 302 303 311 314 316 319 321 325 327 328 327 328 326 326 325 325 326 325 324 325 324 323 322 322 322 322 323 322 324 324 325 327 327 325 323 322 322 320
290 292 282 282 277 276 284 287 288 295 297 301 301 310 314 317 319 322 325 326 326 326 326 325 325 324 325 325 325 325 325 325 324 323 323 323 321 323 324 323 325 326 325 325 324 322 324 323 323
286 285 285 285 283 280 279 284 295 296 299 302 301 313 316 318 319 322 324 325 325 327 325 324 324 324 325 324 324 324 324 324 323 322 322 322 321 322 323 324 325 325 324 323 322 324 325 325 324
290 287 287 280 280 285 284 286 300 299 301 303 312 316 317 318 319 323 324 324 325 325 324 323 323 324 324 324 323 323 323 322 322 322 322 321 320 322 323 324 327 326 326 324 323 325 326 322 323

GFSSGP_sfc_thetae_027.txt.gz
Theta_e
336 330 318 315 300 299 294 298 304 307 309 314 314 310 310 313 311 304 323 335 339 341 348 352 355 354 353 351 350 348 347 345 344 342 339 338 336 336 335 334 334 334 334 335 335 335 336 335 334
322 320 313 309 296 291 294 302 303 308 315 317 314 315 315 313 322 327 326 338 340 343 347 347 354 353 353 351 350 349 347 346 345 343 339 338 338 336 336 335 335 335 336 336 336 336 336 337 338
322 319 305 302 298 294 295 303 306 316 319 316 314 318 318 318 328 329 333 339 342 342 345 345 354 353 353 352 350 348 347 347 345 343 342 339 339 339 337 337 336 336 337 337 337 338 338 338 340
316 312 305 297 297 301 302 306 311 312 315 318 315 311 317 325 327 329 340 340 340 341 344 347 353 353 353 352 350 348 347 347 346 345 343 342 341 341 340 337 338 338 339 339 340 341 341 341 341
313 304 295 295 298 303 308 310 309 309 314 315 315 312 314 324 330 338 339 339 336 339 342 344 354 353 353 352 351 349 348 347 347 346 345 343 344 342 340 339 340 340 340 341 342 343 343 344 344
304 302 293 293 297 304 308 309 309 312 316 316 314 313 315 324 335 336 338 336 336 338 340 342 353 353 352 352 351 349 348 347 347 347 346 346 345 344 341 341 341 340 340 341 343 344 345 345 344
301 297 294 296 299 302 307 309 308 309 310 310 313 311 315 322 328 336 336 335 336 336 337 341 345 349 353 351 350 349 348 347 347 347 346 346 346 346 345 345 343 342 343 344 345 345 345 344 343
304 299 293 296 297 299 309 310 311 310 311 317 318 311 309 319 324 327 331 333 333 332 333 337 341 344 344 345 351 349 349 348 347 347 347 347 348 347 347 345 346 343 344 345 346 346 345 343 341
305 294 292 295 298 301 309 309 314 317 313 313 316 316 319 322 321 319 318 325 332 334 330 334 337 339 341 342 345 350 349 349 348 347 347 345 340 341 341 344 344 344 346 347 346 346 345 341 339
304 294 295 300 303 302 305 305 311 313 312 311 312 318 320 320 316 316 314 315 323 331 332 336 336 335 339 339 338 342 342 341 342 341 340 340 335 335 339 342 344 344 346 347 346 346 342 340 329
308 303 303 303 304 306 307 306 308 307 305 308 309 314 316 316 315 314 314 313 315 325 334 336 337 335 335 336 336 340 340 339 340 338 336 335 336 335 336 333 335 338 345 340 341 339 335 331 327
304 310 311 310 310 312 310 312 309 307 308 312 312 314 315 315 314 314 314 316 314 315 329 336 338 337 334 334 334 335 337 337 338 338 336 336 333 329 329 329 328 332 335 335 331 330 329 327 327
299 306 309 311 312 313 316 313 312 311 312 314 314 314 314 313 313 313 314 314 314 312 319 332 337 337 336 332 332 333 336 335 336 337 337 336 333 330 328 327 327 329 329 330 327 326 325 325 326
298 301 302 305 307 308 307 307 309 310 314 313 314 313 313 312 312 311 311 312 312 314 313 327 336 337 337 335 332 332 334 334 335 337 336 335 332 330 328 328 328 327 327 327 326 325 324 324 325
298 294 298 299 298 301 307 302 304 310 312 311 312 311 311 311 312 311 313 313 314 315 314 324 335 337 337 336 335 334 334 334 335 336 336 335 332 330 330 329 326 327 327 326 325 325 324 323 323
294 293 289 297 300 301 302 296 305 310 309 309 310 311 311 311 311 312 313 313 314 313 313 315 330 336 336 336 336 336 336 335 334 335 334 334 334 332 330 331 329 328 325 324 323 323 322 324 323
291 288 289 293 300 301 300 298 305 308 308 308 309 309 310 311 311 312 314 315 315 315 314 313 330 335 336 336 335 334 335 335 335 334 334 334 334 333 331 329 328 327 325 324 323 322 321 319 320
287 288 291 290 296 299 297 297 302 305 305 305 305 307 308 309 310 313 315 315 314 313 315 313 328 333 335 333 330 331 334 333 334 334 335 335 335 334 331 329 327 326 325 324 322 322 321 321 320
290 290 289 294 298 297 296 297 299 302 303 304 305 306 307 309 311 312 313 314 313 314 313 315 322 327 333 332 331 331 332 331 331 334 335 334 334 333 330 328 326 325 324 324 322 320 320 318 321
289 288 288 293 297 295 295 295 299 301 302 304 304 305 306 307 309 310 311 312 312 314 314 314 321 329 332 334 334 330 331 327 329 331 333 334 334 332 329 327 325 325 323 322 321 324 316 316 320
288 287 288 289 294 295 293 291 294 298 301 304 305 306 306 306 307 308 310 311 311 312 316 319 324 330 332 330 329 327 327 326 325 326 327 330 332 330 329 327 325 324 323 321 319 318 316 314 314
284 292 292 292 289 284 292 283 291 295 297 299 301 302 302 305 307 307 309 309 309 312 322 328 331 332 333 332 328 328 326 325 322 326 326 326 329 329 328 326 324 323 321 319 319 320 317 315 312
287 292 292 291 288 285 287 283 290 293 293 297 300 301 303 305 305 306 307 307 308 318 328 332 334 333 332 329 330 326 323 322 324 326 324 324 325 327 327 326 324 322 320 320 319 319 317 316 315
293 291 289 289 286 279 286 285 287 290 293 295 299 301 303 303 304 305 309 312 320 330 333 333 333 330 330 328 326 326 323 323 323 322 322 321 321 323 325 325 323 322 320 320 320 320 319 318 317
288 281 277 276 278 279 288 286 288 293 296 297 298 300 302 302 303 309 314 320 326 332 331 331 331 326 326 325 324 325 323 323 322 323 322 320 319 320 321 322 321 320 320 321 320 320 320 319 317
284 282 277 275 277 280 289 283 288 296 299 301 301 301 301 305 314 317 320 323 328 329 327 330 328 323 324 323 322 322 322 322 321 322 322 320 320 321 322 322 321 321 322 322 321 321 320 320 319
286 280 285 279 283 279 283 288 294 297 298 298 298 299 301 309 316 319 323 325 327 325 324 327 324 323 323 322 322 322 322 322 321 321 321 321 320 322 322 321 321 322 323 324 323 322 321 322 321
288 290 280 278 275 275 281 284 286 291 295 297 297 298 303 313 317 321 324 324 325 324 323 324 324 323 322 322 323 323 322 322 321 321 321 320 320 320 321 321 322 322 324 323 323 321 322 322 322
286 284 284 283 281 277 277 281 292 294 295 296 298 300 309 315 318 322 323 323 324 323 323 322 323 323 322 323 323 322 322 322 321 321 321 320 319 321 321 322 323 324 323 322 320 322 324 324 323
289 286 286 278 279 281 281 282 296 293 295 298 305 305 314 316 320 321 322 323 323 322 322 322 323 323 322 323 322 321 321 320 319 320 320 320 319 321 321 322 324 325 324 322 321 322 325 323 322

GFSSGP_sfc_thetae_030.txt.gz
Theta_e
337 330 316 313 298 296 292 296 300 302 307 310 311 313 313 313 311 305 323 335 337 337 349 353 356 355 354 352 351 350 349 348 346 344 343 341 341 337 336 337 334 333 333 334 335 335 335 335 334
322 319 312 307 294 291 292 300 301 304 312 317 312 313 313 311 318 322 322 336 337 340 347 349 356 355 354 352 351 350 349 347 346 345 343 341 341 339 337 335 335 335 335 336 335 335 335 336 337
318 316 304 302 295 291 293 302 304 309 314 315 312 315 316 315 324 325 330 338 340 342 345 346 356 355 354 353 351 349 348 347 346 345 344 343 342 341 340 337 336 337 337 337 337 337 337 337 338
316 310 304 296 296 301 299 304 308 309 310 315 315 309 316 324 326 329 337 340 339 340 344 347 355 354 354 353 352 350 349 348 347 346 345 344 342 341 340 338 337 338 338 338 339 340 339 339 340
311 303 294 292 296 302 304 307 306 305 308 312 314 310 313 321 332 337 337 340 337 339 341 344 355 354 354 353 352 350 349 348 347 347 345 344 344 343 340 339 339 339 340 341 341 342 342 342 343
304 302 291 291 295 302 304 306 307 307 312 315 313 313 314 320 331 334 337 335 336 338 340 342 353 353 353 353 351 350 349 348 348 347 346 345 345 343 341 340 340 340 341 341 342 342 343 346 344
299 295 293 295 298 301 304 307 306 306 307 309 312 310 312 319 328 335 335 334 334 337 338 339 346 350 353 352 351 350 348 348 347 346 346 346 346 345 344 343 343 342 342 343 343 344 345 345 343
302 297 291 295 297 298 306 307 308 309 310 315 316 309 308 318 325 334 333 332 330 332 335 335 341 345 345 346 352 350 349 348 347 347 347 346 346 346 345 344 345 343 344 344 345 345 346 345 343
304 293 291 295 298 300 305 303 310 314 312 312 315 314 317 320 320 323 324 327 331 332 330 332 337 340 342 343 345 350 349 349 348 348 348 345 341 342 341 344 344 345 345 346 346 346 347 343 340
301 292 294 300 302 302 304 303 305 307 306 308 312 315 318 318 316 316 319 322 326 330 331 330 334 337 339 341 340 343 342 342 342 342 342 341 339 339 341 342 344 344 345 346 347 346 345 342 335
306 299 299 300 303 304 304 304 308 306 304 307 307 310 313 314 313 313 314 318 319 326 332 331 331 335 336 337 337 339 340 339 340 339 339 339 338 339 340 337 339 339 344 341 345 344 341 336 333
302 308 308 306 307 307 304 309 308 309 307 311 310 311 311 312 311 312 312 314 313 314 325 333 333 333 333 335 334 335 338 337 338 338 337 336 336 334 335 334 333 334 337 339 339 337 336 334 332
304 305 310 313 312 311 314 312 311 312 316 315 315 315 312 311 312 312 313 312 313 312 314 323 333 334 333 333 333 332 334 335 335 337 336 336 335 332 332 332 330 330 333 335 335 333 331 330 329
297 301 303 306 306 308 307 307 307 309 313 313 313 312 312 311 312 311 310 310 311 312 313 315 332 335 335 332 332 332 332 333 333 335 336 336 334 331 331 330 329 328 331 332 332 330 329 328 328
297 293 295 297 299 301 306 302 303 310 312 310 311 311 312 312 312 311 313 311 312 313 313 314 323 334 335 334 332 331 331 332 332 333 335 336 333 331 330 329 328 329 330 330 329 329 328 327 327
293 292 290 297 297 299 303 296 305 309 309 309 310 310 310 310 310 311 311 312 313 313 313 313 325 333 335 335 335 332 331 332 332 333 335 336 333 331 330 328 329 330 329 329 328 328 327 326 326
290 288 287 291 298 299 299 297 303 307 306 305 306 306 308 309 310 311 312 313 313 313 313 312 316 328 333 335 335 334 333 333 333 334 335 335 334 333 330 329 330 330 329 327 327 326 327 325 325
285 285 289 289 294 298 295 296 301 304 305 305 304 306 306 306 307 310 311 312 312 313 313 313 313 322 331 333 331 330 331 333 333 333 333 334 334 333 331 331 330 329 328 327 326 326 325 325 325
289 287 287 291 295 294 294 295 298 300 300 301 303 304 305 307 310 309 311 312 312 312 313 313 314 325 332 330 328 328 330 331 331 333 334 334 334 333 332 331 330 328 328 327 326 325 325 323 325
288 285 285 290 294 293 292 291 295 297 299 301 302 303 303 304 305 308 309 310 310 312 312 312 314 324 331 333 330 330 330 331 331 333 334 335 334 334 332 330 328 328 326 326 325 326 321 322 323
286 285 286 287 292 294 291 290 293 296 298 300 301 302 304 304 304 307 309 308 309 309 312 314 314 324 328 330 328 327 327 327 326 329 330 333 334 334 332 330 329 327 327 326 325 324 322 319 320
282 290 290 290 287 283 290 281 290 294 295 297 299 300 302 303 305 306 306 307 309 309 311 315 320 327 330 330 327 328 325 324 325 328 329 330 332 331 329 329 328 327 327 325 324 323 321 320 317
285 291 289 288 286 283 286 282 288 291 291 293 297 299 300 301 302 303 305 306 307 307 312 323 327 330 330 329 330 328 324 323 327 327 327 327 328 329 329 328 328 327 325 324 323 323 321 320 319
291 288 287 286 284 278 284 283 285 288 291 292 296 298 300 300 301 302 304 309 314 325 329 331 329 327 328 329 326 326 324 325 325 324 325 325 324 326 328 329 327 326 324 323 323 323 323 321 321
286 281 275 275 275 277 286 283 287 291 294 295 296 297 299 300 301 301 303 317 324 329 330 331 329 325 325 326 325 325 325 325 325 325 323 323 322 322 324 326 324 323 324 324 324 323 323 322 321
282 281 276 274 275 277 287 281 286 294 297 298 298 298 298 298 299 305 316 322 328 328 330 328 326 324 324 325 324 324 325 325 325 324 324 323 323 324 324 325 325 324 324 324 324 324 324 324 323
284 279 284 278 280 276 281 285 291 295 295 296 296 298 297 298 299 314 322 326 328 328 326 325 324 322 323 323 323 323 323 323 323 322 323 322 323 324 324 325 324 323 325 325 325 324 324 324 324
286 288 278 277 274 274 279 281 284 289 292 295 296 296 298 302 314 320 322 325 323 323 323 323 323 322 322 323 323 323 323 323 323 323 322 323 323 324 323 323 324 325 326 326 326 325 325 324 324
285 282 283 280 278 276 276 279 289 291 293 293 295 300 306 307 318 321 322 324 321 322 322 322 322 322 322 323 323 323 322 323 323 323 322 323 322 322 323 324 325 326 326 325 324 325 325 324 323
286 284 284 278 278 279 278 279 291 292 293 295 298 310 311 314 319 321 322 323 321 321 322 321 322 322 322 323 323 322 322 322 321 322 322 321 321 323 324 325 326 327 326 325 324 323 325 324 322

GFSSGP_sfc_thetae_033.txt.gz
Theta_e
337 333 322 319 306 306 299 301 306 308 312 317 318 320 320 322 317 315 335 340 343 343 351 355 356 356 356 354 353 352 352 352 351 351 349 347 346 344 341 341 339 337 336 335 335 335 336 336 335
333 321 320 315 301 297 299 305 306 310 317 320 320 318 320 320 325 327 331 341 343 347 353 350 357 355 355 354 352 351 350 349 349 348 347 345 344 343 339 338 336 336 336 337 338 338 338 337 338
321 318 312 309 301 296 299 305 309 312 316 316 318 321 321 320 328 331 337 343 343 348 351 352 357 356 355 354 353 351 350 349 348 347 346 345 344 343 342 340 338 337 337 338 337 337 338 339 340
319 317 312 302 300 304 303 310 313 312 316 318 319 316 322 329 330 335 342 343 343 346 348 351 356 355 355 354 353 351 350 349 348 347 346 346 345 344 342 342 340 339 339 339 339 339 340 340 340
317 311 302 299 299 304 310 311 313 311 313 316 318 316 319 328 338 341 342 344 343 345 347 348 356 355 355 354 354 351 350 348 348 347 347 346 345 344 343 342 339 340 340 340 341 342 342 342 342
307 309 298 295 298 304 308 312 311 312 315 318 318 317 321 328 337 341 343 344 345 345 348 347 355 355 354 354 353 351 350 349 348 347 347 347 346 345 344 344 342 341 342 343 343 344 343 343 344
306 303 297 298 299 302 305 311 310 311 314 316 320 316 321 326 336 342 343 344 344 345 346 346 349 353 354 354 353 351 349 349 348 347 347 347 347 345 345 344 344 344 345 345 345 344 344 345 345
309 306 299 299 297 299 309 313 315 314 314 320 322 316 318 327 339 341 342 341 341 343 344 343 346 349 348 348 353 351 350 349 348 348 347 347 347 346 345 344 345 345 345 345 346 345 345 346 344
310 301 297 298 298 301 309 309 315 317 316 317 319 320 322 328 338 338 338 339 340 339 342 343 343 348 348 345 347 352 351 350 349 348 348 345 340 342 342 342 345 346 346 347 346 346 347 346 343
307 302 300 304 304 304 306 308 311 311 312 313 316 320 321 323 325 324 328 331 336 339 340 341 344 345 347 343 347 348 347 345 346 345 345 344 343 343 339 342 345 346 347 346 346 347 346 344 341
310 302 306 305 305 306 306 307 310 310 309 313 313 314 318 320 322 321 322 323 325 333 341 341 343 346 346 345 345 346 347 347 347 346 347 348 344 343 341 340 342 342 345 343 346 346 345 343 341
303 309 309 308 306 305 304 307 306 308 310 315 317 320 319 319 321 322 322 323 325 328 333 341 344 343 346 345 344 344 344 345 344 344 347 346 342 342 341 338 339 342 339 343 345 345 346 345 343
304 306 310 311 311 308 309 309 309 312 316 320 321 321 320 320 320 322 324 325 326 327 331 333 341 344 345 346 344 344 344 343 343 342 345 345 341 342 341 339 338 339 339 340 343 344 344 344 342
304 306 307 309 312 313 311 311 313 314 318 317 317 318 319 319 320 321 323 324 327 329 329 332 333 346 345 344 346 345 344 344 342 341 344 346 343 343 339 339 337 337 337 337 341 343 342 342 340
301 298 302 305 307 308 311 306 307 314 315 314 315 316 318 319 321 320 323 327 327 328 332 335 333 341 346 347 346 344 342 341 341 340 343 343 344 342 341 337 338 338 338 341 341 341 341 339 339
297 298 293 301 302 305 305 299 308 312 311 311 313 315 316 318 320 321 323 326 328 329 331 334 328 335 347 347 345 343 342 340 340 340 341 342 343 342 340 337 337 339 339 337 337 339 336 337 337
295 291 293 296 303 302 302 300 307 311 311 312 314 315 315 316 319 324 323 325 328 332 334 333 333 331 343 346 345 345 344 340 340 340 340 341 341 340 339 338 339 339 336 336 338 338 338 337 337
289 290 293 294 299 301 300 300 306 309 309 310 312 313 314 315 317 320 323 325 327 332 334 334 332 333 339 341 344 342 341 340 341 340 341 341 341 340 341 339 337 337 335 336 337 339 338 337 338
294 292 292 296 300 299 298 300 303 306 307 307 309 310 311 313 316 319 322 324 327 332 333 337 333 334 333 337 337 338 337 340 340 341 342 342 342 342 341 338 339 338 335 338 340 340 337 335 334
292 291 291 294 298 297 299 298 302 304 304 306 307 308 310 312 313 317 320 324 326 329 332 335 332 332 337 338 340 341 341 339 339 340 343 344 342 342 341 340 338 339 336 341 339 338 331 330 330
291 290 291 291 295 297 296 295 298 303 305 306 307 309 310 311 313 316 318 322 326 327 330 331 332 332 339 342 341 341 340 336 336 338 337 340 341 342 341 341 339 339 340 338 340 336 332 331 326
287 293 293 292 291 288 296 287 296 300 301 303 305 307 308 310 312 314 317 320 324 326 326 326 330 332 337 343 341 340 339 334 337 336 337 337 342 342 341 340 340 341 338 334 336 337 332 332 327
289 294 292 291 290 290 291 288 293 299 297 300 304 305 308 309 311 311 313 317 321 322 322 326 332 336 338 341 342 340 340 340 341 340 339 340 343 342 340 341 342 340 334 335 338 336 333 331 329
293 291 291 291 290 283 289 288 290 294 297 300 303 305 307 308 309 311 313 316 316 323 333 335 336 339 339 340 342 342 341 339 338 339 338 339 340 340 341 341 341 340 336 337 335 335 334 332 330
290 287 281 280 281 281 290 287 291 298 299 301 302 305 307 310 311 313 314 314 321 331 334 333 337 337 340 340 340 341 341 341 341 340 337 336 336 337 338 340 339 337 337 336 336 335 334 333 330
288 287 282 276 279 282 289 285 291 299 302 304 304 306 308 310 312 312 312 322 329 333 333 334 338 338 339 339 339 339 341 340 340 340 339 336 336 337 340 339 337 336 336 335 335 333 333 333 332
288 284 291 284 286 283 286 290 295 298 300 302 304 307 310 313 315 313 322 330 332 332 333 339 338 338 338 337 337 338 339 339 337 339 339 337 338 337 337 337 336 336 335 335 335 333 334 334 329
291 293 284 285 278 277 284 286 289 294 297 301 303 307 312 321 316 322 326 329 330 333 338 339 338 337 337 337 337 336 337 338 337 338 336 337 338 337 336 335 335 334 334 335 337 335 335 334 327
288 286 288 288 286 281 282 287 297 297 299 300 302 308 316 321 319 323 325 329 331 336 336 336 335 335 335 335 335 335 335 336 336 336 336 336 336 336 334 333 333 334 335 336 335 335 334 328 326
291 288 289 284 283 285 284 286 298 300 300 301 302 304 313 320 320 323 326 329 332 334 334 334 335 334 334 334 334 334 335 335 335 334 335 335 334 333 333 333 333 333 333 334 333 332 329 326 324

GFSSGP_sfc_thetae_036.txt.gz
Theta_e
331 334 322 322 309 306 305 306 313 315 315 321 322 323 322 325 321 319 339 343 344 345 351 356 357 357 357 357 355 354 354 354 354 354 353 352 350 348 346 345 341 340 337 336 335 334 334 335 335
334 320 322 318 304 302 304 311 311 317 322 321 323 324 323 322 329 331 334 345 346 349 353 347 357 357 357 356 355 354 354 353 353 353 352 351 350 348 344 342 339 338 337 336 337 337 337 337 337
328 320 313 309 305 302 306 311 316 318 320 320 320 324 323 325 331 332 340 346 347 352 354 348 357 356 356 355 354 354 353 353 353 352 351 350 348 346 344 343 341 338 338 339 339 338 338 339 339
320 317 314 305 304 307 308 314 316 316 319 322 321 318 326 331 332 336 344 344 347 351 352 354 356 356 356 355 354 353 352 352 351 351 349 348 347 345 344 343 343 341 339 340 339 339 340 341 341
320 314 304 303 304 308 312 313 315 315 316 319 323 320 322 332 339 342 343 343 344 348 350 353 356 355 356 355 354 353 351 350 349 349 348 348 347 345 344 344 343 341 341 341 341 341 342 342 342
312 312 301 299 302 307 311 313 313 314 316 319 321 322 324 336 340 340 342 342 343 346 349 349 357 356 355 355 353 352 351 350 349 348 348 348 347 346 345 345 344 344 345 343 343 344 344 344 344
311 307 302 303 303 305 309 314 311 313 317 320 326 321 327 332 338 342 341 342 344 346 348 348 352 354 356 354 353 352 350 349 348 347 347 347 347 346 345 345 345 345 346 347 347 345 345 344 345
314 311 305 305 302 302 309 313 315 315 318 324 326 320 323 333 342 343 342 343 344 346 347 349 351 350 348 349 354 353 351 350 348 348 348 347 347 347 346 345 345 346 347 347 347 345 345 345 345
318 307 304 304 304 304 309 309 315 320 320 321 323 325 327 336 341 340 340 340 341 343 349 349 348 351 348 343 346 353 352 351 350 349 349 347 342 343 341 341 344 347 347 347 345 345 346 346 346
312 307 307 311 310 305 307 311 313 315 318 319 321 324 326 334 335 332 332 334 337 340 344 348 352 350 350 343 347 350 347 347 346 344 344 343 342 342 338 341 346 347 347 346 346 346 347 346 343
312 307 312 313 313 310 307 310 313 312 314 320 320 321 322 324 326 326 327 328 330 332 335 345 351 354 351 348 345 346 347 345 345 345 348 347 341 343 339 339 341 343 345 344 345 347 345 345 343
307 313 313 313 313 308 307 311 310 312 312 321 321 322 323 324 325 327 328 329 330 331 334 343 350 353 354 349 347 347 346 347 345 345 351 347 344 346 343 338 340 341 340 342 345 344 346 345 345
307 309 313 314 314 313 311 308 310 312 315 317 318 319 321 324 325 327 328 329 331 331 335 337 341 352 353 355 350 351 349 347 348 346 347 346 342 346 342 341 338 340 340 340 343 343 345 343 345
307 308 310 311 311 313 311 312 313 316 319 319 321 322 323 322 324 325 327 328 330 331 334 337 338 347 353 352 355 354 354 351 349 347 346 349 345 347 341 342 338 338 339 339 340 342 342 343 343
305 301 305 308 310 309 312 309 310 316 319 319 320 321 322 323 325 325 327 329 331 332 335 338 341 344 351 354 353 353 350 350 348 347 351 348 350 350 347 339 339 337 341 343 341 344 344 342 342
299 301 296 304 307 309 308 302 312 317 317 317 318 319 320 322 324 326 327 330 333 335 335 338 336 337 346 355 351 349 348 347 347 347 348 348 350 348 346 339 338 338 340 338 338 340 339 339 340
299 293 297 299 306 306 305 303 311 315 315 315 317 318 319 320 324 327 328 330 332 334 338 338 340 339 346 351 348 351 354 348 346 346 347 349 348 347 345 341 338 347 337 338 336 336 338 338 343
292 294 296 296 303 304 303 303 308 313 313 314 316 317 318 320 322 325 327 328 330 333 338 342 342 346 345 343 346 344 346 347 346 346 347 348 348 347 346 343 342 341 337 337 335 338 340 340 340
295 296 296 299 303 302 302 302 305 310 311 312 313 316 317 319 322 323 324 326 327 331 339 343 345 351 342 337 339 342 341 344 345 346 349 348 348 347 347 343 343 341 337 338 341 340 342 341 341
294 293 294 299 301 302 301 301 305 307 309 311 312 314 315 317 318 320 323 324 327 332 339 343 346 347 344 339 344 344 345 345 346 346 346 348 348 347 345 346 343 342 336 338 340 342 342 340 339
292 291 293 294 299 301 300 298 302 307 309 310 312 313 314 315 316 318 320 323 325 329 337 337 342 343 345 346 346 347 348 347 344 343 343 344 346 345 344 344 344 342 339 336 346 345 341 334 336
288 294 294 294 294 290 300 290 299 303 305 307 310 311 313 314 316 317 319 321 324 326 330 334 339 340 342 349 350 351 343 340 342 344 341 342 344 343 343 346 344 343 339 345 342 342 341 340 332
291 295 294 294 293 293 294 291 297 303 301 305 309 310 312 314 315 316 318 320 322 325 327 334 336 337 342 347 350 346 346 344 346 344 338 342 344 344 346 347 346 344 344 346 343 341 341 338 332
296 293 292 293 292 286 293 292 294 298 301 305 308 310 311 312 314 316 318 320 321 324 325 329 337 341 344 347 348 349 348 347 344 345 340 342 343 345 346 346 347 348 346 344 341 342 340 336 334
293 288 281 280 283 283 293 291 294 302 303 304 305 308 311 313 315 317 318 319 321 324 328 336 341 342 345 346 347 348 350 350 349 347 345 345 342 343 346 348 347 344 345 343 342 341 338 336 333
290 288 282 277 280 284 292 288 294 303 305 307 308 310 311 313 316 318 322 321 319 324 335 339 340 342 344 346 347 350 351 348 347 349 346 344 342 343 347 346 345 344 343 341 341 336 335 337 335
291 286 293 286 287 286 289 294 299 303 303 305 306 310 314 319 323 324 325 323 329 336 339 342 343 344 345 347 348 349 350 350 348 348 347 343 345 343 345 345 343 342 341 340 339 334 336 336 337
293 294 284 287 279 279 287 290 291 298 299 303 305 309 313 323 325 325 327 330 336 340 344 345 346 345 346 347 347 347 348 348 347 346 342 343 344 343 344 343 342 340 338 338 339 336 338 337 335
290 289 290 290 287 281 284 288 300 300 303 304 306 308 310 320 325 328 331 333 336 343 344 345 345 345 345 345 345 345 345 344 344 342 343 344 344 343 340 339 337 336 336 338 339 339 337 334 332
291 290 288 285 284 288 287 291 304 304 304 305 306 308 311 322 323 325 328 332 339 341 342 342 343 343 343 344 343 343 341 341 342 342 342 343 341 339 335 334 334 335 336 337 336 334 334 328 325

GFSSGP_sfc_thetae_039.txt.gz
Theta_e
331 329 327 320 309 308 305 307 315 314 315 321 323 321 321 325 321 319 338 336 340 344 355 355 359 359 358 357 358 359 360 360 361 360 359 357 356 353 351 349 346 343 341 339 336 334 334 333 334
327 329 319 316 306 303 305 312 311 318 321 325 325 325 323 321 329 332 334 339 341 348 354 347 359 359 359 357 355 356 357 358 358 358 357 355 354 352 348 346 343 341 339 337 336 335 336 337 337
336 323 313 309 307 303 306 312 316 321 325 323 323 327 326 325 331 333 340 341 342 350 354 350 358 358 358 357 355 354 354 355 356 355 354 353 352 351 348 346 343 340 339 338 338 339 338 339 338
324 318 314 306 304 309 310 315 318 320 322 324 324 320 327 334 333 337 340 340 344 349 352 356 356 357 357 357 356 355 354 354 353 353 353 352 351 350 347 345 344 342 340 340 341 340 339 340 342
323 316 306 304 304 309 313 315 318 319 321 322 324 321 324 333 337 340 339 341 344 348 351 356 356 356 357 357 356 355 354 354 353 353 352 351 350 348 346 345 344 342 341 341 341 341 341 342 341
314 311 301 302 305 310 313 316 316 318 320 321 322 323 325 335 338 339 338 339 342 345 350 355 356 356 356 356 354 353 353 352 352 352 351 350 348 347 346 345 344 345 345 344 343 343 343 343 343
314 311 304 305 305 307 311 316 314 316 318 320 325 320 327 333 337 337 336 337 339 343 346 352 357 354 356 355 354 353 352 351 350 349 348 348 348 347 347 346 346 346 347 347 346 346 344 345 345
316 313 307 308 305 305 313 314 316 314 316 325 327 321 323 332 337 335 335 336 338 341 343 345 357 351 349 350 355 353 352 351 350 349 349 348 348 348 347 345 346 347 347 347 348 347 346 345 346
320 309 305 307 307 307 313 312 316 320 318 322 326 327 330 336 338 334 334 335 337 339 344 346 349 352 349 344 348 353 352 351 350 350 349 347 340 341 340 341 344 347 348 348 348 348 347 346 347
314 309 309 313 313 310 312 312 313 314 315 319 323 327 331 337 335 333 332 333 335 337 342 346 352 352 351 344 348 351 346 347 346 343 344 343 342 341 337 340 345 347 347 348 348 347 347 346 342
313 309 314 315 316 316 313 311 315 313 313 319 321 324 328 335 334 332 333 334 335 337 339 343 357 359 355 349 345 349 350 348 349 348 348 348 340 342 340 339 339 343 345 342 344 345 345 343 342
308 312 314 315 316 316 312 313 311 314 315 319 325 327 327 327 330 330 330 331 331 333 335 338 349 358 363 351 348 347 346 351 348 348 352 347 344 345 346 339 340 345 341 342 344 342 346 345 345
308 310 313 314 315 316 316 312 312 313 317 320 322 325 325 325 327 329 330 332 333 333 335 338 347 357 360 362 351 352 351 349 352 349 352 350 345 346 343 345 341 343 339 340 342 344 347 346 345
307 309 309 312 312 314 313 313 314 315 318 318 318 319 323 324 325 328 329 330 332 334 335 337 339 360 361 359 362 360 360 354 354 351 353 354 349 349 345 345 342 340 341 340 341 343 342 344 342
307 303 306 308 310 310 313 308 309 316 319 318 318 319 320 323 326 327 329 331 332 333 337 345 347 352 363 364 361 357 351 354 350 350 362 358 355 353 351 345 342 341 344 350 347 348 344 342 341
301 302 298 305 307 309 308 303 311 316 317 317 318 320 322 325 326 327 328 334 337 338 341 346 336 346 358 361 358 354 349 348 349 349 351 357 358 356 355 344 343 345 343 341 340 338 338 339 338
297 294 298 300 307 306 306 303 310 314 315 316 318 319 321 323 326 330 329 331 335 340 342 343 348 342 356 359 351 354 358 350 346 347 348 357 355 353 352 346 346 351 342 341 338 338 341 338 336
292 294 297 297 303 305 303 304 308 312 312 313 315 318 320 321 324 328 330 331 333 342 346 349 347 353 358 348 356 344 343 345 347 347 348 357 353 352 353 348 350 348 341 339 339 341 338 336 337
297 295 294 299 304 303 302 303 306 310 310 311 314 317 319 320 324 327 329 331 331 339 343 347 347 353 347 339 338 337 339 343 347 348 357 354 352 352 351 346 349 348 342 343 347 340 340 336 341
295 293 294 298 301 303 302 301 305 308 310 311 312 314 317 319 321 324 327 328 335 337 342 344 347 351 353 342 346 342 346 344 347 348 354 353 351 351 351 351 349 349 341 348 345 344 334 338 341
294 292 293 293 298 301 301 298 302 307 309 311 312 314 316 317 320 323 323 329 332 335 340 340 347 352 355 352 347 352 352 352 346 348 348 350 350 350 349 349 350 350 346 337 344 343 344 337 338
291 296 295 294 292 289 299 291 300 304 306 308 311 312 313 316 318 319 321 326 330 332 334 340 345 351 352 358 345 355 345 343 344 348 348 346 349 348 347 347 348 347 342 343 342 344 345 341 334
293 297 295 294 292 292 293 291 297 303 303 306 309 312 314 316 317 318 319 322 325 330 334 338 345 351 352 353 353 348 351 345 346 346 350 346 347 347 344 346 347 348 343 351 350 347 344 340 335
299 295 294 294 292 286 291 291 293 298 302 306 310 312 314 315 317 318 320 324 324 325 327 336 343 347 350 349 354 358 356 355 346 347 340 341 343 343 346 346 348 349 349 349 347 345 344 341 340
296 291 284 282 283 283 293 291 294 301 304 306 308 310 313 315 316 317 317 318 321 322 324 327 334 339 345 346 349 351 356 361 357 344 341 343 342 343 347 349 351 348 348 346 346 344 342 340 336
293 291 284 278 279 283 291 287 293 304 307 309 309 311 312 315 316 317 319 320 322 323 325 327 333 341 344 346 348 351 355 349 350 349 347 345 345 346 352 350 348 346 344 342 344 340 338 340 335
293 288 294 287 288 283 286 291 299 302 304 307 308 310 312 315 318 321 323 326 326 323 327 336 339 342 346 346 349 352 351 355 351 357 356 347 350 347 349 347 345 343 342 342 343 337 337 340 339
295 297 286 289 280 278 285 288 290 297 300 305 307 310 312 315 322 326 326 327 327 333 340 343 344 345 346 349 350 349 353 353 352 351 351 349 349 346 344 343 342 342 341 341 341 338 340 338 341
292 290 293 291 287 282 281 286 298 300 302 304 307 310 312 318 326 328 331 334 338 341 344 346 345 345 345 346 349 347 348 348 348 348 345 345 346 343 341 341 340 338 337 338 340 339 337 335 336
294 291 292 285 282 288 287 287 300 303 308 307 308 309 312 322 327 327 331 334 339 340 343 344 344 345 346 344 345 345 346 347 345 343 343 343 341 341 338 337 335 334 335 338 338 335 335 334 332

GFSSGP_sfc_thetae_042.txt.gz
Theta_e
329 324 325 319 306 306 302 304 311 311 313 317 319 319 320 323 321 317 333 340 351 347 351 355 358 357 358 361 362 362 362 362 362 361 361 359 357 356 354 352 349 347 342 339 337 335 334 334 334
326 321 322 313 303 299 302 308 309 312 318 322 323 322 322 320 330 330 331 340 353 348 349 351 359 357 357 360 360 361 361 361 361 361 359 358 356 355 352 349 346 344 340 338 335 334 335 336 336
331 333 312 306 303 300 302 310 311 316 321 322 321 325 324 324 332 332 339 346 353 350 346 352 359 358 357 357 358 358 359 359 360 360 358 357 355 353 351 348 347 342 339 337 336 336 338 338 337
323 320 312 302 301 306 308 312 315 317 323 324 323 320 328 334 334 336 338 345 351 350 346 357 358 358 357 356 356 357 357 358 358 357 357 355 353 352 350 348 346 344 340 339 339 341 340 339 340
325 315 304 301 302 306 311 313 315 317 320 321 323 320 324 333 339 337 339 343 346 349 348 355 357 358 358 358 356 355 355 355 355 355 355 353 352 351 349 347 346 345 344 342 342 343 343 343 342
313 311 301 299 303 307 311 314 314 316 318 321 321 321 324 334 337 337 339 341 344 346 349 354 357 357 357 357 355 354 354 353 353 353 353 352 351 349 348 347 346 346 346 346 345 345 345 345 345
315 309 302 302 302 304 309 315 313 313 314 317 322 318 325 331 337 337 337 339 341 345 352 353 352 355 357 355 355 354 353 353 352 352 351 351 350 348 347 346 346 346 346 347 346 346 347 346 346
317 313 306 306 304 305 311 313 315 313 313 322 324 318 321 333 338 336 334 335 338 342 350 354 353 350 349 350 355 354 353 352 351 351 350 350 349 348 347 345 345 346 347 347 347 347 348 348 347
316 307 304 305 306 307 313 311 315 317 314 317 321 323 329 334 334 333 331 332 334 338 341 354 354 351 346 345 349 354 353 352 351 350 350 347 343 343 341 343 343 347 347 348 348 348 348 348 348
308 305 307 312 312 311 313 312 313 313 312 315 318 326 330 333 331 330 328 329 332 335 339 348 355 350 346 341 346 350 350 349 348 345 345 344 341 338 338 341 343 346 347 348 348 349 348 347 341
309 305 310 312 315 316 313 313 315 311 309 314 316 322 327 331 332 331 329 330 332 336 339 344 354 354 349 346 348 348 345 345 345 344 342 343 340 338 338 336 337 343 345 342 344 344 343 340 340
303 309 311 313 315 314 313 316 314 313 312 317 319 324 327 327 332 331 330 331 333 335 334 344 356 357 355 349 350 351 348 347 345 344 342 341 339 337 337 336 337 337 338 337 338 339 340 340 341
303 306 309 311 312 313 315 313 313 314 316 318 319 319 324 327 332 333 335 336 337 338 339 343 356 357 361 363 357 352 349 349 347 346 344 341 341 338 337 339 339 337 338 337 336 339 340 341 341
305 305 306 308 310 311 310 311 314 316 319 317 318 318 324 325 326 330 333 335 345 342 354 346 355 361 361 359 361 365 357 353 351 347 347 345 342 342 340 338 339 341 338 339 337 338 341 342 343
304 300 303 305 306 307 311 306 308 316 318 317 318 318 319 326 327 326 331 335 339 338 344 347 351 363 361 360 360 358 358 353 354 351 354 347 346 345 341 341 339 338 342 339 340 338 342 342 344
297 299 295 303 304 306 306 300 309 313 314 315 317 319 319 321 322 326 331 339 344 343 344 351 339 356 362 360 358 358 353 354 353 352 355 354 349 346 348 342 341 342 340 343 339 341 339 340 339
296 290 293 297 304 304 303 301 308 312 312 313 315 317 319 320 323 326 328 332 338 340 343 346 348 348 359 361 357 358 357 356 353 354 351 357 352 349 346 346 345 345 341 338 340 339 338 338 339
291 292 294 294 299 301 301 302 307 310 309 311 313 316 318 321 321 327 332 333 337 346 351 351 351 354 360 355 354 349 349 350 351 350 353 357 353 351 349 349 344 348 341 340 340 337 339 338 337
297 295 294 297 300 299 299 301 305 308 309 309 312 315 315 317 322 327 328 334 332 344 349 349 349 351 355 352 345 341 341 342 347 350 354 357 354 351 350 346 349 346 342 340 342 341 339 335 335
296 293 293 296 299 298 298 298 303 307 308 310 312 312 314 318 321 322 326 334 341 344 345 346 349 352 352 347 344 347 345 340 345 351 354 357 355 352 351 348 346 345 344 342 344 340 333 333 338
294 293 293 292 296 297 296 295 299 304 308 310 311 314 316 316 317 321 326 332 340 340 343 345 346 347 349 345 345 347 347 353 354 351 352 354 353 352 349 348 346 346 343 340 342 339 336 330 339
289 295 294 294 292 287 296 286 296 301 303 307 309 311 314 315 317 317 322 327 334 337 341 347 346 345 345 349 346 344 340 339 347 351 351 351 352 351 349 347 347 349 342 343 339 339 335 337 333
293 297 295 294 291 291 290 288 292 298 299 304 309 311 313 315 317 316 317 321 327 330 331 337 344 346 345 346 347 342 345 346 354 353 353 349 352 349 347 346 346 345 343 343 338 339 340 340 335
299 295 295 294 292 284 289 289 290 294 298 302 307 311 312 314 316 318 320 320 320 324 328 335 337 338 345 347 351 349 348 347 346 349 346 344 345 343 344 344 344 344 344 345 342 343 340 337 335
297 292 284 282 283 282 291 288 292 298 300 302 305 309 312 314 317 318 319 319 320 321 322 325 336 338 346 344 349 346 351 348 355 346 343 341 340 340 341 342 343 344 345 346 344 341 339 338 336
292 289 283 277 279 282 290 285 290 299 302 305 307 309 312 314 315 318 319 322 320 323 326 330 334 339 343 342 343 348 348 350 349 345 342 341 339 340 345 344 346 346 345 343 343 340 340 339 336
292 288 292 287 288 283 286 290 295 299 300 302 305 308 311 313 314 318 321 321 322 325 331 332 334 336 339 343 346 349 351 352 348 347 345 344 344 344 345 347 346 344 343 341 342 340 337 337 336
295 296 288 288 279 277 284 285 287 294 298 301 304 307 310 314 316 320 324 328 332 336 333 335 338 342 347 348 350 350 353 354 351 350 347 346 347 346 347 345 344 342 341 341 340 337 337 335 335
292 291 291 290 287 280 280 284 297 297 298 298 303 307 312 313 314 320 327 331 332 339 342 345 344 346 346 346 348 350 351 351 351 348 346 346 347 345 344 342 339 337 338 340 338 336 336 333 333
295 291 291 284 283 287 286 286 300 298 297 297 297 309 310 315 325 326 329 335 335 335 340 344 345 342 344 348 349 349 347 347 345 343 342 344 343 343 341 340 338 338 336 336 336 334 334 332 331

GFSSGP_sfc_thetae_045.txt.gz
Theta_e
330 321 316 314 297 295 292 297 303 303 305 310 312 315 316 320 319 312 332 343 343 346 352 354 358 360 362 363 363 363 362 362 362 361 360 359 357 355 353 352 350 347 343 340 338 336 335 335 335
324 320 312 308 294 289 293 302 301 306 309 314 317 316 317 319 326 332 338 343 344 346 349 349 357 359 362 362 362 361 362 362 362 361 360 358 357 355 352 349 346 344 341 339 336 335 335 337 337
327 327 312 297 294 293 294 302 304 309 313 317 315 319 319 322 327 330 343 343 343 345 346 349 357 358 361 362 361 360 361 361 361 360 359 357 356 354 352 349 347 343 341 338 336 336 337 338 338
318 315 308 293 292 298 302 305 308 309 314 318 318 316 324 331 330 336 347 343 342 342 346 355 356 356 359 361 361 360 360 361 361 360 358 356 355 354 351 349 347 345 340 339 339 340 340 340 340
322 312 297 292 294 300 305 308 308 307 311 316 317 317 321 331 335 348 347 345 340 338 347 353 356 356 356 359 359 359 359 359 359 359 358 356 355 353 351 349 346 345 344 342 342 344 344 344 344
311 306 296 294 298 303 306 307 307 307 313 314 314 316 318 331 333 340 345 343 342 339 349 351 357 357 355 355 357 357 357 357 357 357 356 355 354 352 350 349 347 346 347 346 346 346 345 346 346
308 303 295 296 298 301 306 309 306 306 307 311 315 314 321 326 331 337 341 344 343 344 347 347 352 355 357 355 354 353 354 354 354 354 353 353 352 351 350 348 347 347 347 347 347 347 347 347 347
306 309 303 303 302 303 310 312 310 306 308 314 318 311 314 327 332 334 338 339 341 347 347 347 347 350 351 351 355 353 353 352 351 352 352 352 352 350 349 346 346 347 347 347 347 347 347 348 347
309 298 301 303 304 306 312 308 313 315 310 312 315 315 327 331 331 328 329 333 340 347 346 346 345 346 346 347 351 353 353 353 352 351 351 349 343 343 342 344 345 347 347 348 348 348 348 348 348
302 297 299 308 309 307 310 310 311 312 309 309 312 319 329 329 328 325 325 325 335 343 346 345 344 343 340 344 345 346 346 346 345 344 343 341 336 335 340 342 346 346 347 348 348 348 348 347 340
301 299 304 306 310 311 311 312 315 312 307 308 309 313 323 326 326 326 325 324 328 341 348 348 345 343 338 338 341 345 344 343 342 339 338 338 338 334 338 332 338 336 344 339 343 343 343 340 338
296 302 305 306 309 308 307 311 310 312 311 313 314 315 316 318 324 324 324 324 329 335 345 348 345 341 338 337 342 342 340 340 340 340 338 338 335 333 329 331 331 332 336 335 334 336 338 336 336
297 300 303 306 308 308 310 308 308 309 314 317 317 316 315 315 322 327 329 329 328 332 339 341 347 343 341 339 343 342 340 340 338 339 339 338 336 332 331 329 330 330 334 334 332 333 335 335 336
296 298 300 302 303 304 305 307 309 310 314 316 315 314 315 314 320 323 327 329 329 329 332 333 333 347 345 344 344 343 343 342 341 341 340 338 337 333 331 330 331 331 333 334 332 331 333 335 336
298 293 297 299 301 301 304 300 303 310 312 312 315 315 315 314 318 320 325 327 329 329 330 334 341 346 348 347 347 350 346 345 343 342 341 339 336 336 333 332 332 332 333 331 333 330 332 335 337
292 292 286 293 299 301 300 293 302 306 308 310 313 315 316 315 316 320 321 325 329 329 328 337 348 351 350 348 347 347 348 347 345 345 344 342 339 337 336 335 332 333 332 332 332 331 330 332 336
289 284 286 290 296 297 297 295 302 305 306 306 309 312 315 315 315 317 320 322 326 328 329 332 340 351 351 351 350 348 346 344 344 344 345 346 342 339 340 336 336 333 333 333 332 332 331 329 330
285 286 289 289 293 295 293 294 300 304 305 305 306 308 313 314 315 316 319 322 322 325 325 330 332 346 350 352 348 346 345 345 345 344 344 346 345 343 338 340 337 336 335 331 331 329 330 328 331
292 291 290 293 297 294 292 293 296 300 300 302 305 306 308 312 316 317 318 319 325 328 333 332 332 336 344 341 340 338 338 336 338 340 341 344 348 344 342 340 339 339 335 332 331 329 327 328 328
291 289 289 293 297 294 292 292 295 297 299 301 302 305 306 310 312 315 316 318 318 324 332 332 331 333 339 339 335 332 331 332 333 337 341 343 347 347 343 341 340 337 336 332 332 331 327 327 326
290 288 288 289 293 294 292 289 292 296 298 301 303 305 306 307 310 313 315 317 319 326 332 332 332 333 334 334 333 332 332 331 335 336 338 342 346 346 345 341 340 338 336 334 332 330 326 323 324
286 293 293 291 288 282 291 281 289 293 294 298 300 302 303 305 309 311 312 315 320 326 330 330 332 333 335 335 330 331 330 329 328 336 340 342 345 345 344 342 340 340 338 334 333 332 328 327 324
290 295 293 292 288 287 287 282 287 292 292 294 297 300 303 305 307 309 309 310 314 324 324 330 333 332 331 334 333 332 329 331 333 338 340 340 341 343 343 341 339 339 340 338 334 331 329 329 328
296 292 291 290 287 280 286 285 285 288 291 294 297 300 302 304 308 308 310 310 311 313 319 319 328 331 330 332 335 332 332 333 335 339 338 337 337 339 342 343 342 340 339 338 334 333 331 331 330
291 286 281 276 276 278 287 285 286 291 295 297 297 299 302 303 305 308 309 310 312 311 312 315 322 327 333 332 336 334 333 334 336 339 337 336 334 334 336 339 339 340 340 338 335 334 332 330 329
287 287 278 274 277 279 286 282 286 294 296 299 301 300 302 303 304 306 308 311 312 313 312 312 313 322 330 333 339 338 336 342 340 340 338 336 335 334 337 339 339 340 340 337 337 335 331 330 329
287 285 292 283 285 280 282 287 292 296 297 297 298 300 299 300 305 306 308 310 312 313 314 314 315 320 334 334 336 338 335 341 339 337 337 336 335 337 339 340 337 339 339 337 335 333 330 329 327
289 292 281 284 276 275 280 282 284 291 292 295 295 297 300 304 308 307 307 309 310 311 315 317 323 330 332 333 334 338 340 343 339 338 336 336 335 337 338 338 339 337 336 334 331 329 328 328 327
288 286 287 285 283 277 275 279 296 292 293 293 295 298 300 304 307 310 310 319 321 320 321 320 327 332 335 338 339 340 342 343 341 340 339 338 338 339 339 339 336 335 335 334 328 327 329 326 325
292 290 287 281 280 283 281 281 296 294 295 296 296 299 301 304 305 309 312 324 329 329 331 330 335 337 339 340 340 341 342 344 342 340 341 341 338 339 338 336 335 334 332 332 329 328 329 325 324

GFSSGP_sfc_thetae_048.txt.gz
Theta_e
325 322 314 311 296 293 290 295 300 301 301 304 308 309 314 319 316 310 331 337 340 344 350 356 361 363 364 363 362 361 360 360 361 360 358 357 356 354 352 352 351 348 344 341 340 338 337 336 335
322 322 311 305 292 287 290 297 299 302 306 308 310 314 317 317 324 331 334 339 338 346 348 350 360 362 363 362 362 361 361 361 360 360 358 357 356 354 351 349 347 344 342 340 338 336 336 337 337
328 324 310 298 290 288 291 298 300 305 308 309 309 316 320 320 331 333 337 338 340 344 346 347 359 360 362 362 361 360 360 360 360 360 359 357 356 355 352 350 347 344 341 339 337 337 338 339 339
317 314 311 293 290 294 297 301 304 305 307 310 314 314 323 328 331 338 338 337 337 342 343 351 358 359 361 361 361 360 360 360 360 360 359 357 356 354 352 349 348 346 342 340 339 340 340 340 340
318 308 296 292 293 296 301 302 303 302 304 307 313 314 319 329 342 339 337 336 335 338 340 350 357 359 360 361 361 360 360 359 360 359 359 357 356 354 351 349 347 346 344 341 341 344 344 344 342
312 304 293 292 297 302 304 305 303 302 304 308 311 316 319 335 339 337 337 334 334 336 341 348 356 358 358 359 359 359 359 359 359 358 358 357 356 354 351 350 348 347 346 346 346 346 345 345 346
307 301 293 295 298 300 304 309 308 305 306 306 310 311 319 330 338 339 335 334 333 338 342 345 348 354 358 358 357 358 357 357 357 357 356 356 355 353 351 349 348 348 347 347 347 347 346 346 346
305 306 301 301 301 302 310 310 308 308 309 312 315 310 315 325 339 341 337 333 335 342 341 345 347 348 348 350 357 356 356 356 355 355 355 355 354 352 351 348 348 347 347 347 347 348 347 346 347
306 296 298 303 304 306 310 308 313 314 310 313 312 314 324 328 334 333 335 335 340 342 340 343 346 346 346 345 349 354 355 355 354 354 354 350 345 344 344 345 345 347 347 347 347 348 347 347 346
298 293 297 305 309 308 309 309 311 311 310 311 313 315 320 329 331 331 332 333 338 339 340 340 342 344 344 347 345 344 345 345 345 345 344 342 338 337 340 343 345 347 347 347 348 348 347 346 339
297 295 301 304 307 308 307 307 311 308 306 310 310 311 315 318 320 327 331 334 338 340 341 341 338 340 340 340 343 344 342 342 342 341 340 338 337 336 339 334 338 336 344 337 342 342 342 338 337
293 298 300 303 306 306 304 307 306 308 308 313 314 314 314 313 315 320 323 326 335 341 342 341 339 336 335 335 340 340 340 340 340 339 337 337 334 331 331 331 332 331 333 333 333 336 337 337 337
293 296 299 300 301 305 307 305 306 307 311 314 314 315 314 314 318 328 329 329 332 341 345 344 341 338 335 333 337 339 337 338 338 338 337 337 334 331 330 330 328 329 331 332 331 333 335 335 335
294 295 295 297 297 299 299 301 304 307 312 311 312 313 314 315 317 324 327 327 331 336 340 342 341 344 342 335 337 338 337 336 334 335 336 336 335 331 330 327 328 328 331 332 332 331 331 332 333
295 291 294 295 296 297 301 297 298 305 307 308 310 312 313 315 315 323 327 329 328 331 332 336 337 337 339 340 339 338 338 338 336 336 337 336 335 333 329 328 327 329 329 330 331 328 328 329 332
291 289 283 290 295 298 298 292 300 304 304 305 307 310 312 313 315 315 324 326 328 329 329 328 335 334 342 342 342 341 340 341 340 339 339 338 336 334 331 329 327 329 329 330 330 328 326 329 330
286 281 283 287 292 293 294 291 299 302 302 302 304 305 309 311 313 314 320 325 325 324 327 327 330 337 344 345 345 346 345 343 343 342 340 339 338 335 334 331 331 329 330 329 329 328 327 325 327
283 283 286 286 291 292 290 291 295 298 298 298 300 303 306 309 311 314 315 318 323 326 324 327 326 331 344 346 345 344 342 345 341 343 342 342 340 338 335 334 332 330 330 330 328 328 329 325 328
291 289 286 290 294 292 290 291 294 295 296 296 297 300 302 305 310 312 315 315 317 321 323 321 327 333 342 342 342 342 341 341 339 341 342 343 344 340 335 336 333 333 330 330 330 327 327 326 328
288 286 285 289 293 292 290 291 294 295 295 295 296 298 300 303 306 309 312 314 313 316 322 324 326 336 344 344 344 341 342 336 341 342 341 341 344 343 340 336 336 335 333 329 329 328 324 325 325
287 285 288 288 293 293 289 288 290 295 295 297 297 298 300 301 304 307 311 312 312 312 317 327 327 335 343 343 341 330 331 329 329 330 331 335 342 344 341 338 338 336 336 331 329 328 326 323 323
285 293 292 290 287 281 289 280 288 291 293 294 295 295 297 299 302 304 307 308 312 317 321 326 329 329 338 337 334 332 328 325 325 326 333 334 342 343 342 340 339 338 335 333 330 330 326 326 323
288 294 291 291 287 283 286 280 286 289 289 292 295 296 297 298 298 301 304 308 310 315 324 326 326 327 329 331 331 331 323 324 324 330 331 333 338 342 343 340 336 337 335 333 332 331 329 329 327
295 290 289 287 284 278 284 283 283 287 289 293 296 298 299 301 301 302 304 308 309 311 319 325 326 327 328 327 326 324 324 325 327 330 332 333 335 338 340 340 338 338 338 334 333 333 331 329 330
289 282 276 275 275 276 285 282 285 290 293 295 296 298 300 301 301 304 305 303 306 306 311 318 326 327 328 328 328 329 327 327 328 332 333 333 332 333 337 338 338 340 337 336 335 334 332 328 327
285 283 275 272 275 278 286 279 284 294 297 298 299 298 299 300 302 304 306 308 305 307 308 312 316 324 326 326 325 330 330 330 332 336 337 338 337 336 337 336 336 339 340 338 335 332 331 331 330
285 282 287 278 283 280 281 285 289 295 295 296 296 297 297 298 301 304 307 309 313 308 309 310 312 317 320 326 327 328 331 332 336 336 337 335 334 336 335 336 335 339 339 336 332 332 332 331 329
288 289 279 279 275 274 279 281 281 290 291 294 294 294 296 299 300 303 306 308 312 317 311 310 311 313 318 325 329 333 332 338 337 337 334 334 333 335 335 333 334 335 336 333 331 331 331 328 324
285 283 286 284 283 278 276 278 291 291 292 291 293 295 296 298 300 303 305 307 310 313 319 311 310 313 324 328 330 334 335 336 336 335 335 334 333 334 335 336 335 336 335 334 331 327 327 325 323
289 286 286 279 280 284 282 280 292 293 293 293 293 296 299 300 301 303 304 305 310 312 317 321 316 323 328 331 333 335 338 336 335 334 335 335 335 337 337 337 337 336 334 331 327 325 327 324 322

GFSSGP_sfc_thetae_051.txt.gz
Theta_e
330 318 312 309 296 292 287 292 296 298 300 302 304 303 304 313 315 309 327 332 339 339 353 360 363 363 363 362 361 360 359 359 359 358 358 357 356 354 354 353 352 349 347 344 342 339 338 336 334
330 321 312 301 291 286 288 294 295 299 303 306 306 305 312 315 323 329 329 336 337 341 352 357 362 363 362 362 360 359 360 360 359 358 357 357 356 354 352 351 349 346 344 342 340 338 337 336 336
331 322 307 297 289 289 289 296 297 302 305 304 304 308 312 319 329 331 332 336 334 342 350 353 362 362 362 361 360 359 359 359 359 358 357 357 356 354 352 351 349 345 343 341 339 337 337 338 338
316 313 306 295 292 294 296 298 299 302 305 305 305 306 320 327 332 333 336 334 336 340 346 356 360 361 361 361 360 359 359 359 359 359 358 357 356 354 352 351 349 347 343 341 339 340 340 340 339
317 306 296 291 293 296 299 301 300 301 301 304 308 307 318 327 338 335 333 334 332 339 341 353 359 360 361 361 360 359 359 358 358 359 358 357 356 355 353 351 348 347 346 342 341 342 344 343 341
311 303 293 291 297 300 302 303 301 302 306 306 305 307 317 335 335 333 333 331 335 336 339 348 357 359 359 360 359 358 358 358 358 357 357 357 356 354 352 350 348 348 347 346 344 345 345 345 344
308 299 294 295 297 299 303 307 307 306 305 306 307 304 317 333 335 333 328 328 332 334 339 344 350 356 359 359 358 358 357 357 357 356 356 356 356 354 352 350 349 348 348 347 346 347 346 345 344
304 305 299 298 298 299 309 309 309 308 307 313 313 304 307 325 335 332 330 328 328 331 337 340 346 351 352 354 358 358 357 357 356 356 356 356 355 354 352 349 348 348 348 347 347 348 347 346 346
305 296 297 301 303 303 310 307 310 312 310 311 313 312 316 336 336 332 329 335 336 335 334 338 342 344 346 347 353 357 358 357 356 356 356 353 349 348 346 347 346 348 348 347 348 348 348 346 345
296 293 297 305 307 305 307 306 307 308 307 308 311 315 317 333 333 329 327 329 332 333 335 338 340 342 342 345 344 346 350 351 351 350 350 347 342 340 342 345 346 348 347 347 347 348 348 345 337
294 294 301 303 304 306 305 305 307 304 303 307 307 310 312 319 324 327 325 326 328 332 335 338 339 339 340 338 339 339 340 342 343 342 344 342 338 338 340 334 338 336 344 335 341 340 340 336 336
291 297 298 300 303 303 301 305 303 305 305 309 311 312 312 312 312 318 319 324 331 334 335 335 337 338 336 334 339 338 338 338 338 338 337 336 333 331 332 332 331 332 331 331 331 333 335 334 335
291 294 297 298 297 298 302 302 303 304 308 310 311 312 312 312 312 322 323 327 332 336 337 337 335 334 335 329 335 335 336 336 335 335 336 335 332 330 329 330 328 328 328 329 329 330 332 333 333
292 293 294 295 296 296 297 299 300 303 306 306 307 308 311 312 314 322 325 326 331 339 341 340 337 336 334 331 332 335 335 334 332 333 335 335 332 330 328 327 327 325 327 329 329 329 329 329 331
294 289 291 293 295 296 299 295 296 303 305 304 305 306 309 312 317 322 324 326 331 339 343 341 339 338 334 332 332 335 335 335 333 332 334 335 333 330 329 326 326 326 327 327 328 326 326 326 328
288 287 282 289 293 296 295 290 298 301 301 302 304 305 307 310 315 320 323 325 328 330 339 342 343 341 338 335 334 336 337 337 335 334 333 334 334 332 329 327 325 325 326 327 328 325 323 325 326
285 280 282 287 291 291 292 288 295 298 298 298 299 300 303 305 309 314 320 323 325 326 327 333 339 339 338 338 338 338 337 337 338 337 336 336 335 334 331 329 327 325 326 327 327 325 325 322 324
282 282 284 285 290 290 289 290 294 296 296 296 297 298 300 301 303 309 315 320 324 325 325 324 324 328 331 337 338 338 340 340 340 340 339 338 337 336 333 332 328 327 326 326 326 325 325 323 325
288 286 284 287 291 289 288 290 292 294 294 294 295 297 298 300 304 307 311 315 318 323 323 324 324 324 327 335 336 336 337 340 341 341 341 340 339 337 333 333 329 328 327 327 327 325 324 323 325
287 284 284 288 293 291 290 289 293 292 293 294 295 296 297 298 301 304 308 310 313 316 321 323 323 325 325 336 338 336 337 339 341 342 340 341 341 338 335 333 332 330 329 326 328 326 322 324 325
286 285 286 287 291 291 289 287 289 292 293 295 295 296 296 297 298 301 303 305 310 311 315 320 322 324 326 336 337 329 331 329 332 332 335 338 339 340 338 335 334 332 332 328 328 328 325 322 323
283 291 291 289 286 279 289 278 287 290 291 292 293 293 294 295 297 298 299 301 302 306 310 316 320 321 325 328 336 336 336 334 333 335 335 333 337 339 340 337 336 334 334 330 329 329 328 328 324
286 293 289 288 285 282 283 279 285 288 288 291 293 295 297 298 300 300 302 303 304 305 307 312 319 322 324 332 338 337 335 329 323 323 328 329 332 337 340 339 336 335 334 333 330 329 329 330 328
293 288 286 285 282 275 282 281 282 283 286 289 295 297 299 299 301 302 304 306 307 308 304 309 319 323 325 332 335 336 334 326 323 324 325 326 329 333 337 337 336 336 334 333 332 334 331 330 330
287 281 274 274 274 275 284 281 283 289 293 295 295 296 297 298 299 300 302 304 307 308 310 304 313 321 323 326 332 331 330 328 326 325 327 327 329 331 336 336 335 336 336 335 335 333 331 330 329
283 282 273 269 273 276 283 278 283 294 296 297 298 297 298 297 297 299 301 303 305 308 312 307 307 316 322 325 327 329 328 327 325 325 329 330 332 333 336 338 337 337 337 336 333 334 332 331 329
284 281 285 275 279 275 279 284 288 293 294 295 295 296 295 296 297 298 300 302 305 306 309 312 311 308 317 322 325 324 324 323 325 327 331 332 332 335 337 337 336 337 337 335 334 333 331 330 330
287 288 278 278 273 273 278 280 281 286 289 293 293 293 294 296 298 300 301 302 305 305 308 312 315 312 310 319 322 322 324 326 328 331 332 332 331 335 334 333 333 335 337 336 333 331 332 328 326
283 282 283 282 281 274 274 278 287 289 291 292 293 294 293 296 298 300 301 303 304 304 307 311 313 315 307 312 318 322 325 329 331 332 332 332 333 334 334 334 332 334 332 334 331 328 329 328 325
288 285 286 279 277 280 279 279 292 292 291 292 293 295 295 298 299 300 301 303 304 304 305 309 313 316 309 311 318 325 329 332 332 332 332 332 333 334 334 335 334 335 334 333 331 329 329 324 321

GFSSGP_sfc_thetae_054.txt.gz
Theta_e
335 321 311 306 295 291 286 291 294 296 298 300 302 302 302 307 312 307 327 334 335 338 354 359 362 363 362 361 360 360 359 358 358 357 357 357 357 356 356 355 354 352 349 346 344 341 339 337 335
333 321 311 299 290 285 286 292 294 296 301 304 303 302 301 303 310 321 327 332 334 340 353 357 362 362 362 360 360 359 358 358 358 357 357 357 356 355 354 353 352 349 347 344 342 340 338 336 336
327 322 306 297 288 286 287 293 296 300 302 301 301 306 305 314 326 328 330 334 333 342 352 356 362 361 362 360 359 358 358 358 358 357 357 356 355 355 353 353 352 348 345 342 341 339 339 338 338
316 315 304 296 292 294 295 296 298 299 303 303 303 304 310 325 330 332 333 334 334 342 351 356 360 360 360 360 359 358 359 358 358 357 357 356 355 354 352 352 351 349 344 343 341 342 341 340 339
315 307 297 292 294 297 298 299 298 299 300 303 306 304 306 328 335 333 332 331 332 342 347 354 360 360 360 360 360 359 358 358 357 358 357 356 355 354 352 352 351 349 348 344 343 344 345 344 341
309 304 293 292 296 299 301 301 300 299 303 307 306 306 309 335 332 330 331 328 334 340 343 353 360 360 359 359 358 358 357 357 357 357 357 356 355 354 353 351 350 349 348 347 345 345 345 345 344
307 300 294 296 297 299 303 307 305 303 304 305 308 302 307 317 331 328 326 329 332 336 341 349 354 357 360 358 357 357 357 356 356 356 356 355 355 354 352 351 350 349 348 347 346 346 346 345 344
306 303 297 297 297 297 308 309 308 305 306 312 312 305 306 328 330 328 328 327 327 331 338 342 348 352 354 355 358 357 357 356 355 355 355 355 355 354 353 349 348 349 349 348 347 347 347 346 345
305 297 295 299 301 302 308 306 310 310 307 308 311 310 312 334 331 327 329 331 329 331 333 337 344 347 349 351 355 357 358 357 356 356 356 353 351 351 349 348 348 349 348 348 348 348 348 347 344
298 293 297 304 305 303 305 305 306 305 304 305 308 311 314 330 329 326 325 325 328 329 332 335 338 341 344 349 350 352 352 353 352 352 352 351 349 346 346 348 347 348 348 348 348 348 348 345 340
292 292 299 301 302 304 302 302 304 303 301 304 303 307 311 311 321 328 326 327 326 329 334 337 337 339 343 343 343 345 344 350 349 349 349 348 343 343 345 340 343 341 346 339 344 344 343 339 339
290 295 297 298 300 299 299 302 301 302 302 307 307 309 309 310 310 319 326 326 328 329 332 334 338 339 337 336 339 340 342 339 340 340 341 339 335 335 336 335 335 335 336 336 335 336 339 338 337
288 291 295 297 296 296 299 298 299 300 305 308 308 308 309 309 310 312 319 324 328 328 332 333 335 337 338 333 337 338 338 339 338 337 337 337 334 332 332 332 331 332 332 332 332 333 334 335 336
291 291 293 294 295 296 296 297 298 301 304 304 304 305 306 308 310 311 323 324 327 333 334 334 334 337 337 334 336 336 337 336 336 336 337 337 334 331 330 329 329 329 330 330 331 331 331 332 334
292 287 290 291 292 293 296 293 295 301 303 302 303 303 304 307 309 311 318 323 327 332 337 336 335 335 333 333 332 334 336 335 335 335 336 336 334 332 330 329 328 328 329 329 330 330 330 330 331
286 285 281 287 290 293 293 287 296 298 298 299 300 301 302 303 304 308 314 320 325 332 339 340 339 335 333 332 331 332 333 333 333 333 335 336 335 333 330 328 327 328 327 328 329 328 327 327 328
284 280 281 286 289 289 289 287 295 298 297 297 298 300 301 300 302 304 308 312 322 328 336 339 340 337 334 333 331 330 334 335 335 334 333 333 334 334 332 329 328 327 326 327 328 327 328 326 326
280 281 283 283 288 290 288 288 293 295 296 295 296 297 299 300 302 305 307 309 313 321 326 331 340 340 338 337 335 335 335 336 336 336 336 335 334 334 332 330 329 327 326 326 327 327 327 327 328
286 284 283 286 290 289 288 289 292 294 293 293 295 295 297 299 303 305 307 309 310 313 321 323 325 330 330 331 333 333 333 335 335 337 338 337 337 336 333 332 329 328 327 327 327 328 327 326 328
285 283 283 287 291 289 288 288 291 292 292 293 294 295 295 297 299 303 303 306 308 308 311 318 322 324 327 332 336 336 336 336 337 339 340 339 339 337 335 333 331 329 329 328 327 328 326 327 328
285 284 284 285 289 289 287 284 286 291 293 294 295 295 296 295 296 298 301 303 303 305 307 310 315 322 323 324 333 332 333 333 335 336 338 340 340 339 338 335 335 332 331 328 328 328 327 325 326
282 290 289 287 284 277 287 276 283 286 288 291 293 292 293 296 299 300 302 302 304 307 306 308 311 315 319 323 326 332 332 332 335 337 338 337 340 340 339 337 336 333 333 330 329 331 329 328 325
285 291 287 287 282 280 282 278 281 287 285 287 290 292 296 298 299 300 301 303 305 307 306 306 307 311 316 320 324 327 331 333 335 329 333 332 337 339 340 339 336 335 334 334 331 330 329 330 329
291 287 284 282 280 274 280 279 278 282 285 289 293 296 297 298 299 300 301 303 303 305 306 307 306 309 317 319 323 327 331 332 325 326 329 329 331 333 337 339 337 336 335 334 332 332 331 330 331
285 280 273 273 273 274 282 279 282 287 291 291 293 295 296 297 297 297 298 299 301 302 305 308 309 307 312 320 324 330 332 333 329 329 329 326 328 331 334 337 336 336 336 335 335 334 333 332 330
281 281 273 269 272 273 281 277 281 290 293 295 297 296 297 297 296 296 298 299 301 303 304 307 308 308 309 318 323 328 333 334 332 331 329 328 329 331 336 337 337 337 338 337 337 336 335 332 332
283 279 282 274 276 274 278 281 288 291 291 295 294 296 295 295 296 297 298 299 300 303 304 306 307 309 312 311 319 324 329 328 329 327 329 328 331 334 336 337 337 338 339 338 336 335 334 332 331
286 287 276 276 271 272 276 278 280 285 288 291 291 292 293 295 296 298 299 301 303 304 304 306 306 309 313 314 313 322 325 328 327 325 327 330 332 336 336 337 338 338 338 337 336 335 333 331 331
283 281 282 279 278 275 274 277 286 287 288 289 291 294 295 296 297 298 300 302 302 303 304 305 306 308 310 314 311 318 320 324 325 327 329 331 333 335 336 337 337 338 337 337 335 333 332 330 329
286 284 282 276 273 280 273 279 290 290 289 291 291 293 296 298 298 298 299 302 302 304 304 304 305 306 310 316 313 315 321 325 327 329 331 333 334 336 336 336 337 337 336 335 333 331 331 330 327

GFSSGP_sfc_thetae_057.txt.gz
Theta_e
333 328 318 315 304 303 298 299 303 304 304 309 310 308 309 311 311 308 338 343 338 344 357 361 362 362 362 361 361 361 361 361 362 362 361 361 361 360 359 358 357 355 352 349 346 344 341 338 336
329 323 317 309 299 295 297 301 302 305 308 310 310 309 309 309 315 320 330 341 339 349 361 358 361 362 362 360 359 359 359 360 360 360 360 359 359 358 357 357 355 352 349 347 344 341 339 338 338
326 324 314 306 299 294 297 300 305 307 308 307 308 313 311 314 328 323 339 338 339 348 356 360 362 361 361 360 359 357 358 358 358 358 358 357 357 356 356 355 354 351 347 345 343 341 340 340 340
321 321 312 302 296 298 300 304 307 305 308 309 310 311 316 331 328 340 341 337 340 347 351 360 361 361 361 360 359 358 357 357 357 357 357 356 356 355 354 354 353 351 347 344 344 344 343 341 341
321 316 304 300 298 300 302 305 306 305 307 310 313 312 313 325 337 340 340 337 338 344 349 358 361 361 361 360 359 358 358 357 357 357 357 357 355 354 354 353 352 351 349 348 346 345 346 345 342
312 313 301 298 300 301 304 307 307 308 311 313 313 313 315 325 337 336 337 336 339 343 348 353 361 360 360 359 358 358 357 357 357 357 357 356 355 354 353 353 352 351 350 348 347 346 346 346 345
310 306 300 301 299 302 305 313 311 311 312 312 316 311 316 322 335 335 334 336 340 343 346 352 356 360 360 358 358 357 357 356 356 355 355 355 355 354 353 352 351 350 350 348 347 347 347 346 345
314 310 301 301 299 300 309 312 314 312 311 317 316 310 311 322 335 335 335 336 338 341 342 348 353 356 357 357 358 358 357 356 356 356 356 355 355 354 353 350 350 351 350 349 348 348 347 346 346
311 304 300 302 301 303 311 308 313 315 311 313 314 314 316 328 335 334 333 333 334 337 343 348 351 354 355 353 355 357 358 357 356 356 356 354 352 352 351 348 349 350 350 349 349 348 348 347 344
305 300 301 307 308 307 309 307 309 308 308 309 311 315 316 317 325 332 332 330 331 333 339 345 351 352 354 352 355 356 355 356 356 356 357 355 354 354 350 350 348 350 350 349 349 349 349 345 340
301 298 304 306 305 306 305 307 307 306 304 308 307 310 313 316 318 326 332 332 332 333 336 341 349 353 352 350 353 354 354 355 354 355 355 355 352 353 352 349 348 347 347 341 343 342 340 340 341
297 300 301 305 303 301 301 304 302 304 305 309 309 311 312 313 316 318 324 333 332 333 335 340 344 349 351 349 349 351 350 353 350 351 353 351 347 349 350 347 347 348 344 343 341 339 340 341 341
297 297 299 300 300 300 300 301 303 302 305 307 310 310 310 312 314 318 321 333 336 334 335 337 343 345 348 348 346 349 349 350 349 349 351 351 348 347 348 347 345 344 343 341 340 339 339 339 339
298 298 298 299 300 300 298 299 301 303 306 305 307 309 310 312 313 317 320 327 335 337 335 338 340 347 346 345 345 347 348 349 348 347 348 350 348 347 344 345 343 342 341 340 339 338 337 336 336
297 294 296 297 298 297 299 294 296 302 303 303 305 307 308 309 311 311 316 323 331 337 339 340 342 344 347 347 343 344 343 344 343 344 347 345 347 346 345 341 340 340 340 342 340 339 338 336 335
294 293 290 295 296 297 297 291 297 301 301 301 303 305 306 308 310 313 315 318 322 331 337 344 340 340 345 345 343 340 342 340 340 341 342 343 343 343 341 339 337 338 339 337 336 336 334 333 334
292 289 289 291 297 297 296 292 298 301 300 300 302 303 305 307 310 314 315 316 320 327 338 344 344 339 343 341 341 340 344 340 341 340 340 341 341 341 338 337 337 340 337 335 335 335 335 334 334
287 288 289 289 294 296 294 294 297 299 299 299 300 301 304 305 308 312 314 316 318 322 328 340 347 347 344 338 337 337 338 341 340 341 340 337 339 339 338 336 339 339 336 335 336 337 337 336 335
291 290 288 292 295 294 293 293 296 298 299 299 300 300 302 305 308 310 312 315 315 319 321 324 335 351 349 343 338 335 333 336 337 339 343 337 339 341 339 337 333 336 336 340 340 338 338 336 337
291 289 289 292 295 293 293 292 295 297 298 300 301 301 302 303 305 308 311 314 317 317 321 321 324 333 345 347 347 345 343 339 341 341 347 347 343 342 341 339 338 338 339 341 341 339 337 337 338
291 289 289 288 292 294 292 289 292 296 298 300 301 302 303 303 303 306 309 313 315 317 319 320 322 324 331 343 346 346 345 345 342 344 346 346 345 344 343 345 343 341 343 340 341 341 340 337 338
287 294 291 290 288 284 291 282 290 293 295 297 299 301 302 304 305 307 308 310 312 314 316 319 322 323 323 332 337 345 341 340 344 344 346 348 347 346 346 347 346 345 343 345 343 342 342 341 337
289 294 292 291 289 287 287 285 289 293 292 294 298 301 303 306 307 307 308 308 310 313 314 317 320 323 326 326 333 335 342 344 346 345 351 354 349 350 348 350 348 346 345 346 345 343 341 340 338
294 292 290 289 288 282 286 285 286 290 292 295 298 301 304 305 306 308 309 310 310 312 312 315 317 322 325 325 328 332 336 340 339 342 342 343 344 347 350 350 349 349 348 346 345 344 343 341 340
292 289 282 280 281 280 288 285 287 293 295 296 297 300 304 306 307 307 307 308 309 311 314 314 315 318 322 322 324 329 333 336 339 342 340 342 340 342 349 350 350 348 348 348 346 344 342 341 339
290 289 283 275 278 281 287 282 289 295 297 299 301 303 305 305 305 306 308 308 309 311 313 314 315 315 318 321 322 327 332 333 337 341 338 337 337 343 352 349 350 349 348 347 345 343 343 343 342
289 287 290 284 285 281 284 288 293 296 296 298 299 301 302 303 305 306 308 308 309 312 314 315 314 315 318 320 322 325 329 335 338 346 346 342 343 343 347 347 347 347 347 347 346 345 345 344 343
292 294 285 287 277 276 282 284 285 291 293 296 297 299 301 303 305 307 308 307 310 314 315 316 316 315 317 319 321 322 326 333 337 343 343 344 345 344 344 345 347 348 348 348 349 347 347 345 340
289 288 288 288 286 279 278 284 293 293 295 295 298 299 300 302 304 306 307 308 312 314 316 318 319 318 315 317 319 322 325 330 335 336 339 341 343 343 343 345 346 347 348 349 348 344 345 340 336
292 290 290 284 282 285 284 283 296 297 296 298 298 300 301 303 304 305 306 308 312 312 312 314 317 319 317 316 318 321 325 329 332 334 337 340 341 343 343 345 346 348 348 348 345 342 341 336 334

GFSSGP_sfc_thetae_060.txt.gz
Theta_e
334 328 325 321 308 307 306 305 309 307 309 313 314 312 313 316 313 314 341 345 339 343 357 362 362 363 364 365 365 364 364 363 363 362 362 362 362 362 362 361 360 358 354 352 348 346 343 340 337
330 326 322 315 303 301 304 308 306 309 311 313 314 314 313 313 321 326 326 344 340 347 358 357 361 362 364 364 363 362 363 363 363 363 362 362 362 361 360 359 357 355 352 349 346 343 340 338 337
328 327 315 308 304 300 302 306 308 311 312 312 313 318 316 316 326 331 340 344 342 350 357 357 361 361 362 363 362 362 362 362 362 362 362 362 361 360 358 357 357 353 349 347 343 341 341 340 339
326 322 316 304 300 301 302 308 310 310 312 313 314 315 321 328 329 339 345 345 342 350 353 361 360 360 361 362 361 361 361 361 361 361 361 360 359 358 357 356 355 353 349 346 344 344 343 342 341
324 318 307 305 302 303 305 309 310 309 310 312 316 315 318 325 334 341 345 345 340 348 350 363 360 360 361 361 360 360 360 359 359 360 359 359 357 356 356 355 354 353 351 348 346 345 346 346 343
314 315 305 303 305 306 307 312 313 313 314 314 315 316 319 326 332 338 343 344 341 344 349 359 362 360 360 360 359 358 357 357 357 357 357 357 356 355 355 354 353 352 351 350 348 346 346 346 345
313 309 305 305 305 306 308 314 313 314 315 314 318 314 320 323 332 338 341 343 341 343 346 355 359 362 360 359 358 358 357 356 356 356 355 356 355 355 354 353 353 352 352 350 348 348 347 346 344
316 312 306 306 305 306 312 312 315 315 314 320 319 314 316 322 325 336 341 339 340 341 344 350 354 357 357 358 359 358 358 357 356 356 356 356 355 354 353 351 351 352 352 350 349 348 348 346 345
316 308 304 305 306 308 313 310 315 318 315 316 318 318 321 322 323 331 339 336 338 339 342 347 349 354 353 350 355 358 358 357 357 357 356 354 349 352 351 348 351 352 352 350 350 349 348 346 343
308 305 306 311 311 310 313 313 312 312 313 314 316 320 320 321 322 323 328 336 335 337 339 344 350 351 351 346 352 355 354 356 356 355 355 352 350 351 347 349 351 351 351 351 350 350 348 344 337
307 303 308 310 312 314 312 312 313 311 309 314 314 314 317 318 320 321 325 330 335 336 340 343 351 354 351 348 349 350 350 352 354 355 356 355 352 353 350 348 350 347 347 341 343 343 340 339 339
301 306 307 308 311 309 308 311 310 311 312 314 314 315 315 316 317 319 320 324 330 337 336 341 348 354 357 350 350 349 347 350 351 353 358 355 353 353 351 346 346 348 344 344 341 339 341 341 341
301 303 304 307 308 308 309 306 307 306 311 310 311 313 313 315 317 319 321 325 332 336 340 339 345 352 354 356 349 349 348 349 351 351 355 354 351 350 350 349 346 345 344 342 343 340 340 340 341
302 303 303 305 305 306 303 304 305 306 309 309 310 310 312 313 316 317 320 324 332 336 339 341 343 351 352 353 355 352 353 352 352 348 351 354 351 350 347 348 347 345 344 341 341 340 339 339 338
302 298 301 302 303 303 304 300 302 306 306 306 308 310 311 312 313 314 318 321 326 334 339 346 347 347 351 354 353 350 348 348 348 347 353 353 354 353 353 345 345 343 346 347 344 343 341 339 338
298 299 295 300 300 302 300 296 301 305 304 304 305 307 309 311 312 315 316 320 323 326 332 344 342 345 352 352 352 347 343 345 344 345 346 351 353 352 352 344 343 342 343 342 341 340 339 339 339
298 293 294 296 301 300 300 297 302 304 303 302 303 306 307 309 311 315 316 317 321 325 330 338 348 343 348 352 348 350 351 345 341 344 344 347 349 349 348 343 342 347 340 340 340 340 342 342 341
293 293 294 294 299 299 298 298 302 304 304 303 303 304 306 307 310 314 316 317 320 324 328 331 344 348 349 347 349 344 342 342 341 341 340 344 345 346 348 342 343 342 339 339 340 346 345 344 343
295 294 293 296 299 297 298 298 300 303 303 303 304 304 305 307 310 313 315 318 320 325 328 332 330 341 350 340 339 338 338 340 340 341 346 346 348 347 349 341 342 344 344 344 344 346 346 344 345
295 293 294 296 298 297 297 296 299 301 302 303 304 305 306 307 308 310 313 316 320 323 326 328 330 332 337 349 351 347 343 340 340 342 346 348 346 346 346 349 345 347 336 346 349 349 344 345 346
295 293 293 292 295 297 296 295 297 299 301 302 304 305 306 305 306 308 310 315 318 319 321 323 327 332 333 336 344 352 352 351 345 343 342 345 348 345 348 349 347 346 344 342 352 350 350 343 344
292 296 293 292 292 289 295 288 295 298 298 300 301 302 304 306 308 309 310 312 314 316 319 322 325 328 330 333 335 346 345 345 344 349 346 346 353 349 350 351 349 351 349 354 352 351 349 349 344
293 295 294 294 292 292 292 289 294 297 295 299 300 303 306 309 309 309 310 311 314 317 318 322 324 326 329 333 335 332 340 338 344 349 355 356 357 353 350 353 354 355 352 356 357 353 351 349 345
297 295 295 295 293 286 291 290 292 294 296 298 301 302 305 308 310 311 311 313 313 316 319 321 322 324 326 329 332 335 335 338 337 344 347 348 350 353 354 352 357 357 356 355 354 355 353 352 350
296 293 287 285 286 286 292 289 294 297 298 299 300 302 305 308 309 309 310 312 313 314 317 318 320 322 324 326 328 331 334 338 340 345 340 347 345 346 356 358 358 355 358 357 357 354 353 351 348
294 293 287 279 282 287 292 286 293 299 300 302 303 304 306 308 309 309 311 313 313 314 316 319 320 321 322 324 326 329 332 331 335 339 337 338 341 344 356 356 356 357 357 357 356 352 350 351 349
292 290 295 288 289 286 289 292 297 300 299 300 301 302 304 306 308 309 311 312 313 315 317 319 320 323 324 324 327 329 329 331 334 346 349 340 347 344 351 353 355 355 356 355 355 349 350 351 351
295 297 289 290 280 280 287 289 291 295 297 299 300 301 304 307 307 309 310 312 314 316 318 320 321 322 326 327 326 324 327 331 335 339 345 348 350 349 348 350 353 354 355 353 353 350 353 352 351
292 291 292 292 290 284 283 288 298 297 298 299 300 302 304 305 306 308 310 312 313 314 317 319 319 319 322 326 327 325 325 327 330 334 339 345 352 349 346 348 351 352 351 352 353 355 354 352 351
296 293 293 287 286 289 288 287 300 300 301 301 302 304 305 307 307 308 310 311 312 312 313 316 318 318 320 323 327 326 325 327 329 333 338 342 344 348 348 349 349 348 348 353 353 353 351 349 347

GFSSGP_sfc_thetae_063.txt.gz
Theta_e
333 332 324 320 309 309 308 311 314 310 310 316 317 315 317 318 315 314 337 342 340 352 354 360 363 365 367 366 365 364 363 362 363 363 362 362 363 363 362 361 360 358 355 353 350 347 344 340 337
328 328 323 316 305 304 307 315 310 313 314 315 316 316 315 314 322 327 333 344 340 355 357 355 363 365 366 366 365 363 363 363 362 362 362 363 363 362 361 360 358 356 353 350 347 344 341 338 336
328 326 317 311 306 304 307 311 312 314 314 313 314 318 318 318 327 331 340 345 341 353 357 356 362 364 365 365 364 363 363 363 363 362 362 363 362 361 360 359 358 354 351 348 345 342 340 339 338
324 323 317 307 305 308 309 310 313 312 313 315 315 314 321 328 327 335 342 347 345 349 355 359 360 363 364 364 364 363 363 363 363 363 363 362 362 360 359 358 357 355 350 347 344 342 341 341 340
323 318 309 307 306 310 311 312 312 311 312 313 315 314 318 327 332 336 344 346 346 346 354 361 360 362 363 364 363 363 363 362 362 362 362 362 360 358 358 357 356 355 352 347 345 344 345 343 341
316 317 306 304 307 311 310 312 314 313 314 314 314 316 320 329 327 334 345 346 346 345 352 361 359 360 360 361 361 360 360 361 361 361 360 360 358 357 357 356 355 354 352 350 347 346 346 345 343
313 312 306 307 308 310 311 313 313 314 315 315 319 313 321 325 326 329 344 345 343 345 348 359 355 359 360 359 359 359 358 358 358 357 357 357 357 356 356 354 354 353 352 351 349 349 347 346 344
315 313 307 308 307 308 314 314 315 315 314 322 320 313 317 324 326 328 340 343 344 344 345 354 352 355 355 356 359 358 358 358 357 356 356 356 356 355 355 353 353 353 352 351 350 349 348 347 346
317 307 305 307 308 310 316 313 316 318 317 319 320 320 322 324 325 326 332 339 340 341 344 351 349 351 351 349 356 358 358 357 357 356 356 354 347 350 351 348 352 353 352 351 351 349 349 347 344
309 306 306 312 313 312 314 314 315 313 315 317 318 322 324 323 322 322 325 333 337 339 341 346 352 350 350 344 353 353 352 352 353 351 354 350 350 351 345 348 353 352 352 352 351 350 349 344 335
309 304 309 312 314 315 314 314 317 314 311 314 316 320 320 320 321 321 322 326 336 340 340 343 355 359 352 346 349 349 347 349 351 352 356 355 349 352 347 347 347 347 349 341 344 342 340 338 337
305 308 309 310 313 312 311 315 314 315 315 316 318 321 319 317 318 319 320 323 331 337 340 342 349 355 361 346 346 348 344 349 348 350 359 358 351 357 356 346 348 353 343 345 342 341 345 342 340
305 307 309 310 310 311 313 311 311 312 316 318 317 320 319 318 318 320 322 324 329 334 340 341 348 357 359 364 349 350 348 348 348 350 355 354 352 358 354 354 347 348 345 344 345 342 344 342 342
306 305 306 308 307 309 308 308 309 311 314 313 314 316 318 318 317 318 320 322 330 334 340 344 345 358 359 359 365 357 356 353 351 350 354 357 355 358 350 352 347 346 344 343 344 345 343 342 341
305 301 304 305 306 305 308 303 304 310 312 311 311 313 316 318 318 317 319 323 326 334 340 348 349 351 359 361 360 356 353 350 351 351 362 360 360 360 357 348 347 346 349 358 352 349 345 341 341
301 301 297 303 304 305 304 298 306 310 310 308 309 310 312 316 317 318 318 321 325 326 330 344 342 348 354 354 356 351 351 352 350 349 351 357 360 359 358 347 346 346 348 344 344 344 341 340 341
300 295 297 300 304 302 302 299 305 308 307 307 309 309 310 313 315 318 319 320 322 327 330 337 348 346 353 355 354 355 357 350 349 348 348 355 356 356 355 349 347 356 346 344 345 342 345 343 344
296 297 298 298 302 302 300 300 305 307 307 306 308 309 309 311 313 316 318 319 323 327 331 333 340 354 352 354 355 349 349 347 349 347 346 351 353 353 355 348 350 350 343 343 342 349 346 344 346
299 298 297 300 303 299 300 301 303 306 307 306 307 308 309 310 313 315 316 317 320 326 328 331 332 343 348 349 345 345 344 346 346 346 346 350 350 348 351 346 349 348 345 342 352 347 344 344 350
298 296 296 299 301 300 299 299 303 305 305 307 307 308 308 309 311 312 314 317 318 320 331 330 329 334 339 349 345 345 343 344 345 347 348 348 348 351 351 347 349 349 342 350 348 348 343 345 349
296 295 296 296 299 300 298 296 299 303 305 306 307 309 309 310 310 311 312 316 318 320 320 323 328 330 336 343 347 351 350 350 345 342 341 346 347 350 350 349 347 350 347 345 347 347 352 339 348
294 300 298 296 294 290 298 289 298 301 301 303 305 307 308 309 310 311 313 315 317 317 319 321 326 329 332 335 339 346 349 348 348 347 347 348 346 349 347 349 346 347 347 348 349 352 352 354 345
295 298 297 296 294 294 294 292 296 301 299 301 304 306 308 310 310 311 312 314 315 316 320 322 325 328 330 332 341 334 338 339 348 352 358 359 353 350 347 344 345 347 351 353 355 358 361 352 349
300 297 297 297 295 288 293 293 294 297 299 301 303 305 306 309 311 311 312 313 315 317 317 320 323 325 328 329 331 336 337 339 336 340 346 352 349 352 350 350 353 355 353 355 360 356 360 357 355
298 295 288 287 288 287 295 293 295 300 301 302 302 304 306 310 311 311 311 312 314 315 316 318 320 324 325 326 328 331 337 337 342 342 336 344 348 352 358 358 357 355 359 361 360 360 362 360 354
295 294 288 282 284 286 295 289 295 302 304 303 304 305 307 309 310 311 312 312 313 314 316 317 319 321 324 326 327 329 334 328 330 336 336 334 336 344 364 363 358 359 361 362 357 358 358 360 356
294 291 297 290 292 288 292 295 300 302 301 303 303 304 305 308 310 310 312 313 313 315 316 318 319 321 323 325 328 330 330 334 333 341 344 338 346 341 348 360 360 359 359 362 363 357 360 358 357
297 299 290 291 282 281 288 290 290 298 300 302 302 303 305 308 309 310 311 312 314 316 316 318 321 321 323 324 325 326 329 329 333 338 340 342 346 352 349 352 356 358 359 362 363 358 357 354 352
294 293 293 294 291 284 283 288 299 299 301 301 302 304 306 307 308 310 310 312 314 315 315 317 317 319 320 321 323 327 328 329 331 334 336 340 345 348 348 349 349 351 354 360 360 357 354 352 355
298 295 295 288 287 290 288 288 301 302 303 303 303 306 307 308 309 310 311 312 313 313 314 315 316 316 318 320 321 322 327 330 333 333 334 339 342 347 348 347 345 347 352 356 356 353 349 352 352

GFSSGP_sfc_thetae_066.txt.gz
Theta_e
330 327 327 317 306 307 304 308 316 312 312 316 317 316 316 317 315 316 338 341 352 348 357 361 365 366 366 365 364 363 361 362 362 362 362 362 363 363 362 361 360 359 355 353 351 348 344 341 337
324 325 323 315 304 301 304 313 312 313 314 316 315 315 314 314 325 328 334 345 353 351 357 358 365 365 366 365 363 362 361 362 362 362 362 362 363 362 361 360 360 357 354 350 347 344 341 339 337
324 326 314 310 304 301 304 310 310 313 315 313 313 317 316 320 326 329 336 343 354 353 355 360 364 365 365 366 364 362 362 362 362 362 362 362 362 361 360 360 358 356 351 348 345 343 342 341 339
322 320 317 305 303 307 308 313 312 312 314 314 315 312 320 327 327 332 338 343 351 354 351 360 363 364 364 365 365 363 362 362 362 362 362 362 362 360 359 359 358 355 352 348 347 346 344 343 340
321 316 307 305 304 308 312 314 312 311 312 313 314 312 318 326 328 329 339 343 343 354 352 358 362 363 364 365 364 364 363 362 362 362 362 362 361 359 359 358 357 355 353 350 348 346 346 345 343
310 314 303 301 305 310 312 313 313 311 314 314 313 313 318 327 326 327 337 342 343 348 354 359 361 363 362 363 362 363 362 362 362 362 362 361 360 358 358 357 356 355 353 351 349 347 347 346 345
308 308 304 304 305 308 312 314 311 311 313 314 318 313 320 322 325 327 335 343 343 346 354 357 355 362 362 362 361 361 360 360 360 359 359 359 358 357 357 356 355 354 352 351 350 349 347 347 346
311 309 304 305 305 306 314 313 313 312 313 320 321 313 315 323 325 326 329 341 342 343 352 356 352 355 359 360 360 360 360 359 358 358 358 357 357 356 355 353 354 354 353 352 350 349 348 348 347
313 303 301 303 304 308 314 313 316 317 315 317 319 319 321 324 324 323 325 338 339 340 351 352 349 353 352 354 359 359 359 358 358 357 357 354 352 351 351 350 351 353 353 352 351 350 349 348 347
307 303 302 307 309 309 313 313 315 313 313 314 317 322 323 323 322 320 320 325 337 339 344 347 349 350 350 346 356 356 357 356 356 354 355 353 350 349 344 348 352 352 352 352 351 350 349 347 336
306 303 307 308 310 312 311 312 316 313 310 314 314 319 322 322 322 320 320 321 334 340 341 346 350 352 349 345 354 350 351 351 352 352 353 352 348 351 346 349 345 347 350 343 346 345 343 337 335
302 306 307 308 310 309 309 313 312 314 315 318 319 319 320 320 322 319 318 319 327 342 339 348 350 352 353 348 352 348 347 348 349 349 353 352 350 349 352 347 346 346 345 341 340 338 338 337 338
304 305 308 309 309 309 310 309 310 311 318 320 320 318 318 321 320 323 323 322 335 335 344 345 352 354 353 359 352 349 344 347 348 349 352 353 347 352 354 355 350 348 347 343 341 340 342 342 341
305 305 306 307 307 309 306 307 309 311 316 315 315 316 317 318 321 322 324 325 333 341 351 346 349 361 356 361 366 363 346 349 349 350 351 352 354 350 355 354 355 350 351 347 345 344 345 344 341
305 301 303 304 305 305 307 302 303 310 313 312 312 314 314 316 319 321 323 327 332 332 343 348 353 357 351 358 361 361 361 355 349 351 354 353 355 358 354 352 349 351 350 352 350 348 348 344 343
301 301 295 302 304 305 304 297 305 309 309 308 309 311 312 313 317 322 322 327 333 330 334 342 344 354 355 355 356 358 359 359 354 352 356 355 354 356 358 350 349 350 352 351 346 346 343 341 340
299 293 296 298 304 303 302 298 304 308 308 307 309 310 310 312 317 323 322 326 330 334 333 341 349 352 352 355 354 356 354 357 355 356 355 356 356 353 354 349 348 354 350 348 347 346 343 341 342
294 295 297 297 302 302 300 299 303 306 307 306 308 308 310 311 314 320 324 325 329 334 337 338 348 353 354 351 352 352 351 351 354 349 350 354 352 353 352 351 351 354 347 344 347 344 344 342 343
298 297 296 300 304 301 300 300 302 305 306 306 307 308 310 311 314 320 322 324 329 334 337 339 339 354 350 349 344 344 343 345 344 345 348 348 352 351 351 350 348 352 344 343 345 344 343 343 346
298 296 296 299 302 301 300 298 302 304 306 307 308 308 309 311 313 315 319 323 327 331 333 333 338 338 350 347 345 341 343 344 345 345 344 346 348 349 349 348 346 346 342 343 339 341 341 342 341
296 295 295 295 299 301 299 296 299 303 305 307 308 310 310 311 312 314 316 322 324 328 329 331 333 338 339 345 349 342 340 345 343 343 344 342 346 345 347 347 345 347 345 339 339 346 345 337 342
292 299 298 297 294 290 299 288 297 301 302 304 306 308 308 310 313 314 315 317 323 323 328 332 334 330 331 339 339 340 343 335 337 338 340 342 344 342 342 346 346 345 343 339 342 345 343 341 338
294 300 297 296 294 293 293 290 294 300 299 301 304 305 307 309 310 311 313 316 319 323 326 328 331 334 332 331 336 337 337 340 339 348 344 344 343 342 343 344 346 342 342 343 343 345 345 343 342
300 296 296 296 293 286 291 291 292 296 299 301 304 305 307 308 310 312 315 317 317 321 321 328 329 329 331 332 332 334 336 336 336 338 338 341 342 344 342 343 342 343 340 339 345 347 347 353 347
297 293 285 283 285 285 294 292 295 300 303 303 303 304 306 308 311 312 311 312 316 318 321 322 324 329 332 332 333 332 333 336 336 336 336 335 336 343 344 343 342 341 345 346 347 346 354 353 349
295 294 287 280 282 286 293 289 294 302 304 305 305 306 306 308 311 312 314 314 313 318 321 320 322 327 329 331 333 333 333 331 331 333 332 333 333 338 347 348 347 344 347 349 351 352 349 352 352
295 291 297 290 290 286 289 294 300 302 302 303 303 304 305 307 310 310 312 315 316 319 322 322 322 326 328 329 333 336 335 334 330 332 335 332 334 339 341 342 352 352 352 354 354 349 345 349 353
297 299 290 291 282 280 286 288 290 297 299 301 302 303 305 307 308 310 312 314 316 318 321 325 325 324 325 327 329 327 332 335 333 333 332 334 336 337 338 343 348 357 354 354 355 353 353 353 352
294 292 293 293 291 283 282 287 298 298 301 301 302 304 305 307 307 309 310 313 315 318 318 323 322 322 324 325 326 328 329 330 335 333 331 332 335 337 338 339 343 346 354 354 353 352 354 352 352
297 295 294 287 286 290 289 288 301 302 301 303 303 305 306 308 309 309 310 311 312 313 314 316 321 320 320 320 321 324 325 328 332 334 333 333 331 333 336 340 341 345 345 346 348 350 353 350 348

GFSSGP_sfc_thetae_072.txt.gz
Theta_e
327 319 317 313 298 296 293 298 302 303 302 304 314 319 317 318 318 311 337 344 354 358 361 362 364 364 364 362 362 361 360 360 360 360 360 360 360 360 360 360 360 359 355 352 350 347 343 339 336
323 320 316 307 294 289 294 303 301 302 305 305 313 315 316 316 328 335 337 349 354 358 360 360 364 364 363 362 361 360 360 360 360 360 361 360 359 360 359 359 358 355 352 350 347 344 340 337 335
313 320 308 300 294 292 295 303 303 306 309 307 305 316 317 318 324 333 341 348 355 357 359 360 364 363 363 362 360 360 359 359 360 361 361 360 359 358 358 358 357 354 350 348 345 342 340 338 337
308 308 307 297 295 300 302 306 306 307 308 309 309 311 315 322 324 337 345 349 351 354 358 363 363 362 362 361 360 360 360 359 360 361 360 360 359 358 358 357 356 354 350 347 344 342 342 340 337
307 303 296 293 296 301 306 308 309 308 306 307 311 310 312 318 320 343 344 346 345 351 357 361 362 362 362 361 360 360 360 359 360 360 360 360 358 357 357 357 356 354 351 347 344 344 345 343 341
300 302 293 291 296 303 306 309 309 307 308 310 311 311 311 317 316 320 345 343 345 349 356 360 363 362 361 361 360 359 359 359 359 360 360 359 358 357 357 356 355 354 352 350 347 346 345 344 343
297 295 292 295 297 301 306 308 305 307 309 309 313 309 311 313 316 316 329 345 343 351 353 358 359 361 361 360 359 359 358 358 358 358 358 358 357 357 356 355 354 353 351 350 349 347 346 345 345
301 297 293 294 295 298 306 307 306 304 309 314 316 308 306 313 316 316 329 344 343 349 350 354 357 357 355 357 360 359 358 358 357 358 357 357 357 356 355 351 352 353 351 349 349 348 346 346 345
301 293 291 294 296 299 306 304 308 311 307 312 315 313 316 316 316 315 335 343 346 348 347 350 355 354 353 354 357 359 360 359 357 358 357 353 348 349 350 350 352 352 351 350 349 348 347 346 346
295 289 293 299 300 299 303 304 304 305 306 307 311 317 317 316 314 312 320 337 342 344 344 347 351 353 351 353 355 356 356 355 355 354 353 348 344 343 347 348 351 351 351 350 350 349 348 346 337
295 293 297 299 301 303 303 304 306 304 302 306 308 312 314 314 312 312 311 329 341 345 345 345 347 351 352 351 353 352 354 353 352 351 348 345 343 342 343 339 342 341 348 341 345 343 342 339 336
291 297 299 300 302 302 301 305 304 303 304 310 313 314 314 312 311 311 311 311 333 343 343 344 346 347 347 351 350 349 349 349 348 349 346 343 339 337 336 336 336 337 338 338 335 336 336 337 336
291 295 298 301 302 302 303 302 302 303 307 312 314 315 313 310 310 311 311 313 323 332 338 342 344 343 340 347 349 349 348 348 347 346 346 343 337 336 337 335 336 336 336 336 334 333 332 332 332
296 296 297 298 298 299 299 301 300 303 307 311 313 314 313 312 311 310 310 310 315 328 336 341 343 341 340 344 343 346 347 347 345 344 345 343 339 336 334 336 336 335 336 336 336 334 331 331 331
297 292 295 295 295 296 298 295 297 302 305 304 307 310 313 312 313 312 314 313 323 328 333 339 341 342 341 344 341 341 343 343 342 343 343 344 338 335 338 337 338 338 338 337 336 334 334 331 333
292 290 285 292 296 298 296 291 298 300 300 301 303 307 309 310 311 311 312 318 322 326 330 332 343 342 343 344 344 341 341 341 342 342 342 344 343 337 334 341 340 340 341 339 336 336 334 333 332
287 283 286 290 295 295 293 292 298 300 300 300 301 301 303 305 308 310 315 318 319 321 325 330 336 343 342 345 346 344 340 341 341 342 342 343 344 346 340 338 341 341 339 338 337 335 333 331 331
284 284 287 288 294 294 293 293 298 301 299 299 298 301 302 303 304 310 317 319 319 320 323 327 333 339 344 344 345 345 344 344 341 341 343 343 344 344 346 344 341 340 339 338 335 335 335 332 330
291 289 288 292 296 293 292 292 295 299 297 296 296 299 300 302 305 311 317 319 318 318 318 322 333 338 341 341 337 336 341 341 342 341 344 347 345 345 345 345 343 339 337 337 335 333 332 331 335
292 290 289 292 296 293 292 292 294 297 297 297 298 298 298 298 302 311 314 317 319 318 318 321 325 330 338 341 339 336 336 338 340 341 341 341 346 348 345 343 341 340 339 338 335 332 331 331 333
292 290 288 289 294 294 291 289 291 296 298 298 299 300 300 300 300 308 313 314 317 316 315 317 319 322 324 330 337 335 334 335 335 337 339 340 340 344 347 345 343 341 340 339 336 334 330 329 331
287 294 293 293 288 282 293 281 288 293 294 296 297 297 298 300 302 306 310 311 315 314 315 316 317 317 318 320 324 332 329 326 329 333 336 337 339 339 342 344 344 343 341 340 337 337 334 329 330
292 296 293 292 287 283 287 282 287 291 291 293 296 297 298 300 303 302 307 313 314 314 313 314 315 315 315 316 321 323 324 328 331 332 331 333 338 339 340 340 342 343 341 340 338 335 333 332 333
299 293 290 288 284 278 285 283 285 287 290 292 296 300 300 300 301 303 309 309 309 312 313 314 314 314 315 316 315 317 319 321 325 326 327 332 335 335 338 338 337 339 339 338 338 336 333 333 335
297 290 281 277 277 279 287 285 287 293 297 298 299 299 299 301 303 304 306 305 304 307 309 311 313 312 314 315 315 316 317 317 318 321 324 327 330 330 333 337 337 337 338 340 338 335 334 335 336
291 289 280 277 274 280 289 283 287 297 300 301 302 298 299 302 303 304 304 304 304 306 306 310 310 310 312 313 313 314 315 314 317 319 320 321 323 327 332 335 337 338 339 339 338 338 338 337 336
292 286 291 285 286 282 284 287 293 297 298 300 301 300 297 300 301 303 302 302 304 303 307 309 310 310 311 314 316 315 315 315 316 318 317 319 323 325 325 329 332 331 331 333 334 334 334 335 335
296 296 283 287 279 278 281 283 284 292 295 298 299 299 300 301 301 302 302 302 303 304 307 306 307 307 308 311 313 314 315 319 319 317 318 318 319 321 322 325 332 332 333 332 334 336 337 329 331
291 288 288 287 287 280 277 280 292 293 295 298 300 301 299 301 302 302 301 302 302 303 304 305 305 306 306 307 307 308 310 313 315 318 320 319 319 321 323 325 327 329 330 333 336 337 336 333 331
294 290 289 282 281 285 282 281 295 294 296 298 299 302 302 301 301 302 304 304 303 301 303 306 306 307 308 308 309 311 312 313 313 313 315 320 321 322 322 324 326 327 330 330 335 337 335 333 331

GFSSGP_sfc_thetae_075.txt.gz
Theta_e
323 317 316 311 298 296 292 295 300 301 301 310 316 316 317 318 316 309 337 345 355 355 359 360 363 364 363 362 361 360 360 360 360 360 360 360 361 361 360 360 360 359 356 353 350 348 344 340 338
321 316 313 305 294 291 294 299 300 300 303 305 309 312 314 315 329 334 337 351 355 356 358 359 363 363 363 361 360 359 359 359 359 359 360 360 360 360 360 359 358 356 353 350 348 344 341 338 337
309 317 306 299 292 291 295 303 303 306 306 305 307 315 316 316 330 335 342 352 355 355 358 359 363 362 362 360 359 358 358 359 359 359 359 359 358 358 358 358 357 353 351 349 346 342 341 339 337
306 307 305 296 295 299 300 304 307 307 308 308 310 309 313 318 318 334 348 353 354 355 357 361 362 362 361 360 360 359 358 359 359 359 359 358 358 357 357 357 355 354 349 347 344 343 342 341 339
305 302 295 293 296 301 305 307 309 307 306 307 310 307 310 315 337 344 347 350 351 354 356 360 362 361 361 360 360 359 358 358 359 359 359 358 357 357 357 356 354 352 349 346 343 343 344 343 341
299 300 292 290 296 302 304 307 308 307 308 309 308 308 309 315 328 340 344 345 350 353 356 357 361 361 360 359 359 358 357 358 358 358 358 357 356 356 356 355 354 353 351 348 344 344 343 344 343
297 294 292 292 296 299 304 307 305 306 306 306 311 307 309 311 313 337 342 341 347 352 355 356 358 359 360 359 359 358 357 357 357 357 357 357 356 356 355 354 354 352 351 349 347 345 344 343 343
299 294 290 293 294 296 304 305 303 305 307 312 316 307 305 310 314 324 342 339 343 350 354 354 355 357 355 356 359 358 357 357 356 357 357 356 356 355 355 351 352 352 350 349 347 346 345 344 344
301 291 288 292 295 298 303 300 305 309 306 309 311 312 314 314 321 335 338 341 344 346 351 352 352 354 353 354 356 357 358 358 356 356 356 353 349 349 350 349 351 352 351 349 349 347 346 345 345
295 289 292 298 300 298 301 300 300 302 303 304 306 314 315 314 314 335 337 338 341 342 346 350 351 352 349 354 354 353 354 353 352 352 352 348 345 344 347 348 351 352 351 350 349 348 348 346 335
294 291 294 297 299 301 300 301 303 300 299 302 304 309 313 311 311 328 337 339 341 343 346 348 349 350 348 349 352 352 353 352 352 350 349 344 343 343 343 339 342 340 347 340 344 342 340 336 334
291 295 297 297 299 300 298 302 301 302 303 305 307 310 313 311 309 312 324 336 341 342 343 348 349 348 347 347 350 350 350 350 349 350 346 342 339 336 336 334 333 334 335 336 335 336 335 335 336
291 294 296 298 298 297 300 299 299 301 305 307 308 309 312 310 309 309 313 325 341 340 342 345 348 348 348 349 349 348 348 348 349 348 345 342 337 335 334 332 332 333 333 334 333 332 332 332 332
293 294 295 296 296 296 296 299 298 301 304 305 306 310 310 310 310 308 308 315 334 339 340 343 345 348 347 347 347 347 348 348 347 347 346 343 338 332 332 333 332 333 334 333 334 333 331 330 330
295 291 293 293 293 294 296 293 296 300 303 303 303 305 310 311 311 311 310 314 327 330 336 340 343 345 344 347 346 346 347 347 346 345 345 345 339 334 332 332 333 334 334 334 334 333 332 330 330
290 289 284 289 293 295 295 289 297 299 300 300 302 302 304 306 311 311 311 311 318 326 334 338 343 342 341 344 345 344 345 345 345 345 344 344 342 337 334 333 334 337 336 336 335 335 333 332 332
285 281 283 287 293 293 292 290 296 299 298 297 298 300 303 305 308 310 311 314 325 327 331 336 338 339 338 340 342 342 340 339 341 341 341 342 343 339 334 335 337 337 337 337 337 335 334 331 330
282 282 286 286 291 291 290 291 295 297 297 297 298 298 300 301 304 307 310 315 320 323 327 332 339 338 337 341 341 340 339 341 340 339 340 340 342 342 338 335 334 338 337 336 335 334 333 332 330
289 287 286 290 294 290 291 292 293 295 295 295 296 295 298 300 303 306 313 316 317 319 323 328 334 338 341 340 338 338 337 337 339 341 341 341 341 342 342 341 340 338 338 337 337 334 333 331 333
290 287 287 291 294 290 290 290 293 294 295 295 295 295 297 298 299 309 314 315 315 315 317 324 332 335 338 339 338 336 335 336 339 339 341 345 343 341 342 342 341 341 338 336 335 332 330 330 333
289 287 288 288 292 292 289 287 290 294 296 297 297 296 297 298 299 305 312 314 314 313 316 322 326 328 329 334 335 332 332 333 333 334 335 337 343 346 343 342 341 341 340 339 337 334 331 330 330
286 293 292 290 287 282 290 281 288 290 292 294 295 295 296 298 299 301 311 311 313 314 313 317 320 319 320 326 330 331 330 327 329 330 334 334 338 338 344 344 343 341 340 338 337 337 335 331 330
292 296 291 290 286 282 285 280 285 289 289 292 294 296 296 296 298 299 307 313 314 312 311 313 314 313 314 317 319 323 324 328 329 329 329 329 333 336 337 339 337 340 340 340 338 335 334 331 330
298 293 290 286 283 277 284 282 284 288 289 291 295 299 300 300 299 299 303 311 311 311 310 311 311 311 312 313 317 319 319 318 322 323 325 326 329 331 334 336 336 337 335 332 332 338 335 332 331
294 289 279 277 277 279 285 282 286 290 294 296 297 298 298 299 300 298 305 309 311 309 309 311 310 310 312 313 312 313 314 315 316 317 319 321 324 327 329 332 333 333 335 337 338 338 336 333 332
290 289 280 277 277 279 287 281 286 294 298 298 299 297 297 297 297 300 306 310 311 309 309 310 309 308 311 312 312 313 313 313 314 315 318 318 319 323 325 328 331 334 336 337 337 336 335 334 334
290 285 293 284 284 280 281 286 292 296 296 298 298 298 297 297 299 299 300 301 305 307 307 309 309 307 310 312 311 311 311 311 312 313 314 316 318 323 323 322 325 329 331 334 334 333 334 335 336
292 294 285 286 277 276 280 282 284 290 293 296 296 295 297 299 300 300 300 301 301 301 306 306 309 308 309 309 311 313 313 313 313 313 314 314 316 317 319 319 322 326 328 328 328 330 332 332 332
287 288 290 288 285 276 274 280 292 293 295 295 296 298 297 299 300 301 302 302 301 300 301 304 305 306 305 308 310 312 312 312 315 315 314 314 315 315 317 320 321 323 324 327 329 332 333 334 334
292 289 290 282 281 285 282 280 296 296 296 295 296 299 301 300 302 301 302 303 303 300 300 302 303 302 304 306 305 306 306 308 309 310 311 313 315 317 319 320 322 323 324 324 324 326 330 333 331

GFSSGP_sfc_thetae_078.txt.gz
Theta_e
323 315 315 308 297 296 290 294 298 299 302 304 308 314 315 317 314 308 336 346 351 353 358 361 362 363 362 362 361 361 361 361 361 361 360 360 360 361 361 360 360 359 356 353 351 348 345 342 343
315 315 312 303 294 290 293 298 297 299 304 305 303 310 313 313 331 334 336 352 352 354 356 357 363 362 362 361 360 360 361 360 360 360 360 360 360 360 360 360 359 356 354 351 349 345 341 340 340
308 315 305 298 292 291 294 302 303 303 308 303 304 312 314 314 323 334 341 352 353 354 357 356 362 361 361 360 359 359 359 359 360 360 360 360 360 359 359 359 358 354 352 350 346 343 342 341 340
306 307 303 296 293 299 299 303 307 306 308 307 309 307 311 317 317 336 351 354 352 353 355 360 362 361 361 360 359 359 359 359 359 359 359 359 359 358 357 357 356 354 350 347 344 342 343 342 340
306 302 294 293 295 300 304 306 307 306 306 305 307 306 308 315 341 347 351 352 349 351 355 360 362 361 361 360 359 358 358 358 358 359 358 358 357 357 356 356 354 353 350 347 343 343 344 343 342
299 299 291 290 296 302 304 305 307 306 305 307 306 306 307 313 338 343 349 348 351 351 354 357 360 360 359 359 359 358 357 358 358 358 357 357 356 356 356 355 354 353 351 348 345 345 344 342 340
297 294 290 292 295 299 303 306 304 304 304 307 308 305 308 311 315 341 345 347 351 353 353 354 355 358 359 359 358 357 356 356 357 356 356 355 356 355 355 354 354 353 351 349 347 345 344 342 341
297 295 290 292 294 296 303 304 303 304 305 310 312 304 303 311 315 336 339 343 347 351 351 352 353 356 355 355 358 357 356 356 356 356 356 355 355 355 355 352 352 352 351 349 347 345 344 343 343
300 290 288 291 294 297 301 299 301 306 305 306 307 306 310 314 330 336 334 339 344 350 349 351 351 352 354 353 355 357 356 356 356 356 356 352 350 351 351 350 351 352 351 349 348 347 345 344 343
294 288 292 296 298 297 298 298 298 300 301 302 304 309 313 317 331 334 332 335 339 344 347 349 350 350 351 353 353 352 353 353 352 352 352 349 346 346 347 349 351 352 351 350 348 348 346 345 338
291 289 293 296 299 300 298 297 302 299 297 300 302 305 309 311 313 332 334 336 338 343 346 348 349 350 350 350 351 351 352 352 350 350 348 345 344 345 345 342 346 345 349 342 346 344 342 339 337
290 294 296 296 298 299 298 300 299 300 300 304 305 305 306 308 310 325 334 335 337 341 345 348 348 349 348 350 350 349 349 350 350 348 348 342 340 339 340 339 338 338 338 338 337 337 338 337 337
289 292 294 296 295 294 297 296 297 299 302 304 305 306 304 308 309 313 327 336 339 339 343 347 348 347 348 347 350 348 347 348 347 347 347 344 340 338 337 336 334 334 335 335 335 335 335 335 335
292 292 293 294 295 295 294 296 295 297 302 302 303 302 303 307 309 308 311 325 338 340 341 346 346 347 348 347 347 347 347 348 348 347 347 345 341 337 335 334 333 332 334 335 335 335 334 334 334
293 289 292 292 293 294 295 293 293 298 300 300 301 302 304 310 310 310 310 318 338 340 341 343 345 346 347 346 346 347 347 348 346 346 347 346 342 337 335 335 333 333 335 336 336 335 335 334 334
288 287 283 289 292 295 292 289 295 298 297 298 300 301 301 302 310 310 310 312 330 337 338 341 345 345 346 346 345 345 346 347 346 347 346 346 345 340 335 333 334 336 336 336 336 335 335 335 335
284 279 281 287 290 291 290 288 295 298 296 295 297 298 300 302 303 309 310 310 318 329 337 339 341 342 343 345 345 344 344 346 345 343 342 344 345 343 338 336 334 336 337 337 337 337 337 337 335
281 281 284 284 290 290 289 289 293 295 295 295 295 296 298 299 302 305 310 311 313 323 331 337 340 340 341 341 340 339 340 342 343 342 341 341 342 344 338 336 335 338 336 336 338 338 337 336 334
287 285 284 288 293 288 289 290 292 294 293 293 295 294 295 297 302 303 305 310 316 321 326 331 335 336 337 337 338 336 335 338 338 340 341 340 340 342 341 338 335 336 336 338 339 338 337 336 336
288 285 285 289 292 289 289 289 291 292 293 294 294 295 295 295 298 301 308 312 316 321 324 328 334 335 336 339 340 339 337 336 337 339 340 341 341 341 341 341 340 339 337 339 339 337 334 335 335
287 285 286 286 290 290 288 287 289 292 294 296 296 296 296 296 297 299 307 312 313 316 319 326 332 336 337 337 334 333 334 335 334 337 338 340 342 343 342 341 342 342 343 340 338 337 334 334 334
285 291 291 290 286 281 288 281 288 289 291 293 295 294 294 295 297 298 301 310 312 313 315 322 328 330 333 336 335 333 331 329 334 336 339 338 340 341 344 342 340 341 341 338 339 340 338 334 333
290 295 292 289 285 281 283 280 285 288 287 290 293 296 295 297 298 299 299 306 312 313 312 318 322 322 324 330 334 332 327 329 330 332 332 333 335 337 339 342 341 341 341 341 339 337 336 334 334
297 292 290 285 282 278 285 283 285 288 288 290 293 295 299 299 299 298 300 302 310 311 311 313 315 314 315 317 319 323 325 325 325 326 328 329 332 334 336 337 337 338 337 336 335 337 335 330 330
293 287 280 277 276 279 285 281 286 290 292 292 293 296 297 297 297 299 296 298 306 309 310 310 310 310 311 314 317 318 319 319 320 321 322 324 327 331 333 336 336 337 338 337 335 332 331 332 331
289 287 279 274 276 279 286 282 285 293 296 297 298 297 298 298 297 298 299 300 305 310 311 312 309 309 311 312 313 313 314 315 316 317 318 320 323 326 330 330 333 336 337 338 339 340 337 335 334
288 284 288 278 282 280 281 285 290 294 295 297 297 298 297 297 298 298 300 300 306 308 310 310 308 309 311 312 312 313 314 314 314 315 317 317 319 322 327 330 331 333 335 337 338 337 337 335 335
290 293 279 284 277 277 279 281 282 289 292 295 296 295 296 298 299 300 301 300 301 303 304 307 308 308 310 311 311 312 312 313 313 313 315 316 318 321 322 322 325 329 331 332 333 333 334 333 334
285 284 286 288 285 279 277 279 291 291 293 295 295 296 296 297 299 300 302 303 303 301 303 305 306 306 307 309 310 312 312 314 314 315 316 316 317 318 319 321 322 324 326 330 330 330 331 332 334
287 285 285 277 276 282 282 281 294 293 293 295 296 297 298 298 299 301 304 304 305 304 303 302 304 305 305 306 309 311 313 313 313 315 316 316 317 318 320 322 323 324 325 325 325 326 329 330 331

GFSSGP_sfc_thetae_081.txt.gz
Theta_e
326 317 323 318 307 306 301 303 307 308 309 313 312 322 322 324 321 318 346 350 351 357 362 361 363 363 364 364 364 363 362 362 362 362 361 361 361 362 361 361 361 360 357 354 351 348 347 348 351
318 320 320 313 303 299 302 305 305 310 313 313 311 316 320 320 332 339 343 351 353 359 362 360 363 363 363 363 362 362 362 362 362 361 361 361 361 361 361 360 360 357 355 352 349 346 344 344 345
313 319 314 308 302 297 300 306 308 312 314 314 313 318 319 320 324 340 347 352 355 358 361 361 362 362 362 362 361 361 361 361 361 361 360 360 360 360 360 360 359 356 353 351 348 344 345 344 343
313 316 313 304 300 302 302 307 311 311 314 314 314 313 317 320 321 339 352 353 354 357 359 361 362 361 361 361 361 360 360 361 360 360 360 360 360 360 359 359 357 356 352 349 346 345 345 344 343
314 312 304 302 301 304 307 310 311 310 312 312 313 311 315 320 346 352 353 353 351 354 357 360 361 361 361 361 360 360 360 359 359 360 360 360 359 358 358 357 356 355 353 349 345 345 346 345 343
308 309 300 298 300 305 308 310 310 309 310 313 311 311 315 324 343 351 354 353 352 353 357 359 361 360 359 359 359 359 358 358 358 358 358 358 357 357 356 356 355 354 353 350 347 346 345 344 344
305 303 298 299 300 302 305 311 309 308 309 310 314 310 315 319 328 350 353 353 352 353 357 359 358 360 359 358 358 358 357 357 357 356 357 357 356 356 356 355 355 353 352 350 348 346 345 344 343
306 305 297 299 297 298 306 308 309 309 308 314 314 310 310 316 332 349 350 352 351 352 355 356 357 356 355 357 358 357 357 357 356 356 356 355 355 355 355 352 353 353 352 350 348 346 345 344 343
305 300 296 297 298 300 305 304 308 310 308 310 311 312 314 319 331 342 344 348 348 349 354 355 356 356 354 353 355 357 357 357 356 356 356 353 350 351 352 349 353 353 351 350 348 346 345 344 343
302 298 297 301 303 302 304 304 305 304 305 306 308 313 315 317 332 333 339 340 344 345 350 353 355 354 354 351 354 354 352 352 354 354 355 353 351 351 347 349 351 352 351 350 349 348 346 343 338
299 297 300 301 304 304 303 303 306 304 302 306 305 310 312 313 315 333 336 339 341 345 348 350 355 356 354 351 353 352 352 352 353 355 356 355 352 350 348 346 346 347 349 343 343 343 341 340 340
297 300 301 302 303 303 301 303 301 303 304 308 309 310 311 311 312 314 331 339 341 345 347 351 353 354 354 353 352 352 351 352 350 351 354 352 350 349 348 345 345 347 344 344 343 340 342 344 343
297 298 300 302 301 301 302 300 301 302 306 308 309 309 310 311 313 316 322 337 344 344 347 350 352 354 353 355 352 352 351 352 351 351 352 350 348 348 348 346 344 343 343 342 342 340 342 343 344
298 298 299 300 301 301 300 301 301 303 307 307 308 309 310 311 312 315 318 328 343 345 347 349 351 356 354 354 356 353 354 353 353 351 351 350 349 348 345 346 344 343 342 341 341 341 343 344 344
299 296 297 299 300 299 301 298 298 304 305 305 306 308 310 311 315 318 320 325 341 347 348 350 352 354 355 355 356 354 352 352 351 351 353 351 351 350 347 344 343 342 343 344 343 344 345 344 344
296 295 293 298 297 299 298 293 301 303 303 303 305 307 308 310 311 315 320 323 332 347 349 350 350 352 355 355 355 354 353 351 351 351 352 351 352 351 348 344 343 344 343 342 343 344 344 344 345
293 290 291 294 298 298 297 295 300 305 304 303 304 305 306 309 312 316 317 321 324 341 349 349 351 350 353 354 353 354 356 353 352 351 351 352 353 351 350 347 345 346 342 341 342 343 345 345 347
289 290 290 291 297 298 296 296 300 302 303 302 304 305 305 306 309 314 315 318 325 331 346 348 349 352 351 351 352 350 352 351 351 351 350 353 352 351 349 349 347 346 343 341 341 344 347 347 347
293 291 291 295 298 295 296 297 299 302 302 303 304 306 306 307 311 311 313 314 319 326 336 346 347 350 349 346 345 345 345 348 348 348 351 351 351 353 353 349 350 347 346 344 343 343 345 344 347
293 292 292 295 297 296 297 296 300 301 302 303 304 305 307 308 310 312 313 315 319 324 331 340 347 349 348 346 348 346 346 347 346 347 348 350 350 350 351 352 349 347 344 345 344 344 342 345 346
294 292 293 292 296 298 296 294 297 300 302 303 305 306 307 308 308 310 313 314 320 323 329 335 344 348 347 348 348 348 346 346 344 345 345 347 348 347 348 348 348 347 345 342 345 346 346 347 342
291 296 295 294 294 289 296 287 295 298 300 301 303 305 306 308 309 309 313 314 318 323 326 331 338 344 345 347 346 344 341 340 342 343 344 345 346 346 347 348 348 349 349 348 348 347 347 343 340
294 298 297 296 294 292 292 289 293 298 296 299 302 304 306 307 308 310 311 313 315 320 326 329 337 342 346 347 349 345 345 346 346 345 346 349 348 348 347 348 348 345 346 345 341 332 330 327 329
300 297 297 294 293 285 291 290 290 294 297 299 301 303 304 307 309 310 312 313 313 316 323 327 333 340 345 346 347 347 346 345 342 344 343 344 346 347 348 346 340 336 334 337 338 332 331 330 327
298 294 286 284 285 283 291 289 291 297 299 300 301 303 306 308 309 309 310 312 313 313 318 324 327 334 337 343 346 347 346 345 344 344 342 343 342 343 346 347 345 341 339 342 339 334 329 329 328
295 292 285 278 280 283 290 285 290 299 302 303 304 305 306 308 309 309 310 311 313 314 313 320 324 329 332 332 334 335 336 335 337 340 337 338 339 341 346 346 346 346 345 345 341 337 334 334 335
293 290 295 288 288 283 286 290 296 299 301 302 303 304 305 306 308 310 312 312 312 316 316 318 321 326 325 325 327 328 330 330 329 333 334 332 335 335 338 341 342 343 346 345 345 341 341 342 343
296 298 287 289 278 277 284 286 288 294 297 300 301 302 304 306 307 309 310 312 313 313 317 318 320 321 323 323 325 324 327 328 329 329 330 331 332 332 334 337 337 337 339 342 345 343 344 343 342
293 291 292 290 285 280 279 285 296 296 298 298 300 302 302 303 305 307 309 312 314 315 314 317 318 316 316 321 323 324 326 327 327 327 329 329 330 330 331 331 331 333 335 338 339 338 337 336 337
293 291 291 285 282 286 285 284 297 300 299 300 301 302 303 303 304 305 307 309 311 312 315 315 317 319 318 317 318 321 324 325 326 326 328 329 328 330 328 329 329 330 330 333 332 330 330 329 328

GFSSGP_sfc_thetae_084.txt.gz
Theta_e
332 326 327 324 311 312 310 311 315 313 313 317 319 325 324 327 325 323 350 351 348 353 361 362 364 366 366 366 365 364 362 362 361 361 361 361 362 363 362 362 361 361 358 355 352 351 350 352 353
324 324 325 319 308 306 310 313 313 314 317 319 318 321 324 324 333 342 346 350 352 356 364 361 364 365 366 365 364 363 362 362 361 361 361 362 362 362 362 361 361 358 355 352 349 347 348 350 353
322 323 317 313 309 306 310 311 313 315 318 318 318 323 324 324 331 342 351 350 353 359 363 363 363 364 365 364 363 362 362 362 362 362 362 361 361 361 361 361 360 357 354 351 348 346 346 347 348
320 320 318 307 305 309 309 313 314 315 318 319 319 317 324 329 333 343 351 351 354 357 360 362 362 363 363 364 363 362 362 362 362 362 361 361 361 360 360 360 359 357 354 350 348 347 347 345 345
320 317 308 306 307 308 311 313 314 313 316 316 318 315 321 334 352 353 351 352 351 354 358 364 362 362 363 363 363 362 362 361 361 361 361 361 360 360 359 359 358 357 355 350 346 346 347 346 345
311 313 305 303 306 308 311 314 314 313 314 316 316 316 320 327 333 352 352 352 352 353 356 361 361 361 361 361 361 361 360 360 361 360 360 360 359 359 359 358 357 356 354 351 347 347 347 346 345
308 308 304 306 307 306 310 314 313 313 313 313 317 314 320 321 326 345 355 355 352 351 354 359 358 360 360 359 360 359 359 359 359 358 358 358 358 358 357 357 356 355 353 351 349 347 346 345 344
310 308 304 304 303 303 310 310 314 313 312 317 317 314 316 321 328 337 352 353 351 350 351 355 358 356 355 356 359 359 358 358 357 358 358 357 357 357 356 354 354 354 352 351 349 347 346 344 343
311 303 300 302 300 303 308 307 313 314 311 313 315 316 318 321 327 334 343 350 349 347 349 354 356 358 355 351 355 357 358 358 357 357 357 354 353 354 353 350 354 353 352 350 348 347 346 342 342
306 302 302 306 306 305 307 308 309 308 309 310 312 316 318 319 319 324 331 339 347 346 346 351 357 357 355 350 355 354 352 353 354 353 356 354 353 351 346 349 353 353 351 348 348 347 344 341 336
306 302 306 306 308 309 307 306 309 307 306 310 310 313 316 317 319 317 321 333 341 349 348 350 357 360 357 352 353 352 351 351 351 352 354 355 351 350 347 346 346 346 348 342 342 342 340 338 338
301 305 306 306 307 306 305 308 307 308 308 312 313 314 314 315 317 318 318 322 337 345 348 351 354 359 360 354 353 353 350 350 349 350 355 355 351 350 347 343 343 345 342 342 342 339 341 343 344
303 304 305 307 307 306 307 305 305 307 310 312 313 313 313 315 316 319 321 322 331 341 348 351 354 358 358 358 354 355 352 350 350 349 355 354 352 349 346 345 344 344 342 342 342 340 341 345 349
304 303 304 305 306 306 304 305 306 307 310 310 311 312 313 314 316 318 319 321 324 334 346 352 353 360 359 358 360 358 358 354 351 347 350 355 352 352 346 347 345 343 343 342 341 340 341 347 349
304 300 303 304 305 304 306 302 303 309 310 308 309 311 312 313 315 317 321 324 327 332 345 350 354 357 360 358 358 357 355 353 351 349 355 353 354 353 352 345 344 342 345 347 345 344 344 346 347
301 301 298 303 303 304 302 297 304 307 307 307 309 310 311 313 315 317 319 322 325 331 341 352 352 355 361 361 358 357 354 353 352 351 351 354 353 352 350 344 345 344 345 343 340 340 342 346 346
300 295 296 297 303 302 302 299 304 307 307 307 309 310 310 312 315 317 319 321 324 328 336 347 357 355 358 360 357 359 362 355 352 352 351 355 354 352 350 345 344 350 343 342 341 341 344 343 346
295 295 296 296 301 302 301 301 304 307 307 307 308 309 310 311 313 316 318 321 324 327 336 343 350 357 360 358 359 354 353 354 353 353 352 354 355 354 354 348 350 350 344 341 341 346 342 343 343
297 296 296 299 302 301 300 301 303 306 307 307 308 309 310 311 314 317 318 321 323 327 329 336 349 357 358 355 352 351 349 351 352 352 357 355 355 354 355 351 352 353 349 350 350 345 345 338 345
298 296 296 300 302 301 300 300 304 306 306 307 308 308 310 311 313 315 317 319 322 326 329 333 344 354 357 354 354 352 351 349 350 351 354 355 354 354 355 356 353 356 349 353 352 350 340 339 344
298 296 297 296 300 302 301 299 302 305 307 308 309 310 310 311 312 314 315 318 321 324 328 331 338 349 359 360 356 354 352 351 348 350 349 353 353 353 354 357 354 355 352 346 353 350 347 334 344
295 300 298 297 297 293 301 291 299 303 303 306 307 309 310 311 312 314 315 317 319 321 325 330 334 342 351 358 355 354 347 345 346 349 349 351 352 350 351 355 352 352 349 349 348 348 348 346 343
297 301 300 299 297 297 297 294 298 302 300 303 306 307 308 310 312 313 315 318 320 322 323 327 334 337 344 352 356 351 349 347 347 348 356 356 353 352 349 351 352 352 350 353 351 351 347 344 338
302 300 300 300 298 291 296 294 296 297 299 301 305 307 309 312 313 315 317 318 319 322 322 324 330 336 341 347 352 355 354 351 345 349 347 347 347 349 351 350 350 352 349 350 349 346 344 338 336
301 298 291 289 290 289 295 292 294 300 302 304 304 307 310 312 313 314 315 316 317 319 322 324 324 331 340 344 347 348 351 354 353 352 349 349 345 347 354 352 352 350 351 348 345 344 343 338 336
298 298 290 283 285 288 293 288 294 302 304 306 307 309 310 311 313 313 315 316 317 318 320 324 322 325 334 345 346 347 349 350 350 351 347 346 342 346 355 355 354 353 349 346 344 342 340 337 335
297 293 299 291 291 287 290 294 299 302 302 304 305 307 308 310 312 313 315 316 317 319 320 322 324 324 328 338 346 348 351 352 349 353 352 346 350 344 349 352 352 352 351 350 350 344 343 342 340
297 300 291 293 282 281 287 289 291 297 299 302 303 304 307 309 310 312 313 314 317 319 320 322 325 325 326 332 338 340 342 341 338 339 339 338 338 338 339 342 346 347 347 348 350 350 348 345 341
296 293 294 293 292 284 282 288 298 297 299 301 303 303 306 308 309 310 311 313 315 316 317 321 320 323 325 328 331 331 330 331 332 332 333 333 336 336 334 336 338 340 342 345 347 348 346 343 344
297 294 295 289 287 289 288 288 300 301 303 304 303 305 307 309 309 310 310 311 311 312 314 317 320 319 322 323 326 326 328 329 330 330 331 332 333 333 332 332 332 333 336 340 340 339 339 339 338

GFSSGP_sfc_thetae_087.txt.gz
Theta_e
333 330 328 324 313 315 312 315 320 316 316 320 321 322 324 326 327 326 350 349 349 358 361 364 366 367 367 365 365 364 362 362 362 362 362 362 362 363 363 363 363 361 358 355 353 352 351 352 353
326 326 325 319 311 308 310 318 316 318 320 321 320 321 322 325 333 343 347 347 350 358 362 361 365 366 367 367 365 363 363 362 362 362 362 362 362 363 362 362 361 359 356 353 351 350 350 352 353
325 325 317 314 311 308 309 316 318 319 320 320 320 324 325 326 332 343 352 349 352 358 360 363 365 366 366 366 365 363 362 362 362 362 362 362 362 362 362 362 361 357 354 351 348 347 349 351 353
321 320 318 309 308 313 313 319 319 317 320 320 321 319 328 342 341 348 351 350 354 356 357 363 364 365 365 366 365 363 362 362 362 362 362 362 362 362 361 361 360 358 353 350 348 346 346 345 346
321 317 310 308 308 313 316 317 318 317 319 319 319 319 324 336 350 351 349 351 351 353 358 364 363 364 364 365 364 364 363 362 362 362 362 362 361 361 361 360 359 357 354 350 346 344 345 345 343
313 315 306 306 309 312 315 317 317 317 318 320 318 317 323 330 341 350 350 350 351 351 356 364 363 363 363 363 363 363 362 362 362 361 361 361 361 360 360 360 358 357 355 351 346 344 343 344 343
309 310 306 308 309 311 314 318 315 316 317 317 321 315 323 324 329 346 351 351 351 351 352 360 358 362 362 362 361 361 361 361 361 360 360 360 360 359 359 358 357 356 355 352 348 345 343 342 341
311 310 306 308 307 309 315 316 317 316 315 320 319 315 319 324 329 336 349 350 350 350 351 354 356 355 357 361 361 360 360 360 359 359 359 359 358 358 357 356 356 355 353 351 348 345 343 342 342
314 304 302 304 307 310 314 313 315 319 315 316 318 318 322 323 324 330 339 346 347 346 349 353 353 354 354 352 358 359 359 359 358 359 359 356 354 355 356 352 355 354 352 350 348 346 345 343 344
308 303 303 308 309 309 310 311 313 314 313 314 315 318 321 321 322 322 327 336 343 344 346 349 356 355 354 349 356 355 357 358 359 358 359 355 354 354 349 351 355 353 350 349 348 346 344 341 334
308 303 307 308 309 310 310 309 312 310 308 312 313 316 318 319 321 321 321 324 334 346 347 347 357 360 356 351 352 352 350 352 353 355 358 358 352 353 347 347 346 348 349 342 342 340 338 336 336
304 308 308 309 309 309 306 309 308 309 310 314 315 316 316 317 318 320 322 323 325 337 348 350 353 359 364 353 350 353 349 352 349 349 357 357 352 356 353 343 346 348 340 341 341 336 344 343 340
306 308 309 309 309 309 309 307 307 308 312 313 314 315 314 315 317 320 323 325 326 329 344 350 354 361 363 365 354 355 352 351 350 349 354 354 351 355 350 349 345 343 340 341 342 342 344 342 342
308 308 308 309 309 309 306 306 307 309 312 311 312 313 314 315 316 317 319 323 326 328 336 346 351 363 363 361 364 360 361 354 353 350 351 357 355 357 348 349 344 343 342 341 343 344 341 341 344
307 304 305 307 308 306 308 304 305 310 312 311 311 312 314 315 317 318 320 323 326 328 332 339 353 360 366 366 365 359 355 354 352 350 357 358 361 361 354 347 345 344 347 357 351 349 344 341 344
303 304 299 306 307 307 305 299 307 311 309 309 310 311 312 313 316 318 320 322 325 327 331 341 344 356 367 365 362 358 358 356 355 352 352 357 357 359 357 346 347 347 347 344 344 343 338 338 341
302 298 299 302 307 305 303 301 306 309 309 309 310 311 312 313 315 319 319 322 324 327 331 334 353 352 362 365 363 361 363 358 356 356 352 355 353 353 353 349 349 355 346 343 343 342 343 341 344
298 298 299 299 303 304 302 302 306 309 309 309 310 311 312 312 314 318 319 321 323 327 337 338 341 360 366 361 363 359 358 359 358 356 354 357 353 353 352 349 346 351 345 344 344 347 344 341 340
301 300 299 302 304 302 302 303 305 308 309 309 310 311 312 313 316 318 319 321 322 327 332 341 344 346 359 356 354 355 352 356 357 357 360 359 358 357 354 351 351 352 347 346 351 346 348 341 347
301 299 298 302 304 303 302 302 306 308 309 310 310 311 312 313 314 316 318 320 322 328 334 335 337 348 354 357 357 357 356 357 357 358 359 360 360 359 357 356 350 353 348 352 353 350 342 340 345
299 298 299 299 302 304 302 301 304 309 310 310 311 312 313 313 313 315 316 319 320 322 331 332 341 343 348 359 357 359 359 357 353 354 356 356 357 357 358 357 356 356 353 348 355 356 350 341 343
297 303 301 299 299 295 304 293 302 306 307 308 310 311 312 313 314 315 316 318 321 322 325 331 336 342 342 349 353 355 350 349 352 353 353 356 358 356 357 358 358 358 356 353 356 355 353 350 342
300 304 301 301 299 299 299 297 301 306 303 305 307 309 311 312 313 315 316 318 320 322 324 330 336 338 342 347 353 351 353 351 351 353 355 357 357 357 355 357 359 358 355 356 356 355 353 349 343
304 302 302 302 300 293 298 298 298 302 302 304 307 309 310 312 314 316 317 319 319 321 322 324 331 336 340 342 345 352 351 352 348 351 349 351 352 356 356 355 357 358 355 355 354 355 355 350 349
303 300 293 292 291 291 299 295 298 302 304 305 305 308 311 313 313 314 315 316 317 319 321 323 324 329 333 338 342 348 351 354 351 351 349 349 350 351 353 356 356 353 357 357 357 355 353 350 344
300 300 294 286 288 292 299 292 298 303 306 307 307 309 311 311 312 313 314 316 317 319 321 322 323 326 329 332 339 347 350 351 353 352 348 349 346 351 358 356 358 356 355 353 352 348 348 347 341
298 295 301 295 295 290 293 297 302 304 304 305 306 306 307 309 311 312 313 315 316 317 320 321 323 323 328 329 336 346 348 348 348 353 350 350 350 342 353 355 357 355 353 354 354 348 348 348 348
300 302 294 295 285 285 290 292 293 299 300 303 303 305 306 308 309 312 313 314 316 317 318 320 322 323 325 329 330 334 342 347 349 351 343 343 345 349 350 354 355 354 355 354 355 349 348 346 343
297 296 296 296 294 286 285 290 300 300 302 302 304 306 307 308 309 311 312 314 315 316 316 318 319 321 322 325 328 332 335 340 342 338 334 340 346 347 346 346 347 348 350 353 351 351 348 347 346
299 296 297 291 290 292 291 290 303 302 303 304 304 306 308 309 310 311 311 313 313 314 314 315 317 318 321 322 325 328 331 334 337 336 330 337 338 340 336 338 337 338 339 345 343 343 343 342 342

GFSSGP_sfc_thetae_090.txt.gz
Theta_e
328 326 327 323 310 312 309 312 318 317 317 321 321 319 320 328 328 325 347 351 355 357 363 365 365 365 365 364 364 362 362 362 362 362 362 362 363 364 363 363 362 361 359 356 354 352 352 354 354
323 323 323 316 307 305 308 316 315 319 319 321 320 320 319 323 337 342 343 353 356 359 362 364 366 365 365 364 364 362 362 362 362 362 362 362 363 363 363 362 362 360 356 354 352 351 352 353 353
321 322 314 310 308 305 308 317 318 319 321 320 319 323 326 329 336 346 347 354 357 358 362 365 366 365 365 365 364 362 362 362 362 362 362 362 362 362 362 362 361 358 354 351 350 351 353 354 353
319 318 315 306 305 311 313 318 321 319 320 321 321 320 333 342 342 348 347 351 355 354 357 363 365 365 365 365 364 362 362 362 362 362 362 362 362 362 361 361 360 358 355 351 350 350 351 352 352
319 314 306 305 306 312 316 319 321 317 319 319 320 321 325 342 348 347 347 350 351 352 361 362 365 365 366 366 364 363 362 362 362 362 362 362 362 361 361 361 360 357 355 353 350 348 347 346 346
310 312 303 302 307 311 315 319 318 317 319 320 318 319 321 334 345 346 348 348 349 351 361 361 364 364 364 364 364 362 362 361 361 361 361 361 361 360 360 360 359 357 355 352 349 347 346 345 345
308 306 303 305 307 310 313 318 315 315 316 317 321 315 321 325 332 347 347 348 348 351 360 359 357 362 363 363 362 362 361 361 361 360 360 360 360 360 360 359 358 357 355 353 350 347 346 345 343
310 308 303 306 306 307 316 317 317 316 315 321 320 314 316 322 327 335 346 347 347 348 357 357 357 357 360 361 362 361 361 361 360 359 360 360 359 359 359 356 357 356 355 352 349 347 346 345 344
313 303 301 304 306 309 315 314 319 318 315 317 318 318 320 323 323 325 336 343 344 346 350 354 353 356 356 356 361 361 361 361 360 360 360 357 355 355 355 354 355 355 354 351 349 347 346 345 345
306 302 302 308 309 308 310 311 315 313 313 315 316 319 320 321 321 321 322 333 341 342 345 352 354 353 353 350 359 359 359 359 359 358 359 356 355 354 351 352 355 355 353 352 350 348 346 344 334
306 302 306 307 310 311 309 309 312 310 308 314 314 315 319 319 322 323 321 321 324 344 345 348 354 356 352 350 358 355 357 358 359 358 359 357 354 354 350 351 348 349 351 345 346 343 339 335 334
303 306 307 308 309 309 307 309 307 309 309 314 314 315 316 316 317 318 320 322 324 329 341 351 356 358 357 352 354 352 350 353 354 356 358 356 354 352 350 347 345 346 345 339 339 336 336 335 339
305 306 308 309 309 309 309 306 306 307 311 313 314 314 313 315 317 319 321 322 328 332 335 343 359 358 360 363 357 354 349 350 350 352 353 354 351 352 353 346 347 344 341 339 339 337 337 341 342
308 307 307 309 308 308 306 306 307 308 311 310 312 312 313 314 316 318 321 321 330 336 336 345 355 362 361 357 360 364 355 351 350 350 349 352 353 351 348 351 346 344 339 340 338 342 344 343 342
308 303 306 306 308 306 308 303 304 309 311 310 310 312 313 315 316 318 323 327 326 329 345 339 342 365 362 361 358 358 358 355 352 350 353 350 351 352 351 347 349 346 343 346 342 344 346 344 341
303 304 298 305 306 307 306 298 306 311 310 309 310 311 312 314 315 318 321 327 336 337 335 341 339 351 364 362 361 358 359 355 353 350 350 351 350 354 352 346 344 347 350 349 349 345 343 340 339
301 296 298 301 307 306 304 300 307 310 309 308 310 310 311 313 318 319 322 325 333 336 339 340 343 349 364 363 362 361 359 360 357 356 349 353 350 352 354 346 343 347 348 345 343 344 341 338 339
296 297 299 299 304 305 302 301 305 308 308 308 309 310 312 313 316 322 325 323 329 334 335 340 341 345 351 362 362 361 358 356 357 353 352 349 353 352 353 348 347 346 341 340 340 338 339 338 341
302 300 299 302 305 302 302 302 304 307 308 308 309 311 312 314 318 321 324 326 329 330 338 338 339 344 343 353 353 354 354 354 354 355 353 351 352 352 350 348 346 349 340 341 342 342 341 336 343
301 298 298 302 304 303 302 301 305 307 308 309 311 311 312 314 316 319 323 334 332 332 336 341 343 345 348 347 352 354 354 355 353 355 354 354 352 350 349 345 344 344 342 339 344 340 336 339 341
300 298 298 298 302 304 302 299 302 307 309 311 312 313 312 314 316 319 321 325 329 329 331 333 339 344 348 348 340 350 355 355 352 352 352 352 353 351 350 348 346 344 343 340 340 344 337 333 336
296 302 301 300 298 293 302 292 301 305 306 309 310 312 311 313 315 316 318 321 324 325 329 335 339 342 336 342 342 338 342 345 348 350 352 353 352 353 353 352 349 347 347 342 344 343 341 340 336
299 304 302 300 298 298 298 294 299 305 304 306 308 309 310 312 314 315 317 320 322 326 330 335 337 335 336 337 341 336 335 342 348 351 349 350 352 351 351 353 352 349 351 346 347 345 349 344 339
305 301 301 301 298 291 296 296 297 301 302 304 307 308 310 311 313 314 317 321 322 323 322 328 332 335 335 333 334 335 339 337 343 345 346 347 349 351 351 353 353 353 350 351 349 351 350 348 345
303 299 291 290 291 290 300 296 299 303 304 305 305 307 309 311 312 313 314 315 318 319 323 322 324 328 334 333 331 332 333 339 342 343 345 345 345 347 349 351 351 351 352 350 351 350 350 348 345
300 299 292 286 288 291 298 292 298 304 306 308 308 309 310 310 310 312 314 316 314 318 321 321 323 324 327 328 329 331 333 336 340 344 344 343 343 345 349 348 348 349 350 350 351 348 349 349 346
298 294 301 294 295 291 294 297 302 304 304 306 306 307 307 309 309 310 312 315 316 318 320 322 321 323 324 327 327 330 331 333 338 343 345 344 345 343 336 338 332 341 345 347 348 347 346 347 345
300 302 293 294 285 284 290 292 293 299 301 303 303 304 306 308 309 311 313 315 318 319 319 323 324 323 324 326 325 325 328 333 336 340 341 342 344 336 327 331 324 322 342 343 345 345 345 344 342
296 295 296 296 294 286 284 289 301 300 301 301 303 304 306 307 308 310 311 313 315 316 316 319 321 320 319 320 323 325 326 328 330 334 338 340 324 318 319 322 326 324 333 339 340 342 344 342 342
300 296 298 291 289 292 291 290 304 304 303 304 303 305 306 308 309 309 311 313 313 313 314 315 318 317 316 318 318 323 324 325 327 329 333 324 321 318 319 327 323 321 328 331 335 339 342 341 340

GFSSGP_sfc_thetae_093.txt.gz
Theta_e
329 319 319 314 303 301 299 305 313 312 315 313 316 314 324 330 328 321 347 355 358 359 362 362 364 364 364 363 363 362 362 362 362 362 362 363 363 362 362 362 362 362 360 357 354 352 353 354 354
321 319 315 309 298 293 299 310 310 312 317 316 316 319 324 328 337 338 345 356 358 359 360 360 364 364 364 363 362 361 362 362 362 362 362 363 363 362 362 361 361 360 356 354 352 352 354 354 354
321 317 305 301 297 296 299 309 315 316 319 317 314 326 329 328 341 341 351 357 358 357 360 361 364 363 364 364 361 361 361 361 361 362 362 363 362 362 361 361 360 359 354 352 351 352 354 354 353
313 311 306 296 295 302 306 310 314 318 318 318 318 325 335 341 341 345 354 357 354 356 361 364 364 363 364 364 362 361 361 361 361 362 362 362 362 361 361 360 359 358 355 351 351 354 354 355 355
309 307 297 294 297 305 309 314 316 316 317 315 323 323 330 340 343 344 352 354 351 355 360 363 364 363 364 364 362 362 361 361 360 361 362 362 360 360 360 360 359 357 356 353 351 350 349 349 349
301 304 294 293 299 306 310 313 315 316 315 317 317 318 322 341 341 341 349 350 350 356 358 360 364 364 363 363 362 361 360 360 360 360 361 361 360 360 360 359 359 357 355 353 350 348 346 345 344
299 296 294 297 300 305 310 314 311 311 312 312 318 313 315 320 339 343 342 347 355 357 356 357 360 363 364 362 361 361 360 360 359 359 359 359 359 359 359 358 357 356 354 352 349 346 345 343 342
302 298 295 299 300 302 310 315 315 311 313 318 319 310 308 315 319 337 341 343 355 356 355 354 356 359 358 360 362 361 360 359 358 359 359 359 358 358 358 355 356 356 354 351 349 346 344 343 342
306 295 294 297 300 304 310 311 316 317 312 315 314 315 316 318 318 317 328 341 352 355 352 351 354 354 355 357 360 361 362 360 359 359 358 356 354 354 356 354 356 356 354 351 349 346 345 344 344
299 295 296 303 305 305 307 307 311 311 310 311 314 317 319 317 314 313 313 322 330 350 350 350 351 352 352 358 357 355 358 356 356 356 355 353 350 351 353 353 355 355 354 352 350 347 346 345 332
298 295 300 304 307 308 306 306 307 305 303 307 309 311 313 313 311 312 312 313 319 333 349 349 350 350 349 349 355 355 355 354 354 353 353 351 350 351 350 346 350 347 351 344 346 342 338 332 329
294 301 302 302 306 306 303 307 308 306 304 309 310 311 312 311 310 311 312 315 313 316 339 348 349 348 346 346 353 353 353 353 353 352 353 351 348 346 346 344 344 343 343 338 336 334 333 330 328
297 300 303 304 303 301 305 303 304 304 308 310 311 311 310 309 309 310 311 313 314 316 344 349 351 345 345 347 351 350 350 352 352 352 353 352 349 346 344 343 341 341 339 336 331 331 331 329 328
300 301 302 303 303 301 302 303 303 305 309 308 308 308 307 309 309 309 311 311 311 316 335 348 347 345 344 348 349 348 346 348 349 350 352 353 351 347 345 341 340 339 338 336 331 332 330 329 331
303 297 300 301 300 300 303 299 300 306 307 306 306 306 308 310 311 311 314 314 315 313 322 343 337 337 340 350 351 352 347 345 346 346 348 349 349 344 346 343 341 341 338 335 332 330 334 332 333
297 296 290 298 301 302 301 292 303 306 305 305 306 307 308 308 309 310 311 313 321 320 322 325 334 349 351 353 351 351 353 349 346 345 346 347 347 346 344 343 342 340 339 335 334 331 333 336 333
293 287 290 295 300 300 297 294 303 305 304 304 305 306 308 307 310 311 312 311 317 316 317 318 323 333 348 352 354 352 350 350 348 346 345 346 346 347 345 345 342 340 338 336 338 333 333 333 330
290 290 292 293 299 300 295 296 301 303 303 303 303 305 306 307 308 312 313 313 313 317 319 318 318 318 329 327 349 354 352 349 351 349 347 345 345 344 347 347 342 339 339 336 335 334 334 333 332
296 294 293 297 300 298 296 295 298 301 301 301 302 303 304 306 308 310 314 314 314 317 315 317 318 321 326 329 335 345 343 347 347 349 348 344 347 345 344 348 343 341 338 337 334 331 331 330 333
297 294 293 297 301 296 296 295 299 300 301 302 302 303 304 304 307 310 312 316 317 317 320 324 324 329 332 333 334 340 344 348 350 350 349 348 346 348 345 345 345 342 341 336 336 335 332 332 331
295 293 294 294 298 298 296 293 296 301 303 304 305 305 305 305 307 310 313 314 314 315 317 320 324 325 325 326 331 325 334 342 342 344 346 348 348 348 348 346 344 343 341 338 336 336 333 330 333
291 299 298 297 294 287 297 284 294 298 300 303 303 303 304 306 308 309 309 310 311 314 317 321 320 320 321 324 323 322 323 325 330 340 344 347 349 348 347 345 344 342 342 339 337 337 335 332 329
295 301 299 297 292 290 292 287 291 297 298 300 301 304 304 305 306 307 308 311 313 314 313 318 319 317 323 320 321 322 321 324 327 333 338 342 345 348 347 347 344 342 341 341 339 336 337 334 330
303 298 297 295 290 283 291 289 290 295 298 299 301 303 305 306 307 307 309 310 310 312 313 313 313 316 320 321 320 320 319 321 323 326 329 336 342 344 346 346 346 344 343 340 340 338 336 337 334
298 291 283 282 282 283 295 292 292 300 301 302 300 303 304 305 304 305 303 306 307 310 311 312 312 313 317 319 320 320 320 321 322 324 327 331 338 340 341 344 343 346 345 344 344 340 339 338 337
296 294 288 280 281 285 295 289 296 301 303 303 304 303 304 302 302 303 303 305 306 306 308 310 309 311 314 314 317 317 318 322 323 325 328 330 334 340 341 342 343 343 345 346 344 343 343 340 342
295 291 296 288 290 284 288 293 299 302 301 302 302 302 301 303 303 303 303 303 307 307 309 310 310 310 313 314 316 314 317 318 320 324 327 329 333 338 339 333 334 338 342 343 334 325 324 338 342
297 299 289 289 281 279 287 289 291 295 296 298 297 296 298 300 301 301 304 305 307 308 308 308 310 311 313 313 314 315 316 318 318 321 323 326 330 328 322 324 325 328 328 328 330 327 324 322 333
295 291 293 293 291 279 279 286 298 295 296 295 296 298 298 298 300 302 303 304 305 306 306 307 308 310 310 310 309 311 313 316 318 317 320 325 324 318 319 322 324 325 323 326 321 322 324 322 322
300 293 294 286 285 287 285 286 301 300 297 297 297 298 298 298 301 301 302 303 304 305 307 306 306 307 307 308 309 309 310 313 314 315 317 321 319 318 320 323 325 325 324 324 320 321 322 320 320

GFSSGP_sfc_thetae_096.txt.gz
Theta_e
329 317 314 311 301 298 295 301 308 309 310 312 323 329 328 328 324 316 346 351 358 358 360 362 364 364 363 362 362 362 361 361 361 361 361 361 361 362 362 362 362 362 358 356 352 353 354 354 353
323 316 311 305 296 291 295 305 305 310 315 315 324 330 329 326 339 343 346 356 358 358 359 360 364 363 363 362 361 361 361 361 361 361 361 361 361 361 361 361 361 359 357 354 352 353 353 353 353
321 315 303 298 293 293 296 307 308 312 316 316 319 331 329 333 342 344 352 357 359 357 358 360 364 363 363 362 361 361 360 360 361 362 362 361 361 360 360 360 359 358 354 352 352 353 354 354 352
309 306 303 295 293 300 303 308 309 311 317 319 329 326 334 341 340 349 356 357 356 357 358 362 363 362 362 362 361 361 360 360 361 361 361 361 361 360 360 359 358 358 354 351 352 353 355 354 352
306 300 293 291 295 301 306 309 310 310 315 317 325 326 329 340 351 354 354 354 355 357 359 361 363 363 362 361 361 361 360 360 360 361 361 361 360 359 359 359 358 357 354 352 351 352 353 354 352
299 299 290 291 296 303 306 310 309 314 313 322 327 324 327 346 348 351 352 351 357 356 358 360 363 363 361 361 361 360 360 359 360 360 360 360 359 359 359 358 358 356 355 352 350 350 348 347 346
296 293 290 293 296 301 306 314 309 312 311 313 317 313 316 332 347 351 350 351 356 357 356 358 360 361 362 361 360 360 359 359 359 358 358 359 359 358 358 357 357 356 354 352 350 347 346 344 343
299 295 291 293 296 298 306 312 313 311 311 319 319 309 306 314 337 346 348 350 353 354 354 356 358 359 358 358 360 360 359 359 358 358 358 358 358 358 358 354 355 356 354 352 349 347 345 343 342
300 290 290 292 295 299 308 308 316 318 313 314 315 313 315 316 316 332 344 349 350 351 352 354 356 357 357 357 359 360 360 359 358 358 358 355 353 353 354 354 355 355 354 352 349 347 345 344 344
293 291 292 297 300 302 305 307 310 309 309 309 313 315 316 315 312 328 338 344 349 349 349 351 353 353 354 358 357 357 357 357 356 355 355 352 350 351 353 353 355 355 354 352 350 348 346 345 331
293 291 297 300 302 305 305 305 311 306 303 307 304 309 311 310 309 311 315 337 345 351 350 349 350 352 352 353 355 355 356 354 356 355 354 350 349 349 350 347 350 349 352 345 346 342 338 333 330
289 297 298 300 302 305 304 305 307 309 307 308 308 308 309 307 306 308 309 311 317 346 348 348 349 350 350 354 353 353 353 353 352 353 352 349 346 345 346 345 344 344 343 340 339 336 334 331 328
291 296 299 301 301 299 304 305 307 307 314 310 309 309 307 306 306 308 309 311 314 327 345 347 348 348 348 348 352 351 351 352 352 352 352 350 347 345 346 344 343 343 341 339 335 334 332 330 328
296 297 299 299 300 298 299 300 303 305 308 308 308 307 306 308 311 308 307 310 310 334 342 346 346 346 343 343 348 349 350 351 351 351 350 351 347 346 345 344 342 341 340 339 334 331 330 328 326
298 294 296 299 298 298 300 296 298 305 306 305 305 304 306 307 311 311 311 309 314 320 343 345 346 341 335 339 347 347 347 349 349 350 351 351 350 347 346 342 342 342 340 337 334 330 328 326 328
294 293 290 296 299 300 299 292 301 305 304 303 304 305 305 307 307 308 310 315 318 326 337 340 345 340 333 338 347 348 344 343 347 347 349 351 352 350 345 344 341 341 339 336 334 331 327 328 327
290 286 288 292 298 298 296 292 301 304 303 302 303 303 305 305 306 307 309 313 316 321 323 329 333 337 338 345 350 349 350 346 344 344 344 347 349 350 347 344 344 340 339 336 333 329 325 325 330
288 288 290 290 296 295 292 294 298 301 301 301 302 303 305 305 306 309 310 309 312 313 313 314 318 325 324 325 335 347 346 349 346 346 343 344 344 345 345 345 342 341 338 337 332 332 330 328 329
294 292 291 293 298 296 295 295 297 298 299 298 299 300 301 304 306 310 314 315 318 320 321 321 323 322 324 326 327 334 340 343 344 344 346 344 343 344 342 344 343 341 339 338 335 334 333 331 329
295 292 291 295 298 294 293 293 296 298 298 299 300 300 301 302 307 312 312 313 313 314 316 318 320 320 323 326 328 332 330 335 343 346 346 345 344 343 342 341 342 343 341 339 335 334 330 331 331
294 291 292 292 296 296 293 291 294 299 300 302 301 302 302 306 307 308 310 310 311 313 317 317 316 317 318 322 321 321 322 323 326 331 337 342 344 345 344 344 342 343 343 340 337 335 334 330 328
289 296 297 296 291 286 294 284 291 296 297 300 300 302 304 305 305 307 307 308 311 312 317 316 316 316 320 319 317 318 318 316 320 322 329 333 338 340 344 345 344 343 344 342 340 338 336 333 329
293 300 297 296 290 287 289 285 289 294 294 297 299 301 302 303 304 305 307 308 309 310 315 316 313 316 319 316 317 317 316 318 320 321 321 322 327 336 341 342 343 343 342 342 342 339 335 335 334
301 296 293 291 288 282 288 287 287 291 295 297 299 301 303 303 304 305 307 307 308 309 309 309 310 312 315 318 316 315 314 314 315 317 317 320 323 328 333 339 341 340 341 341 342 340 338 335 335
295 288 281 281 281 281 292 289 289 296 298 299 299 301 302 303 303 304 303 304 304 306 308 309 308 308 310 313 315 314 314 314 315 317 317 319 322 325 328 333 338 340 340 341 342 339 338 336 335
293 290 283 279 280 283 291 287 293 299 301 302 304 303 302 301 301 303 304 304 304 305 305 307 308 307 308 311 312 312 315 313 316 317 320 320 322 323 326 330 334 339 340 339 338 339 339 338 336
294 288 294 287 288 283 286 291 297 300 301 302 300 301 300 300 300 300 302 301 301 304 305 307 307 307 307 308 310 312 312 311 313 316 318 319 320 324 326 328 331 334 336 337 336 335 336 332 327
296 298 287 287 281 278 286 289 290 294 296 299 298 298 298 300 300 299 301 302 303 303 304 305 305 305 305 306 306 307 308 310 314 315 315 316 318 321 321 322 324 326 329 329 329 329 330 329 328
293 291 292 290 289 279 278 285 296 295 294 295 296 297 295 295 297 299 300 300 301 302 303 302 303 303 303 304 304 304 305 306 308 312 314 315 317 318 318 319 321 323 325 324 321 322 324 320 321
296 292 290 284 283 286 283 284 300 299 298 296 295 297 297 298 297 298 298 300 300 301 302 302 302 302 302 302 302 302 303 303 304 305 307 310 313 317 317 318 319 321 324 323 320 320 322 317 317

GFSSGP_sfc_thetae_099.txt.gz
Theta_e
330 318 311 310 300 297 294 300 306 307 309 314 326 325 324 325 321 313 344 351 356 357 358 361 363 363 362 362 361 361 361 360 360 360 361 361 361 362 361 361 361 360 357 353 352 353 354 353 352
325 315 309 303 295 290 294 301 304 308 310 314 321 327 327 325 341 342 344 355 356 357 358 359 363 363 361 361 360 360 360 360 360 360 361 361 361 361 361 361 361 359 356 352 352 353 354 353 351
315 312 302 297 292 291 296 305 306 309 311 313 320 330 328 331 343 344 352 356 357 356 358 359 363 362 361 360 360 359 360 360 360 360 360 360 360 360 360 360 360 358 354 352 353 353 354 353 352
307 304 301 294 292 298 302 306 306 307 310 314 322 325 333 340 342 350 356 357 355 355 357 361 362 361 361 360 360 360 360 360 360 360 360 359 359 359 359 359 358 357 353 351 352 354 354 353 352
304 299 292 290 293 299 305 306 308 305 306 313 327 326 328 345 353 354 354 355 353 353 357 360 361 361 361 360 360 360 360 359 359 360 359 359 359 359 359 358 357 356 354 352 351 353 355 354 353
297 297 288 289 293 301 305 307 308 305 310 325 327 324 326 348 349 351 352 352 355 354 357 358 361 361 360 360 360 359 359 358 359 359 359 359 358 358 359 358 357 356 354 352 352 352 353 353 351
295 292 289 290 294 298 303 307 308 310 310 311 319 318 322 342 347 350 350 354 355 355 355 356 357 360 360 359 359 359 358 358 358 358 358 358 358 358 358 357 357 355 354 352 351 349 349 348 347
297 293 289 292 295 294 304 306 312 310 311 315 317 310 316 330 348 348 348 352 351 353 353 353 355 357 356 356 359 359 358 358 357 357 357 357 358 357 357 354 355 356 354 352 350 348 347 345 345
298 289 288 291 294 295 303 303 315 316 312 314 313 313 317 329 344 342 345 347 349 350 349 352 353 354 354 354 356 358 359 359 357 357 357 354 352 352 352 354 354 355 354 352 350 348 346 345 344
292 287 289 296 297 296 301 301 308 310 311 311 310 313 313 321 340 339 342 343 345 345 348 350 352 353 352 353 353 353 355 355 354 354 353 351 348 348 351 352 355 355 355 353 351 349 346 345 331
291 290 295 297 299 300 300 301 307 307 305 310 304 305 311 311 329 339 342 344 345 347 348 350 351 352 351 352 353 353 353 353 353 352 352 350 349 347 349 346 347 346 352 344 346 342 338 333 330
287 294 296 297 301 300 300 303 304 308 311 312 308 308 307 308 315 323 327 333 340 347 347 348 350 351 351 351 352 349 352 353 352 352 353 349 346 345 345 345 344 343 343 342 338 336 334 331 328
290 293 295 298 298 298 301 303 305 306 311 314 310 309 307 305 305 307 312 317 327 346 347 346 348 348 349 348 350 349 351 351 350 350 351 350 346 344 344 344 342 342 341 338 335 334 332 330 328
292 294 296 296 296 298 297 298 304 306 311 310 309 307 306 307 307 306 305 308 312 337 345 346 346 347 346 345 347 346 348 350 350 350 350 350 347 344 343 343 343 342 341 340 335 330 330 328 325
296 291 292 295 295 295 298 294 298 305 310 309 312 313 307 307 307 307 309 308 309 328 339 343 345 344 342 341 345 346 346 348 348 349 348 350 347 344 343 343 342 343 342 339 336 334 329 327 326
291 291 285 294 295 297 299 290 298 304 305 307 309 308 306 306 308 309 310 315 315 333 338 340 346 339 335 337 344 345 345 344 346 347 347 349 349 347 344 343 342 343 340 337 335 333 327 326 327
288 284 285 291 295 296 295 291 299 302 302 302 303 304 304 304 305 307 308 316 323 333 337 339 339 337 336 334 339 345 345 342 343 343 344 346 349 350 347 344 344 340 339 336 336 333 332 330 327
286 286 288 289 293 294 291 293 297 299 301 300 301 302 303 304 305 307 308 311 313 314 317 322 325 326 326 330 337 345 345 345 342 341 342 342 341 346 346 346 342 341 337 338 336 334 331 331 329
292 290 289 292 296 293 292 292 296 296 297 298 299 300 301 303 310 311 308 314 316 317 315 317 320 322 324 326 325 326 327 333 336 341 345 343 342 343 342 343 344 340 340 339 338 335 333 331 329
293 290 290 293 296 293 292 291 294 296 297 298 299 300 301 306 308 310 311 314 316 316 319 321 323 323 323 323 325 325 323 327 332 334 332 340 342 342 341 341 341 342 341 340 339 335 334 333 333
291 289 290 291 294 294 291 289 292 296 298 299 299 300 301 306 306 307 309 310 313 314 314 315 314 315 317 318 316 315 317 317 317 320 325 328 333 337 339 340 340 340 340 340 340 338 334 333 334
288 295 295 294 290 285 292 282 290 293 294 298 299 299 303 305 305 306 307 309 312 314 314 313 314 316 317 316 315 314 313 312 314 317 321 322 326 329 332 334 338 340 341 339 340 340 337 335 332
292 297 295 293 288 286 288 284 288 292 292 295 297 300 300 302 303 306 308 308 310 314 312 311 312 316 315 315 315 314 313 314 315 317 317 317 319 323 328 330 332 335 338 340 339 339 337 336 333
298 294 291 289 286 281 286 285 285 289 292 294 297 299 301 302 304 304 305 307 307 309 310 309 310 312 314 315 314 313 312 311 311 311 313 315 317 319 323 328 330 333 336 337 338 338 338 338 336
293 287 280 279 280 280 289 286 288 294 296 298 298 299 300 302 302 302 302 303 305 306 306 306 306 306 308 311 313 312 310 310 311 311 311 312 315 317 319 320 323 327 330 334 335 336 337 337 336
291 288 282 278 279 282 289 284 290 297 298 300 301 301 300 299 299 301 302 302 302 303 302 303 304 303 304 305 305 307 308 309 309 311 314 315 316 317 319 320 323 325 329 332 333 333 334 335 336
292 288 293 286 286 282 284 289 295 298 298 299 299 299 299 299 299 298 297 299 300 301 302 302 302 302 303 303 303 303 303 304 305 308 311 314 316 318 319 321 321 320 323 326 328 329 331 333 333
295 297 287 287 281 278 284 286 287 293 295 297 298 299 298 297 297 298 299 300 301 301 301 301 302 301 302 301 301 302 302 303 304 305 306 309 311 313 315 317 318 318 319 321 323 326 328 329 331
293 291 291 290 286 280 279 284 294 296 294 293 293 292 293 294 295 296 298 299 299 300 300 300 300 300 300 300 300 300 301 302 302 302 304 305 307 309 310 313 315 317 318 319 320 322 324 325 327
294 291 290 285 283 284 283 285 297 296 294 294 294 295 294 294 295 296 297 298 299 299 299 300 300 300 300 300 300 299 300 301 300 301 301 303 304 306 307 309 312 314 318 318 319 320 321 322 322

GFSSGP_sfc_thetae_102.txt.gz
Theta_e
330 321 310 309 299 297 293 299 304 306 307 311 320 323 321 323 320 312 343 352 355 355 356 361 362 362 363 363 362 362 361 361 361 361 361 361 362 362 361 361 361 361 357 354 353 353 353 353 353
325 314 307 302 295 290 294 300 302 305 309 311 313 322 326 324 341 341 343 354 355 355 357 359 363 362 362 362 361 360 361 360 360 360 361 361 361 361 361 361 360 358 355 352 353 354 354 353 352
313 310 301 297 291 291 294 302 305 306 309 309 310 328 327 329 342 342 350 355 355 355 357 358 362 361 361 360 360 359 359 360 360 360 360 361 360 360 360 360 359 357 354 351 353 354 355 355 353
305 304 300 293 291 295 300 305 304 305 307 310 312 322 332 342 343 349 355 355 353 354 356 360 362 361 361 360 360 359 359 359 359 360 360 360 360 360 360 360 359 358 353 352 354 356 356 355 354
301 298 291 288 292 297 302 307 304 303 307 306 318 323 326 346 352 354 354 353 351 352 356 359 361 361 361 360 359 359 359 359 359 359 359 359 359 359 359 358 357 356 355 353 353 355 355 355 354
296 296 288 288 292 298 302 305 306 305 307 321 325 323 325 348 350 352 353 351 353 353 356 357 360 360 359 360 359 359 358 358 358 358 358 358 358 358 358 358 357 356 355 354 354 355 354 353 353
293 291 287 288 292 297 301 305 304 306 311 312 318 318 323 341 347 351 351 352 352 354 355 356 356 358 360 359 358 358 357 357 357 357 357 357 357 358 357 357 357 356 354 353 353 353 353 352 352
295 293 288 290 292 294 301 304 305 307 311 315 318 316 321 336 347 348 351 350 349 353 353 353 356 354 355 356 359 358 357 357 356 357 357 356 357 357 357 355 355 356 354 353 351 350 349 348 348
296 288 284 289 292 294 299 299 305 313 312 314 313 311 320 345 344 345 346 346 349 350 349 352 352 353 352 353 356 358 358 357 356 357 356 354 352 353 354 354 354 356 355 353 351 349 348 347 346
292 286 288 294 295 295 298 298 302 307 307 311 314 311 327 344 341 340 342 341 344 346 347 350 351 351 349 352 351 352 354 354 353 353 353 351 349 349 351 353 355 355 355 354 352 350 349 347 338
288 286 292 294 297 298 297 298 303 305 304 309 310 305 312 331 337 337 340 342 343 346 348 350 351 351 349 348 349 349 350 352 352 351 351 350 348 349 351 348 351 350 352 349 349 347 344 339 335
286 291 294 295 299 298 296 300 300 307 309 313 310 310 306 313 329 336 338 341 342 344 345 349 351 351 349 349 350 348 350 351 350 352 352 350 347 345 346 346 345 345 346 345 342 340 339 336 334
287 291 293 296 297 295 298 299 298 304 310 314 312 313 310 305 311 325 336 340 342 344 346 347 350 350 350 347 350 348 349 350 350 350 350 350 347 345 345 345 344 344 344 343 341 339 338 335 334
291 292 294 294 293 292 294 295 298 304 308 311 311 311 311 306 305 306 311 324 327 344 346 346 347 349 348 348 348 348 349 350 350 348 350 349 349 345 344 344 344 343 344 343 342 339 337 335 333
294 289 290 292 295 292 295 292 295 301 304 309 311 314 314 314 308 306 307 308 311 329 346 345 345 346 345 346 347 347 348 349 350 350 350 350 349 345 344 343 343 343 343 343 340 339 337 333 332
290 289 283 291 292 294 295 288 297 300 302 305 308 310 312 314 307 306 309 310 312 321 335 342 347 342 339 339 345 347 348 348 349 349 349 350 350 348 344 344 343 345 344 341 340 339 335 333 332
286 283 284 288 293 293 293 289 298 301 301 303 308 310 312 311 314 316 309 316 320 329 336 340 341 339 338 340 342 345 346 346 348 347 348 349 349 350 347 345 345 344 343 341 340 339 337 338 334
284 284 286 286 291 292 290 292 299 302 299 302 306 308 311 309 311 312 308 316 320 324 330 331 332 334 336 337 338 344 346 345 342 342 343 344 346 349 347 347 346 345 342 340 339 338 338 336 337
290 288 288 291 294 291 290 290 295 296 296 296 299 301 304 303 309 309 310 315 317 319 323 324 323 323 326 326 330 329 329 334 339 343 345 344 343 344 343 344 345 344 341 341 341 339 336 336 334
291 288 288 292 294 291 290 290 293 293 295 296 298 299 299 305 308 310 311 314 316 315 319 321 324 325 324 324 326 323 324 325 331 331 336 342 342 342 341 340 340 341 342 342 341 339 336 335 337
290 288 288 290 293 293 290 288 290 293 296 298 298 299 303 306 307 309 311 312 314 317 319 318 317 318 318 319 317 317 318 318 318 320 324 328 332 334 337 338 338 338 339 339 340 340 339 335 339
287 293 293 291 288 283 290 282 288 291 294 297 298 298 302 305 307 307 309 311 312 312 313 314 316 317 317 317 315 315 312 312 314 318 321 323 325 326 329 332 334 336 338 339 338 340 340 338 332
291 295 293 291 287 284 287 283 286 290 291 294 297 299 301 302 304 307 309 311 313 313 312 314 315 316 317 316 315 315 314 314 315 317 318 317 319 322 325 327 328 329 333 336 338 338 338 339 336
297 292 289 287 284 281 284 284 284 288 291 294 297 299 301 302 305 306 307 310 311 312 310 310 311 309 311 313 313 312 311 310 311 312 312 314 316 318 322 325 326 327 329 332 334 336 337 336 336
291 286 279 279 279 279 287 285 287 292 296 297 297 298 300 303 303 303 304 305 306 307 304 307 305 304 305 306 307 308 308 309 310 310 311 311 313 316 319 321 322 323 326 329 331 333 334 334 332
289 287 280 277 278 280 288 283 289 296 297 299 299 299 300 300 300 299 300 300 299 302 303 303 303 303 303 304 304 305 305 305 306 308 308 310 313 316 319 320 322 323 325 326 328 329 331 332 332
290 287 289 284 283 280 283 288 293 296 296 298 298 299 298 296 297 298 298 299 300 301 302 302 302 302 303 304 303 303 304 304 304 305 307 308 311 312 314 316 317 320 321 322 322 324 326 328 330
294 295 285 284 279 277 282 284 286 291 294 296 296 295 296 296 297 298 299 300 301 301 301 302 302 302 303 302 302 303 302 303 303 304 304 305 306 309 310 311 312 315 317 318 320 321 324 325 327
293 289 288 287 283 278 277 283 292 293 294 293 293 293 292 294 295 296 298 300 300 300 300 301 301 301 301 301 301 301 301 301 302 302 302 303 304 306 307 307 308 309 311 314 317 319 321 322 323
293 290 288 283 284 283 282 283 296 295 295 293 293 294 294 295 295 296 297 298 298 298 299 300 300 300 300 300 300 300 300 301 300 300 301 303 303 304 304 305 306 307 308 310 313 316 318 319 320

GFSSGP_sfc_thetae_105.txt.gz
Theta_e
329 327 320 319 308 308 305 307 312 313 314 318 318 319 325 330 325 322 352 354 355 357 362 361 363 364 364 364 364 363 363 363 363 362 361 361 361 362 362 361 362 361 358 356 354 353 354 354 354
327 318 318 314 304 301 305 309 310 313 316 316 317 325 329 329 342 345 348 356 357 359 362 360 363 363 364 363 362 361 362 362 362 362 362 361 361 361 361 361 360 358 356 353 353 353 353 353 355
318 315 312 307 303 300 303 309 311 311 313 314 314 324 331 333 344 347 354 357 357 358 361 361 362 363 363 361 361 360 360 361 361 361 361 361 361 361 360 361 360 357 354 352 353 354 356 356 354
314 314 310 302 300 303 306 310 309 311 314 315 316 318 336 348 345 351 357 357 356 357 359 361 361 361 362 361 360 360 360 360 360 361 361 360 360 360 360 360 360 358 354 352 354 357 356 355 355
312 311 302 300 301 303 307 309 310 309 312 314 323 322 332 349 355 357 357 356 354 356 359 360 361 361 361 361 361 360 360 359 359 360 360 360 360 360 360 359 359 357 355 354 355 356 356 356 354
306 308 298 296 300 303 306 310 309 308 312 317 327 328 333 352 354 355 356 355 354 355 358 359 360 360 360 360 360 359 358 358 358 359 359 359 359 359 358 359 358 357 356 355 355 355 354 354 354
303 301 296 298 299 301 305 311 309 309 310 318 325 325 331 347 353 356 356 355 355 356 357 357 356 358 360 359 359 358 358 357 357 357 357 358 358 357 357 357 357 356 355 354 354 354 354 353 353
305 303 296 297 297 298 306 308 311 311 310 320 319 316 320 345 354 355 355 354 354 355 356 356 355 353 353 356 359 358 357 357 356 356 356 356 357 357 357 355 355 356 355 353 352 352 351 351 351
304 297 294 295 297 300 306 305 310 314 315 317 317 314 319 347 352 352 351 351 352 352 355 357 356 355 353 352 355 358 358 358 356 357 357 354 351 354 356 354 355 356 355 353 352 351 349 348 347
302 296 295 300 302 301 305 305 308 308 310 312 315 317 342 348 348 346 346 346 348 349 352 354 356 355 353 351 355 355 354 355 355 355 356 353 354 355 353 354 354 355 355 354 353 352 350 346 337
298 296 299 300 304 305 303 304 307 307 306 311 313 313 321 343 346 344 344 344 347 350 352 354 357 357 353 350 353 354 354 355 356 357 357 356 354 354 352 351 352 353 353 350 350 349 347 345 343
295 298 300 301 303 304 303 305 304 306 309 314 315 316 316 320 338 345 344 345 346 349 351 354 356 356 356 351 351 352 352 354 353 354 357 355 353 353 352 351 351 353 351 350 351 347 348 348 346
297 298 299 302 302 303 303 301 302 304 309 313 314 318 316 317 316 327 345 349 350 348 350 352 356 357 356 354 352 353 351 353 353 354 356 355 353 352 353 352 352 351 351 350 350 349 348 347 346
298 298 298 300 300 301 300 301 302 303 307 308 311 314 316 318 319 319 321 344 349 350 350 352 354 357 357 355 355 354 354 354 355 354 355 356 354 352 352 352 351 351 351 351 350 348 348 347 347
300 297 300 299 299 298 301 297 298 304 306 307 312 315 318 320 321 321 323 319 339 348 352 354 354 358 357 356 356 356 355 355 355 355 359 358 356 352 352 353 352 352 353 353 352 351 351 348 348
297 296 294 301 299 299 299 292 300 305 305 305 307 310 315 319 320 322 321 320 321 323 339 354 352 353 355 356 355 355 356 356 356 356 357 357 356 355 352 353 353 355 354 352 351 350 348 348 347
295 293 293 296 300 299 297 295 301 306 305 305 308 312 314 318 322 327 325 321 326 329 336 347 353 350 352 353 355 354 357 356 356 357 356 357 357 356 354 354 355 357 354 354 352 351 349 347 347
292 291 293 294 298 298 296 297 302 305 305 306 309 309 311 315 319 324 324 323 328 335 344 348 349 349 349 350 352 353 353 354 355 356 356 358 358 357 355 354 353 354 352 350 349 349 350 349 348
296 295 294 298 301 297 297 297 300 304 305 306 308 309 312 316 322 325 318 323 328 336 342 345 343 344 343 343 345 347 348 352 354 356 355 354 354 354 354 353 353 353 349 349 349 347 345 344 346
296 294 295 298 299 298 297 297 301 302 304 308 306 309 312 316 318 316 316 322 327 331 334 335 337 340 344 342 340 340 338 337 342 343 347 349 347 347 347 345 340 342 337 342 342 342 338 337 341
296 294 295 295 299 299 297 296 298 302 303 304 306 310 311 313 313 314 316 320 322 327 330 332 333 335 337 335 331 331 331 331 331 331 332 337 338 339 341 340 339 339 339 331 338 339 339 331 334
293 299 298 297 295 292 297 291 297 299 300 302 305 307 308 310 313 315 317 320 322 325 326 328 330 332 331 333 333 336 327 323 325 329 331 333 334 334 335 337 337 339 333 336 334 334 337 337 330
296 300 299 298 296 295 295 293 296 299 298 302 305 307 310 313 314 314 318 320 323 321 323 326 327 325 326 327 328 326 328 326 325 327 329 331 331 331 330 333 335 336 334 337 337 337 337 333 331
300 298 297 296 295 289 293 293 294 298 299 303 305 307 309 312 315 318 320 320 320 319 320 320 321 320 321 323 324 325 324 323 322 323 322 322 323 325 327 329 331 333 333 333 333 336 337 335 333
299 296 290 288 288 288 294 292 296 300 303 304 306 307 310 314 315 316 316 317 318 315 315 314 316 315 316 317 317 317 317 317 317 317 316 317 317 318 324 326 327 328 331 332 332 333 334 334 331
296 297 291 283 285 288 294 291 296 302 304 306 307 309 311 312 312 313 313 314 313 313 314 314 314 312 313 313 313 314 314 312 313 314 313 313 313 314 319 320 321 323 324 328 331 330 329 332 331
296 293 297 292 291 290 293 295 301 302 302 305 306 308 309 309 309 308 309 311 311 311 311 311 311 311 312 311 312 313 313 313 312 313 314 312 314 314 315 316 316 317 318 320 322 322 326 328 330
299 300 293 295 286 284 289 291 294 299 301 304 304 306 306 306 307 308 309 309 309 310 310 311 311 309 309 310 310 310 311 311 311 311 311 311 312 312 312 312 313 314 314 315 317 318 321 322 325
296 296 295 297 294 288 286 290 301 302 304 304 304 305 305 306 307 307 307 308 308 308 309 309 309 308 308 308 309 309 309 309 309 309 309 310 310 310 310 310 310 310 311 313 313 315 316 317 321
300 297 298 292 290 293 293 291 301 303 304 305 303 303 304 305 305 306 306 306 306 307 307 307 307 306 306 307 308 308 308 308 307 307 308 309 308 309 309 309 309 309 309 309 309 309 310 312 316

GFSSGP_sfc_thetae_108.txt.gz
Theta_e
328 325 326 321 311 313 311 313 319 318 319 323 324 321 321 330 328 327 356 355 353 358 365 363 364 365 366 366 365 364 363 362 362 362 361 361 361 362 362 363 363 363 359 357 355 354 354 354 354
324 323 322 318 307 307 310 317 315 319 321 322 323 323 327 330 343 348 352 356 357 360 365 362 364 365 365 365 364 364 363 363 362 361 361 361 361 362 362 362 362 361 357 355 353 354 354 354 354
324 321 316 311 309 306 309 315 317 318 320 320 319 323 324 332 346 350 357 357 358 361 364 363 364 364 364 364 363 363 363 363 362 362 362 361 362 362 362 361 361 358 355 353 353 354 354 354 355
317 316 316 307 307 311 313 315 316 317 320 321 321 320 331 349 348 353 357 357 359 360 361 362 363 363 363 363 363 362 362 362 362 362 361 361 362 361 361 361 360 357 354 353 354 354 354 353 353
317 313 304 304 306 311 311 314 316 314 316 318 323 323 329 351 357 358 356 356 356 357 360 361 362 363 363 363 362 362 361 361 361 362 361 361 361 360 360 360 359 357 353 353 354 355 354 353 352
308 310 301 300 304 310 313 314 315 313 315 317 322 328 332 355 356 356 356 356 355 355 359 358 362 361 361 361 361 360 360 360 360 361 360 361 360 360 360 360 359 357 354 353 354 354 354 353 352
306 304 301 302 303 305 309 315 314 314 314 315 329 323 335 348 357 357 358 358 355 355 357 358 356 360 361 360 359 359 358 358 358 358 359 359 359 359 359 359 358 356 354 353 353 353 353 352 351
308 306 301 302 301 302 309 311 314 314 314 320 324 319 327 348 358 358 357 356 353 354 355 355 354 353 354 357 359 359 358 358 357 358 358 358 358 358 358 355 356 355 353 352 351 351 351 351 352
311 301 299 300 301 303 308 308 313 315 315 318 322 320 324 349 357 356 354 353 351 351 354 355 353 352 350 350 356 358 358 357 357 357 357 355 352 355 355 353 356 355 354 352 350 349 349 348 348
304 300 300 305 305 304 307 308 309 311 312 315 319 321 338 347 352 350 350 349 349 349 352 354 357 353 351 348 356 354 353 354 354 353 355 352 351 353 349 354 355 355 354 353 353 351 349 347 336
304 300 305 304 306 306 305 306 309 307 307 314 316 318 325 345 350 347 348 348 348 350 352 354 360 359 354 351 353 352 352 353 355 357 358 356 354 353 351 349 352 353 352 348 350 350 348 344 342
300 304 304 305 305 305 304 307 306 308 309 314 318 320 321 325 346 347 347 347 348 349 351 355 359 360 358 352 352 353 352 354 355 356 360 357 355 355 354 350 350 352 349 349 348 345 347 347 346
301 302 304 305 305 305 306 304 304 306 310 313 315 318 319 321 324 335 347 351 351 351 351 353 358 361 360 356 353 353 353 354 356 356 359 357 355 355 356 355 354 353 353 352 353 351 352 351 351
303 302 303 304 304 305 303 303 305 306 309 309 311 313 316 321 322 320 324 336 352 354 354 355 356 360 362 359 357 355 356 355 356 356 357 359 358 358 355 356 355 355 355 354 354 353 353 352 353
303 300 303 304 305 303 305 300 301 307 308 308 309 311 316 319 323 323 326 327 324 342 357 357 357 360 362 361 359 357 355 354 355 356 360 360 361 360 359 355 355 354 356 359 357 357 356 354 353
302 302 298 304 305 305 303 296 303 307 307 306 308 310 315 316 323 325 326 327 329 328 341 359 356 358 361 361 359 357 357 357 356 358 359 361 361 361 359 355 356 357 358 356 355 355 354 352 352
301 296 298 300 306 304 302 299 305 307 306 306 308 309 312 315 322 327 327 328 327 332 334 343 358 357 361 362 359 359 361 359 358 358 358 360 359 358 357 356 358 360 358 356 355 354 355 354 353
296 296 298 298 303 303 302 301 306 308 307 306 308 309 314 317 322 326 328 330 330 333 339 340 351 357 359 359 359 358 356 357 358 356 358 359 361 358 360 358 358 357 354 353 352 353 353 350 350
300 298 298 302 305 303 302 303 305 307 307 307 308 311 314 317 323 326 327 330 330 337 345 348 352 358 358 354 355 352 351 354 355 359 359 359 358 358 359 358 355 355 350 349 349 346 345 342 343
300 298 299 302 304 302 303 302 306 307 307 308 309 312 314 316 319 323 326 326 330 339 343 349 353 354 354 353 354 352 352 354 356 355 355 353 352 351 350 347 340 341 335 340 341 341 333 331 334
299 298 299 299 302 304 302 301 303 307 308 310 312 315 315 315 317 320 323 327 328 336 338 344 348 353 355 355 348 340 341 340 333 335 334 338 338 338 339 338 337 336 337 328 335 336 336 326 328
296 302 300 299 298 295 303 294 301 305 306 308 310 312 313 315 317 320 323 323 328 333 340 344 347 348 349 349 344 340 330 328 327 329 329 332 337 335 335 337 336 338 332 339 333 331 333 334 326
298 303 301 300 299 299 299 296 300 304 303 306 309 311 313 316 317 316 320 321 327 335 337 336 336 335 333 337 340 332 333 328 329 333 334 337 337 336 334 335 336 338 335 340 339 338 338 331 327
304 301 301 301 299 293 298 297 298 301 303 306 309 312 313 315 317 320 322 325 329 332 331 331 330 329 331 331 334 334 332 329 328 331 329 327 328 329 332 332 334 336 336 336 335 338 338 338 336
302 299 292 290 291 290 299 296 298 305 307 308 310 312 314 317 320 321 322 324 324 325 326 326 326 325 325 325 324 323 326 325 323 325 323 324 323 323 329 330 331 329 332 334 335 338 336 337 334
299 299 293 286 288 292 299 293 300 307 310 311 312 315 317 319 321 322 322 323 322 323 323 322 323 322 323 322 322 322 321 319 319 321 320 320 320 320 326 325 325 325 326 327 329 327 330 337 334
299 296 302 296 296 293 296 299 304 308 308 310 312 314 316 317 319 320 320 321 321 321 320 320 320 320 319 319 320 320 320 320 319 321 322 319 322 319 322 322 322 322 322 323 323 321 325 329 333
302 304 295 297 288 287 292 295 297 303 305 309 311 313 315 315 315 316 317 318 318 318 318 319 318 317 316 317 317 317 318 319 319 319 319 319 320 320 319 319 320 320 321 321 321 319 321 323 322
299 298 300 300 297 291 289 292 305 304 307 309 311 313 313 314 314 315 315 316 316 316 316 316 316 313 315 314 315 316 316 316 317 317 317 318 319 318 318 318 318 317 317 318 318 318 318 318 319
304 301 301 294 293 296 294 293 307 308 310 312 311 312 313 315 314 314 314 314 314 313 313 315 314 313 313 313 314 314 315 316 316 316 317 317 316 317 316 316 315 315 315 315 315 313 314 313 313

GFSSGP_sfc_thetae_111.txt.gz
Theta_e
326 323 327 323 312 314 311 314 322 319 320 326 326 323 322 325 327 329 354 356 354 359 363 363 366 367 368 367 365 364 363 362 361 362 362 362 362 362 363 364 364 362 359 357 355 355 354 354 354
322 322 324 318 309 307 311 317 317 321 324 325 325 325 323 325 343 349 353 353 357 361 364 363 365 366 367 366 365 363 363 362 362 362 362 361 362 362 362 363 363 360 357 355 353 354 354 354 353
326 323 315 313 310 307 310 317 320 322 323 323 321 325 324 329 347 349 360 356 358 361 363 365 365 366 366 366 364 363 362 362 362 362 362 362 362 362 362 363 362 358 355 353 353 354 353 354 354
318 316 314 308 308 313 314 318 321 320 322 324 323 320 328 347 344 354 358 355 358 359 360 363 364 364 364 365 364 363 363 362 362 362 362 362 362 362 362 362 360 356 353 353 353 354 353 353 353
318 313 305 304 307 313 318 320 320 318 320 321 322 321 327 352 356 357 355 356 355 355 360 363 363 363 364 365 364 363 362 362 362 362 362 362 361 361 361 360 359 356 353 352 354 354 353 352 350
309 311 302 301 304 309 314 318 318 317 319 320 320 323 331 355 355 353 356 355 354 353 359 359 362 362 362 363 362 362 361 361 361 361 361 361 361 361 360 360 358 356 353 353 354 355 353 352 351
307 306 302 303 304 307 311 318 315 315 317 318 323 323 336 346 355 354 356 357 355 353 356 356 356 360 362 361 361 361 361 361 360 360 360 360 360 360 360 359 358 356 354 353 353 354 353 352 352
310 308 303 304 303 305 312 313 316 315 316 323 322 320 324 348 356 356 358 356 354 353 353 354 353 354 355 358 360 360 360 360 359 359 360 360 359 359 358 357 357 355 353 352 351 352 352 352 352
312 303 300 303 304 306 312 310 314 317 314 317 321 323 327 340 353 353 353 353 352 351 353 353 352 352 350 350 356 358 358 358 358 358 359 356 351 354 356 353 356 356 354 352 351 350 350 349 349
307 302 303 308 309 307 309 310 311 312 312 314 318 325 327 334 349 349 349 349 349 349 350 351 354 352 350 349 356 352 351 351 351 351 355 351 351 353 349 354 357 355 355 354 353 353 351 348 337
307 302 307 307 308 309 308 309 311 309 309 313 314 320 325 335 343 345 347 348 348 350 351 350 355 356 351 348 355 350 350 350 352 354 356 356 351 352 347 350 352 354 354 349 351 350 348 343 340
303 307 307 308 308 308 306 308 307 309 310 314 316 321 323 323 338 342 342 345 347 349 351 352 357 357 359 350 352 350 349 351 352 354 358 358 353 354 352 344 346 352 347 350 346 344 348 346 345
304 306 307 308 308 308 308 306 306 308 311 314 315 319 322 323 326 339 348 346 350 347 349 351 358 359 359 359 353 353 351 352 354 355 357 358 355 357 355 354 352 351 349 348 350 349 349 348 350
306 305 306 307 306 307 305 305 306 308 311 311 313 314 317 321 325 328 337 344 354 351 351 352 354 363 362 360 361 355 359 356 355 354 356 358 357 358 354 355 353 353 353 351 351 351 352 351 352
306 301 304 305 306 305 307 302 303 308 310 310 310 312 314 317 322 325 328 333 341 352 351 358 357 360 363 365 360 357 355 354 354 354 359 359 361 362 360 354 354 353 357 360 358 358 356 354 353
301 302 298 305 306 306 305 298 306 310 309 308 309 310 312 315 321 327 328 328 328 332 346 358 356 361 364 364 361 361 361 354 354 353 356 358 361 361 361 355 354 363 367 362 360 358 355 355 351
302 296 299 302 307 306 304 301 307 310 309 308 309 310 311 313 323 326 328 332 336 338 336 348 358 357 362 360 364 354 361 355 359 364 360 358 360 359 359 358 363 364 366 365 359 355 357 353 352
297 296 299 300 305 306 304 303 307 310 310 308 308 309 311 312 319 324 329 331 334 340 345 344 350 355 363 360 362 359 361 363 359 359 356 361 362 359 360 362 360 362 356 357 352 353 352 350 347
303 302 299 303 306 304 304 304 307 310 310 309 309 309 310 312 318 324 328 331 332 335 345 346 351 359 358 355 352 355 352 359 365 360 359 357 358 357 359 359 359 358 354 353 351 347 347 338 341
302 300 300 303 306 305 304 304 308 309 309 310 310 310 310 312 317 323 328 331 333 338 342 346 354 360 357 349 355 353 355 353 358 362 360 359 356 358 359 356 350 353 341 349 345 348 335 332 336
301 299 300 300 304 306 304 302 305 309 310 310 311 312 313 313 317 320 325 329 332 335 340 341 344 349 355 355 357 357 356 353 355 348 345 347 345 343 343 340 340 342 341 329 342 341 343 329 331
298 303 302 301 300 296 306 295 304 307 307 308 311 313 314 316 318 319 323 328 329 333 338 340 346 351 355 358 353 351 344 340 336 334 333 336 338 336 334 337 337 344 337 343 339 337 336 337 327
300 304 302 301 300 299 300 298 302 307 304 307 310 313 315 316 317 318 322 326 329 333 335 344 348 350 347 351 353 344 346 335 331 329 340 338 341 338 334 335 337 343 338 342 347 345 343 334 329
305 302 302 302 299 293 298 298 299 302 305 307 310 312 314 315 317 319 323 326 329 336 339 342 341 339 339 339 339 342 340 337 333 334 331 330 330 336 338 335 339 340 340 339 338 343 344 341 338
303 300 292 290 291 291 300 298 300 307 307 309 310 312 314 317 319 322 323 325 329 333 334 333 332 330 332 331 331 332 332 333 331 328 327 329 326 326 337 334 334 332 337 337 338 338 340 339 337
300 300 293 287 288 292 300 295 300 309 311 312 314 314 316 318 321 323 325 327 328 330 330 328 328 327 328 327 327 327 327 325 325 327 325 325 324 325 332 330 330 330 328 330 332 328 328 332 331
300 297 303 297 297 293 295 300 307 309 309 310 313 315 317 319 321 323 324 325 326 326 326 326 325 325 325 325 325 325 325 325 324 326 327 322 327 323 326 326 325 325 325 327 329 324 327 328 328
302 305 296 297 289 288 293 296 296 304 306 308 310 313 317 320 321 323 323 324 324 324 324 324 324 323 322 322 322 322 322 321 323 323 323 324 324 324 323 323 323 323 324 324 327 323 325 326 323
300 299 301 300 297 291 290 294 307 305 308 308 311 315 317 318 319 320 321 322 321 322 322 321 321 320 319 320 321 320 320 320 321 321 321 321 323 322 321 321 321 321 320 323 322 321 321 320 322
304 301 302 296 292 297 295 293 309 307 310 312 312 315 317 318 318 318 318 318 318 318 318 319 318 319 318 318 317 318 319 319 320 320 321 321 320 321 320 320 319 319 317 320 319 317 317 317 317

GFSSGP_sfc_thetae_114.txt.gz
Theta_e
323 316 319 319 309 310 307 310 317 316 320 325 326 323 320 322 332 328 352 355 357 359 361 362 367 368 367 365 364 364 362 361 361 362 362 362 362 363 363 363 363 362 360 358 356 355 355 355 354
319 316 317 315 306 303 306 315 313 318 323 326 325 323 321 330 346 345 345 356 358 361 360 361 366 367 367 365 364 363 362 361 361 362 362 362 363 363 363 363 362 361 358 355 355 355 355 354 353
320 320 311 309 306 303 306 315 318 321 324 323 321 325 323 335 344 351 352 359 358 360 362 364 366 366 366 365 364 362 362 361 361 362 362 362 362 363 363 363 362 360 356 354 354 355 355 354 354
312 314 313 304 304 310 312 316 319 321 323 323 323 319 326 341 344 356 355 358 358 358 361 364 365 365 365 365 363 362 362 362 361 362 362 362 362 362 362 362 361 358 356 354 355 355 355 355 355
314 311 302 301 304 310 315 318 319 318 320 320 322 318 325 346 352 356 353 356 355 354 363 362 364 365 365 365 364 362 362 361 361 362 362 362 362 361 361 361 360 358 356 356 356 355 355 354 352
307 308 299 297 302 308 312 317 318 318 320 319 319 319 326 351 350 352 352 354 354 354 361 359 364 364 364 364 363 362 361 361 361 361 361 361 361 360 361 360 359 357 356 356 356 356 355 354 353
305 303 299 300 302 305 309 315 313 315 317 317 322 317 338 346 350 351 352 353 351 357 357 356 359 363 363 363 362 361 361 361 360 360 360 360 360 360 360 359 359 358 356 355 356 356 355 354 353
307 305 300 301 301 302 310 312 315 314 315 322 323 316 321 346 348 342 346 351 349 352 353 352 356 358 360 361 362 361 361 361 360 360 360 360 359 359 359 358 358 357 356 355 355 355 355 354 354
311 301 298 300 302 304 310 308 314 319 315 316 319 321 326 344 338 339 330 342 347 349 351 350 351 354 353 355 359 360 361 360 360 359 359 357 353 355 355 354 356 357 356 355 354 353 353 352 352
305 300 300 305 307 306 309 309 310 311 311 312 314 321 325 329 332 329 328 341 345 346 349 349 351 350 349 349 357 357 357 357 356 355 356 353 350 352 350 352 357 357 356 355 354 353 353 351 339
305 301 305 306 308 309 308 308 311 309 308 312 312 316 322 325 331 340 343 344 344 348 350 349 352 352 348 348 352 351 351 350 351 351 354 352 349 353 349 352 350 353 355 350 351 350 348 342 340
302 305 306 307 308 308 306 309 307 309 309 314 315 317 319 324 329 335 339 342 343 346 348 348 352 352 352 353 348 349 348 349 349 351 355 349 354 357 348 349 349 350 350 347 347 346 347 346 344
303 305 307 308 308 308 309 306 306 307 311 313 313 315 316 323 324 327 336 351 344 346 342 338 349 351 351 351 351 348 349 349 351 352 356 354 353 355 354 354 349 350 348 349 348 347 350 349 347
305 306 306 307 307 307 305 305 306 307 311 311 312 312 314 317 324 326 328 343 345 339 339 337 341 349 356 356 353 351 353 351 353 353 355 358 357 358 355 359 359 357 357 353 349 349 352 351 350
305 301 304 305 306 305 306 302 302 308 309 308 310 311 313 315 318 323 329 337 347 340 342 338 339 342 349 355 358 355 357 351 354 354 357 356 360 362 361 358 355 356 357 358 358 358 357 354 352
302 301 296 303 304 305 304 297 304 308 308 307 308 310 311 314 315 320 325 335 346 343 337 339 339 337 343 353 356 355 352 352 346 345 349 359 360 362 362 359 359 359 358 356 354 354 352 354 348
300 294 296 298 305 304 302 298 305 309 309 308 309 310 311 312 315 319 324 333 338 346 345 341 332 331 336 344 342 351 354 349 342 342 338 340 356 354 350 350 353 359 357 357 353 350 353 350 348
295 296 298 298 303 305 302 302 306 309 309 309 308 309 310 311 313 318 326 332 338 345 348 342 342 346 339 333 337 349 354 354 339 331 341 348 348 340 336 345 345 349 348 346 348 352 351 348 347
299 299 298 301 304 304 302 303 306 308 308 309 310 310 310 311 315 317 327 332 340 345 349 355 352 354 347 350 348 350 349 352 347 333 334 343 350 349 343 332 338 351 353 351 346 346 340 337 338
299 298 299 302 305 304 303 303 307 308 309 311 311 311 311 312 314 316 326 334 336 342 350 354 356 357 359 354 356 354 350 354 353 355 356 354 350 355 356 358 354 354 344 344 341 342 338 335 335
298 297 299 300 303 305 303 300 304 308 310 311 311 311 312 313 313 315 326 331 335 338 346 349 356 358 360 360 353 355 358 355 355 354 354 356 356 355 347 347 343 340 338 335 340 342 338 331 332
296 302 302 301 299 294 303 292 303 306 307 308 309 311 311 313 315 316 325 329 331 339 339 343 347 356 356 359 357 353 346 343 345 341 347 344 340 339 339 337 337 338 341 341 338 336 339 335 326
299 304 301 301 299 298 298 295 300 306 304 306 309 311 313 316 314 316 318 329 332 338 340 344 352 355 357 358 358 348 349 344 338 340 341 344 342 339 338 337 339 339 340 340 339 337 337 337 333
304 302 302 301 298 291 296 296 297 301 305 307 310 310 313 314 317 319 326 331 330 334 337 344 347 344 342 342 349 342 338 340 336 339 336 337 340 341 340 338 339 339 339 337 337 338 337 336 334
302 299 291 289 290 289 298 296 299 306 308 309 309 311 314 317 321 322 324 326 331 333 341 340 338 337 337 336 334 334 332 331 333 331 332 331 330 332 337 334 334 333 334 334 332 330 330 329 329
299 299 292 286 287 290 298 293 298 309 310 312 312 313 314 318 321 322 324 326 331 335 334 333 332 331 330 329 330 331 333 328 330 327 326 325 325 327 332 331 331 331 330 330 329 326 325 324 323
299 295 301 295 297 292 295 299 305 308 308 309 311 313 315 317 321 324 326 329 331 331 330 330 328 329 329 328 330 330 327 328 327 328 328 328 331 324 326 326 326 326 326 326 325 322 322 323 323
301 303 295 296 288 286 293 295 296 303 306 308 310 313 316 319 322 324 324 327 327 328 328 328 328 326 327 328 328 326 326 326 326 328 326 326 327 327 326 325 324 323 323 324 323 321 321 321 320
297 297 298 300 297 291 289 294 304 305 307 307 310 314 317 319 320 322 323 324 323 323 322 325 323 324 324 324 325 325 324 324 325 325 325 325 326 325 322 321 321 321 321 322 321 320 319 317 317
302 299 300 293 293 296 294 293 306 308 310 310 309 315 317 319 320 320 320 320 320 320 319 320 322 321 321 321 322 323 324 324 324 324 324 324 323 323 321 320 319 319 318 319 318 316 317 315 314

GFSSGP_sfc_thetae_117.txt.gz
Theta_e
323 311 308 307 300 298 296 302 310 310 313 319 319 317 314 332 329 320 348 355 357 356 362 365 365 364 364 364 363 362 361 361 361 361 361 361 362 362 361 361 361 362 361 356 356 355 355 355 355
317 315 306 303 297 292 296 307 307 312 318 320 321 318 319 332 342 341 347 357 356 357 359 362 365 364 364 363 362 361 360 361 361 361 361 361 362 362 362 361 361 361 358 355 354 355 355 355 354
321 314 303 297 295 295 297 307 310 316 320 319 317 321 324 335 343 344 352 358 356 354 358 362 366 364 363 363 362 360 360 361 361 361 361 361 362 362 361 361 361 360 356 355 355 355 357 357 356
309 303 305 294 294 302 304 309 312 314 318 319 318 316 327 345 348 352 356 358 354 354 358 364 365 364 363 363 362 360 360 361 360 361 361 361 361 361 361 361 360 359 358 357 357 358 358 357 357
305 300 294 291 295 301 307 311 312 313 316 319 318 317 331 350 352 354 354 356 353 355 359 362 364 364 364 363 362 361 360 360 360 361 361 361 361 360 361 361 359 358 358 357 357 357 357 356 357
298 298 289 290 294 301 307 311 311 310 313 315 314 315 332 348 347 349 354 353 354 357 358 360 364 364 363 363 361 360 360 359 360 360 360 360 360 360 360 360 359 357 357 357 358 357 356 354 354
296 294 290 293 295 299 304 309 309 309 308 313 314 312 336 339 343 341 340 339 353 357 355 357 360 362 363 362 361 360 359 358 359 359 359 360 359 359 359 358 358 356 356 356 357 356 356 354 353
302 295 291 295 295 296 304 307 309 308 310 316 319 311 330 342 343 337 341 337 344 354 354 354 356 358 360 360 361 360 359 359 358 358 359 358 358 358 358 356 357 357 355 355 355 356 355 354 353
303 294 291 293 295 296 303 302 309 313 311 314 316 314 341 345 342 340 342 338 346 350 350 352 354 355 356 357 360 360 361 360 358 358 358 356 353 354 356 355 357 357 356 355 354 354 354 353 353
298 292 294 299 299 299 301 303 304 307 309 308 312 319 340 342 338 331 332 332 331 342 348 350 351 352 352 357 356 355 357 356 355 354 354 350 346 349 352 353 355 356 355 354 353 353 352 351 340
296 295 298 301 303 303 302 303 304 303 301 306 307 312 330 331 335 334 333 330 329 336 346 346 348 348 344 352 352 352 352 352 351 351 350 346 346 347 348 345 348 348 353 348 349 348 346 342 338
293 300 301 302 304 303 301 303 302 302 302 306 309 310 311 321 328 331 333 333 344 345 345 343 341 336 341 350 348 346 346 345 344 345 348 344 343 342 342 345 344 345 345 343 342 343 342 340 338
296 298 302 303 303 302 303 301 302 302 307 308 308 309 308 308 324 329 332 343 345 344 345 342 340 340 342 346 343 343 343 343 343 344 349 345 342 343 344 344 343 344 344 344 341 341 341 340 340
298 300 301 301 301 302 300 300 301 303 307 306 306 306 306 307 309 317 321 339 340 344 345 337 338 340 338 340 343 344 344 344 345 346 350 349 346 347 344 343 345 345 345 344 342 341 339 341 342
299 295 298 301 300 300 302 297 299 303 305 303 304 305 306 307 308 309 317 339 337 340 341 336 337 339 337 337 335 351 349 345 346 347 350 351 349 350 348 349 347 345 348 346 346 349 349 347 343
295 295 290 296 299 300 299 293 299 303 302 302 304 305 306 305 307 308 312 341 338 336 334 337 338 330 331 330 334 348 348 345 342 341 347 346 347 344 349 345 341 342 349 347 344 343 343 342 338
293 288 289 293 298 298 297 295 300 303 302 302 303 304 305 304 306 308 311 337 337 334 336 336 333 329 333 334 337 343 345 338 339 340 339 343 344 342 339 340 337 336 336 332 333 330 338 341 340
288 289 292 292 297 298 296 295 299 302 302 302 302 303 304 304 305 309 311 329 337 339 338 331 336 334 334 331 332 335 334 340 335 336 338 340 344 339 338 338 338 332 336 330 332 330 332 342 338
295 293 293 296 300 298 296 296 298 302 302 301 302 302 302 303 306 309 314 329 338 339 336 328 328 333 331 331 329 329 327 331 337 332 340 340 337 340 336 336 333 330 336 330 336 335 336 330 328
295 292 292 297 301 299 297 296 301 303 302 302 303 303 303 303 305 307 321 329 337 339 335 334 333 337 332 332 332 331 330 333 344 333 336 335 334 339 329 333 332 333 342 335 334 332 329 327 327
293 291 292 293 299 301 298 295 298 304 305 306 306 306 304 303 303 306 325 331 335 339 344 343 343 338 336 340 343 342 342 342 342 340 335 336 338 343 340 336 338 332 329 327 330 329 328 322 325
290 297 297 296 295 290 298 285 295 300 301 304 304 302 303 305 305 305 326 328 337 339 346 348 349 346 347 349 342 342 339 336 340 339 340 335 339 341 335 330 329 330 329 327 329 330 329 326 320
293 299 297 296 294 292 293 287 292 299 300 302 302 303 303 304 305 306 321 328 337 336 337 341 344 343 342 343 341 338 336 330 329 332 328 326 326 328 330 329 328 328 327 327 327 326 325 325 324
299 297 297 295 290 284 290 290 290 295 299 301 303 304 306 307 306 306 322 325 331 330 334 337 333 330 330 334 331 329 329 328 329 326 324 326 328 328 327 329 327 328 327 325 326 324 322 322 323
296 292 286 284 283 282 293 289 290 299 304 305 304 304 305 311 308 311 319 322 331 331 330 331 328 324 323 323 323 321 322 321 320 321 321 320 319 322 321 321 320 320 321 321 321 319 319 318 318
293 292 285 279 281 284 293 287 293 302 305 308 309 306 311 314 316 317 321 329 328 327 326 325 321 319 320 321 320 319 319 320 318 317 316 316 315 318 319 318 318 318 319 318 318 317 317 317 316
294 291 295 290 292 287 289 292 300 304 305 305 307 309 308 312 315 318 325 325 324 324 322 321 320 319 319 319 317 317 316 316 316 316 316 318 317 318 317 318 318 318 318 318 318 316 315 316 316
298 298 290 289 282 282 288 292 292 300 301 306 305 307 313 315 317 320 321 321 320 320 319 318 317 316 317 316 316 315 314 315 314 314 313 314 315 316 316 316 316 316 317 317 316 315 315 314 314
295 294 293 291 289 283 282 289 302 301 301 304 307 309 311 314 316 316 316 316 316 316 315 314 314 314 313 312 312 312 311 312 313 312 313 314 314 315 315 315 315 314 314 314 314 313 314 313 312
300 294 294 287 287 290 287 290 306 304 307 306 306 310 313 313 314 315 314 315 314 313 313 310 311 311 310 310 310 309 311 311 311 312 312 313 312 313 314 314 314 314 314 312 311 311 312 311 310

GFSSGP_sfc_thetae_120.txt.gz
Theta_e
323 312 305 306 299 296 293 299 305 306 309 315 318 316 327 329 325 316 345 352 354 359 362 362 364 365 365 364 362 361 361 361 360 360 361 361 360 360 361 362 362 362 358 357 356 354 356 355 355
315 313 304 300 295 291 294 301 303 307 312 316 319 318 332 331 339 343 345 354 354 359 361 359 364 364 364 363 361 360 361 361 360 360 361 361 360 360 361 361 361 361 356 355 354 354 354 354 353
317 313 300 295 292 292 295 303 305 310 314 314 316 319 336 335 341 345 352 353 356 358 360 359 364 363 363 363 361 360 360 360 360 360 361 361 360 360 360 360 360 359 355 354 354 354 356 354 353
306 301 301 293 291 298 302 305 307 310 312 315 317 314 336 344 342 349 354 354 353 355 359 363 363 362 363 363 361 360 360 360 360 360 360 361 361 360 360 360 359 359 357 356 356 357 358 356 356
302 297 292 289 293 297 303 307 306 306 308 311 315 328 335 347 353 355 354 352 350 352 357 362 363 362 363 363 361 360 360 360 360 360 360 361 360 360 361 360 359 359 358 357 356 358 357 357 356
295 294 286 288 292 300 303 307 305 306 308 310 311 324 333 341 351 353 353 350 354 354 357 360 364 363 362 361 360 360 359 359 359 359 359 360 360 360 360 360 359 358 357 357 357 357 356 355 354
294 289 287 288 293 296 301 306 304 304 304 307 312 322 334 339 340 342 345 350 356 356 356 357 360 362 363 361 359 359 359 358 358 358 358 359 359 359 359 358 357 356 356 356 357 355 354 353 352
298 292 287 290 292 292 301 303 305 302 304 311 316 322 329 338 339 342 347 353 354 354 354 356 357 359 358 358 360 360 359 358 357 358 358 358 358 358 358 355 356 356 355 355 356 355 354 353 352
299 289 286 289 292 294 300 298 304 309 309 312 314 316 340 341 341 342 341 347 351 352 351 355 356 356 357 357 359 359 359 359 358 358 358 355 352 353 354 355 356 356 355 355 355 355 354 353 353
294 290 290 296 298 295 299 298 300 303 304 309 312 341 342 340 339 339 338 337 346 347 349 350 354 354 355 357 357 354 356 355 354 354 353 349 347 348 353 354 355 356 356 354 354 353 353 352 342
292 293 297 296 300 300 301 301 302 301 300 304 303 329 339 338 334 337 337 333 332 341 348 348 350 350 350 352 354 353 352 353 352 352 351 347 347 346 348 346 347 346 353 346 349 346 345 341 339
290 297 298 297 300 300 300 301 300 301 302 306 306 313 330 331 332 329 328 337 339 340 338 339 340 342 345 351 351 350 351 350 349 350 350 346 342 340 343 342 342 344 344 343 341 341 340 340 339
291 293 297 300 300 300 301 300 300 300 305 307 306 307 307 320 328 329 330 342 339 337 337 340 343 343 343 343 343 344 347 348 349 347 348 346 341 340 341 341 342 343 342 342 340 338 339 338 338
294 296 296 297 297 299 299 300 298 302 305 305 304 303 304 310 317 323 336 341 339 339 337 341 342 344 346 344 344 345 343 343 344 344 346 347 341 341 342 339 340 342 343 342 343 341 339 339 340
296 293 295 296 297 295 299 296 298 302 304 303 303 303 303 304 307 314 338 341 342 341 340 339 341 342 343 341 343 344 345 344 343 343 345 347 344 344 345 339 335 340 337 335 333 333 339 336 341
292 291 288 292 295 297 297 292 300 301 300 301 302 303 303 303 305 311 336 338 343 343 338 338 339 338 338 337 340 340 342 342 341 342 344 345 342 341 340 336 335 338 336 335 335 333 333 332 334
289 286 285 289 294 296 294 294 298 301 300 299 300 300 302 302 303 310 336 338 342 341 337 337 335 337 336 333 337 345 337 338 340 340 342 344 343 341 340 338 336 336 335 334 333 332 331 328 330
286 285 288 289 293 294 293 293 296 300 299 299 299 300 300 301 303 305 334 336 338 338 337 333 330 330 330 331 334 338 336 334 337 338 341 342 342 342 342 341 336 336 334 333 331 330 329 331 330
293 290 289 292 296 294 293 294 295 298 297 297 297 298 299 300 304 304 328 334 332 334 332 331 327 330 331 329 329 329 330 332 333 333 337 338 342 338 337 338 337 333 333 332 332 329 327 328 334
293 291 290 293 296 295 294 293 297 298 297 299 300 300 300 299 301 305 329 333 333 332 330 331 330 331 332 329 328 328 327 328 335 333 339 338 337 339 334 332 332 331 330 331 331 333 332 330 330
292 291 290 290 295 296 294 292 295 299 300 301 301 301 301 300 301 305 326 333 333 332 329 329 332 332 332 330 332 333 329 334 336 330 330 331 334 338 331 334 332 332 332 332 331 333 326 320 323
289 296 295 293 291 285 294 285 292 297 299 301 301 301 302 301 301 308 325 333 334 333 331 328 330 331 332 333 334 333 329 330 333 335 333 333 334 337 340 337 336 329 326 325 326 328 328 325 321
292 297 295 294 291 287 290 286 290 295 295 298 300 300 300 302 302 310 326 334 336 336 335 333 335 333 337 336 337 334 329 329 331 331 329 328 329 336 333 329 328 326 326 325 323 323 323 323 322
299 295 294 293 291 282 289 288 288 291 296 299 301 302 301 301 302 317 328 333 329 334 336 338 333 328 334 335 334 334 329 327 326 323 322 323 323 323 324 326 324 324 322 323 323 320 318 317 317
296 290 282 281 280 281 290 287 289 295 299 301 300 300 303 303 301 316 326 327 330 330 327 325 325 320 321 320 320 323 320 320 320 318 316 317 318 317 317 318 318 318 319 318 317 316 316 316 315
293 290 281 277 278 282 291 284 290 299 301 304 303 303 308 308 308 318 325 327 328 323 320 320 319 318 317 317 316 317 317 316 315 314 313 312 313 315 315 315 316 316 317 316 314 313 314 314 314
293 288 292 287 289 285 287 292 300 303 303 306 306 309 308 315 320 325 324 323 321 319 318 318 317 316 316 315 314 314 315 315 313 313 314 313 313 316 315 315 314 314 315 316 316 314 314 314 313
296 296 288 289 282 280 286 290 290 298 301 306 306 307 311 317 319 319 319 318 318 318 317 316 315 315 314 313 312 312 312 312 312 312 311 312 313 313 313 313 313 313 314 314 313 312 313 312 312
293 291 293 291 288 281 281 287 299 299 301 305 306 309 310 311 312 313 314 315 315 314 313 311 311 310 309 310 309 309 309 310 311 311 311 311 311 312 312 313 312 312 312 312 310 310 311 311 311
296 293 291 287 283 287 287 286 303 304 307 306 308 310 311 313 314 314 314 313 311 307 307 308 306 306 306 307 308 308 308 308 308 308 309 310 310 310 310 311 311 311 311 310 309 309 310 309 308

GFSSGP_sfc_thetae_123.txt.gz
Theta_e
325 314 304 305 298 296 292 297 302 303 306 310 311 315 322 326 324 313 343 348 355 356 359 362 364 365 364 362 361 360 360 359 359 359 358 359 360 361 361 361 361 360 357 357 354 355 355 354 353
316 310 303 299 294 290 293 299 301 305 308 311 313 328 331 328 338 341 343 351 354 357 359 359 364 364 363 361 360 360 360 359 359 359 359 359 359 360 361 361 361 358 356 356 354 355 355 354 354
316 309 297 294 291 292 293 300 302 307 310 310 310 318 333 332 341 343 349 352 356 356 357 359 364 364 363 360 360 360 359 359 359 360 359 359 359 359 360 360 360 357 355 355 353 354 355 354 354
305 300 299 290 290 297 300 302 304 306 310 310 310 308 335 347 342 348 351 354 354 356 357 361 363 363 362 360 359 360 360 359 359 360 359 358 358 359 359 359 359 358 354 353 354 356 356 355 354
299 295 289 289 292 296 302 303 304 303 304 306 308 309 335 348 352 351 351 353 352 354 356 360 363 362 362 360 359 360 359 359 359 360 359 358 359 359 359 359 359 358 356 355 354 356 356 355 355
294 292 285 285 291 299 301 304 302 303 304 306 306 317 333 343 350 349 350 348 353 354 358 359 362 362 361 360 360 359 359 359 358 358 359 359 359 359 359 359 358 358 357 356 356 356 355 354 354
292 288 285 285 292 295 298 304 300 301 300 302 306 327 333 338 343 350 348 350 352 356 358 359 358 360 361 360 359 359 358 358 358 357 358 358 359 359 359 358 357 356 356 356 356 355 354 353 352
296 290 286 288 289 291 299 301 302 300 301 306 316 326 328 338 341 347 349 352 352 353 356 357 357 357 356 356 359 359 358 358 357 357 357 357 358 358 358 355 356 355 355 355 355 355 354 353 352
298 288 284 287 290 292 297 296 302 305 302 303 311 325 337 341 341 345 347 349 349 350 353 355 355 354 355 355 356 359 358 358 357 357 357 354 350 352 353 354 354 355 354 353 354 354 354 353 353
292 286 288 294 295 293 297 297 299 300 300 302 305 338 339 338 339 341 343 344 346 347 350 353 354 354 353 356 355 353 354 353 352 352 352 349 347 348 352 353 355 355 355 354 353 353 353 352 344
291 289 294 296 299 298 298 298 301 297 296 301 301 333 335 337 338 337 338 345 345 347 350 352 353 352 352 353 352 354 353 351 351 352 351 348 347 347 349 346 347 346 350 346 347 345 344 342 339
288 293 296 296 298 298 297 300 299 299 300 303 304 336 336 334 333 331 330 335 343 345 347 349 348 346 349 350 350 352 350 351 349 351 350 346 344 342 343 343 342 342 342 341 341 340 340 339 339
287 290 295 299 298 297 298 297 297 299 302 305 304 317 334 333 331 329 337 337 340 340 342 345 346 346 349 348 349 349 349 350 350 349 350 348 344 341 341 341 339 340 341 340 339 338 337 337 337
292 292 294 294 293 294 296 298 297 300 303 303 303 302 305 307 327 328 337 335 337 338 340 343 343 346 347 345 346 347 349 349 348 348 349 349 344 340 339 338 340 338 339 337 335 336 337 339 338
293 291 293 293 295 292 295 293 295 300 302 301 301 301 301 305 318 328 337 335 336 337 340 341 341 343 343 342 343 343 345 345 344 344 346 346 340 339 339 336 338 335 335 334 334 334 334 334 336
291 290 286 289 293 294 295 290 298 300 300 299 301 301 301 302 305 326 336 338 337 337 338 339 343 341 337 336 338 339 340 342 341 343 345 344 343 342 336 334 337 336 335 335 335 334 331 332 333
287 281 284 287 292 293 293 289 297 299 298 298 299 300 301 300 302 321 336 340 339 338 337 336 337 335 334 331 335 337 336 338 340 342 343 342 342 340 336 335 335 337 335 334 335 334 333 329 331
283 283 285 286 291 291 291 290 294 297 297 297 297 298 299 300 301 320 335 339 340 338 339 336 334 333 331 330 336 338 333 333 337 338 342 342 341 341 338 336 336 335 333 333 333 331 331 331 330
290 288 287 289 294 292 290 290 292 296 295 295 295 295 297 298 300 318 332 336 341 339 337 334 330 330 330 327 330 337 332 331 332 334 337 338 342 342 340 337 336 334 332 333 332 331 328 328 329
290 288 287 291 295 291 291 291 294 294 295 295 297 296 297 297 297 317 330 333 336 335 335 332 330 329 330 332 328 330 327 328 331 332 334 336 340 339 337 337 338 334 332 331 331 329 328 326 331
290 289 288 289 293 293 291 289 292 297 296 297 297 297 298 299 298 318 327 328 331 333 333 332 331 329 330 330 328 327 327 327 330 328 330 333 334 338 331 332 330 328 329 330 328 328 329 323 323
288 294 294 292 289 282 291 281 289 293 295 297 298 296 298 299 298 319 326 327 329 331 333 332 330 328 330 329 329 327 323 324 328 328 328 330 331 333 331 330 330 329 328 326 326 328 327 322 319
291 296 293 293 288 284 287 283 287 292 292 295 297 298 300 300 300 317 326 329 330 331 329 327 328 328 329 330 330 331 328 330 331 332 330 328 330 333 337 335 331 325 325 324 324 321 320 320 320
298 294 292 291 288 279 286 285 285 289 293 295 298 300 301 300 299 317 327 331 331 330 327 326 327 326 329 330 332 332 330 327 327 323 323 322 322 323 324 324 324 323 322 321 319 317 316 315 315
295 289 280 278 278 279 286 285 287 293 297 299 299 300 300 299 307 322 327 329 334 334 332 329 323 319 321 323 323 323 322 324 323 319 318 320 315 315 316 317 317 317 317 317 315 313 313 312 312
292 289 279 275 276 279 289 283 288 299 305 306 308 308 307 298 315 324 327 331 325 320 321 319 317 316 317 317 316 316 315 315 313 313 312 313 312 314 313 314 314 315 315 314 313 311 311 311 311
293 288 290 285 287 282 285 288 298 306 305 308 312 315 316 318 321 322 320 318 317 316 316 316 316 315 315 315 315 314 314 313 312 312 312 312 312 314 313 314 313 313 313 313 311 311 311 311 311
294 294 285 286 279 279 285 288 289 297 301 306 308 309 312 315 315 316 317 316 317 317 316 317 317 315 313 313 313 312 311 312 312 312 310 311 311 312 312 311 311 311 311 311 310 309 310 310 310
294 291 290 288 285 280 281 286 297 299 303 305 307 309 310 311 312 313 313 312 311 312 313 313 313 312 309 311 308 309 309 311 310 309 309 309 309 310 310 311 311 311 310 310 308 308 308 308 308
295 291 291 282 282 285 285 286 301 303 306 307 308 309 310 311 309 307 306 307 308 308 309 309 309 307 305 305 305 305 305 305 305 305 306 307 307 307 308 310 309 309 308 307 306 306 307 307 306